[[[{"header":{"parameterUnit":"kt","parameterCategory":2,"dx":1,"dy":1,"la1":29.587661999999998,"la2":31.0,"lo1":-88.76705300000003,"lo2":-86.6583820000003,"nx":115,"ny":88,"refTime":"2022-10-16T06:00:00:Z","depth":0,"parameterNumber":1,"parameterNumberName":"U-component_of_WINDS"},"data":[-1.9756,-2.0506,-2.1861,-2.3032,-2.3782,-2.4198,-2.4708,-2.4873,-2.3449,-2.3032,-2.3355,-2.2854,-2.2603,-2.2938,-2.3104,-2.3604,-2.4186,-2.4613,-2.4613,-2.4625,-2.4554,-2.4132,-2.3428,-2.247,-2.2544,-2.3112,-2.3994,-2.4708,-2.4968,-2.5348,-2.556,-2.5608,-2.5878,-2.6208,-2.6563,-2.6918,-2.7159,-2.7785,-2.8309,-2.8829,-2.9169,-2.924,-2.9373,-2.9662,-2.997,-2.9816,-2.9856,-3.0356,-3.0514,-3.0772,-3.1088,-3.1693,-3.2206,-3.2633,-3.2881,-3.3327,-3.36,-3.3828,-3.3985,-3.412,-3.4383,-3.4364,-3.4664,-3.4819,-3.496,-3.505,-3.5754,-3.6239,-3.6765,-3.7578,-3.8955,-4.0392,-4.1663,-4.3087,-4.4348,-4.4999,-4.5503,-4.5991,-4.6315,-4.702,-4.7877,-4.8866,-4.9957,-5.0224,-5.0299,-5.0772,-5.1472,-5.1441,-5.1544,-5.1958,-5.2305,-5.1733,-5.1117,-5.0389,-4.9666,-4.9159,-4.967,-5.0168,-5.1119,-5.2744,-5.3634,-5.3422,-5.3681,-5.4579,-5.431,-5.4117,-5.4015,-5.4349,-5.4132,-5.4313,-5.3901,-5.3888,-5.453,-5.4948,-5.539,-1.9512,-1.9756,-2.1011,-2.2112,-2.2854,-2.3304,-2.3805,-2.4115,-2.3199,-2.252,-2.2269,-2.1766,-2.1599,-2.2018,-2.2687,-2.3188,-2.3688,-2.4447,-2.4696,-2.4731,-2.4658,-2.4489,-2.3902,-2.3426,-2.3393,-2.3911,-2.4708,-2.5039,-2.537,-2.5713,-2.5961,-2.5961,-2.6126,-2.6291,-2.662,-2.7031,-2.7523,-2.7972,-2.8435,-2.909,-2.9294,-2.9373,-2.9589,-2.9751,-2.9984,-2.997,-2.9956,-3.008,-3.0309,-3.0678,-3.1336,-3.1858,-3.2351,-3.2492,-3.2711,-3.2742,-3.3027,-3.3226,-3.344,-3.384,-3.411,-3.4392,-3.4769,-3.4988,-3.5084,-3.552,-3.6377,-3.6842,-3.7211,-3.8039,-3.9581,-4.1031,-4.2128,-4.3401,-4.4493,-4.5453,-4.5882,-4.6332,-4.6639,-4.6967,-4.7728,-4.8368,-4.9184,-4.9697,-5.0025,-5.0406,-5.0691,-5.0714,-5.0804,-5.124,-5.1421,-5.09,-5.0429,-4.9786,-4.909,-4.9319,-5.0168,-5.0632,-5.1437,-5.2587,-5.3526,-5.3785,-5.4043,-5.4261,-5.439,-5.4429,-5.4351,-5.4364,-5.4428,-5.4633,-5.4555,-5.4683,-5.529,-5.5917,-5.6387,-1.9428,-1.9587,-2.0853,-2.2018,-2.2948,-2.3032,-2.3544,-2.4032,-2.2687,-2.1683,-2.1263,-2.0937,-2.0937,-2.1609,-2.1944,-2.252,-2.3865,-2.4447,-2.4862,-2.5288,-2.5406,-2.5039,-2.4956,-2.4731,-2.4613,-2.4791,-2.5382,-2.563,-2.5783,-2.6126,-2.662,-2.6797,-2.71,-2.7333,-2.7743,-2.7919,-2.8164,-2.8314,-2.8654,-2.9183,-2.9698,-2.9684,-2.9833,-2.9833,-2.9914,-2.9928,-2.9995,-3.0209,-3.0517,-3.1,-3.1467,-3.2027,-3.2361,-3.2441,-3.2441,-3.2441,-3.2536,-3.2775,-3.3443,-3.3839,-3.406,-3.4517,-3.491,-3.4988,-3.5067,-3.5771,-3.6627,-3.7228,-3.7596,-3.8821,-4.0355,-4.1275,-4.2444,-4.3547,-4.4638,-4.5453,-4.5954,-4.6381,-4.6807,-4.7019,-4.7331,-4.7956,-4.8135,-4.8626,-4.8755,-4.918,-5.002,-5.0116,-5.0293,-5.0588,-5.038,-5.0071,-4.9711,-4.9206,-4.9247,-4.9863,-5.0656,-5.1328,-5.1993,-5.2915,-5.3591,-5.4043,-5.439,-5.4454,-5.4581,-5.4709,-5.49,-5.4937,-5.509,-5.5217,-5.5343,-5.5505,-5.6193,-5.6872,-5.715,-1.9681,-1.985,-2.0843,-2.2028,-2.3021,-2.2698,-2.3199,-2.4032,-2.2102,-2.1105,-2.0778,-2.0516,-2.06,-2.1273,-2.1599,-2.2436,-2.3699,-2.4352,-2.5205,-2.5701,-2.5961,-2.5713,-2.5878,-2.5536,-2.5783,-2.5961,-2.6043,-2.6031,-2.6455,-2.6785,-2.7195,-2.7523,-2.7838,-2.8069,-2.8396,-2.8654,-2.8735,-2.8816,-2.906,-2.9413,-2.9833,-2.9914,-2.9914,-2.9914,-2.9914,-2.9914,-3.0061,-3.0275,-3.0759,-3.1256,-3.1642,-3.2042,-3.2441,-3.2441,-3.2441,-3.2441,-3.2616,-3.3093,-3.3569,-3.3949,-3.4343,-3.4753,-3.4988,-3.4972,-3.5285,-3.6005,-3.6705,-3.7401,-3.8305,-3.9656,-4.0881,-4.1722,-4.2612,-4.3693,-4.4834,-4.5359,-4.5811,-4.6381,-4.6878,-4.6948,-4.7019,-4.7131,-4.7224,-4.7317,-4.7394,-4.8085,-4.9053,-4.9564,-4.9721,-4.9816,-4.9689,-4.9575,-4.9205,-4.9524,-5.0022,-5.054,-5.1102,-5.1794,-5.2587,-5.3045,-5.3566,-5.43,-5.5001,-5.49,-5.49,-5.5153,-5.5343,-5.5505,-5.5694,-5.5819,-5.6006,-5.6379,-5.7055,-5.7421,-5.7724,-2.0263,-2.0684,-2.0862,-2.1609,-2.2603,-2.2217,-2.2374,-2.2687,-2.1525,-2.0862,-2.0862,-2.0768,-2.0778,-2.1105,-2.1525,-2.2447,-2.3521,-2.4352,-2.5205,-2.6031,-2.6208,-2.6291,-2.6208,-2.6043,-2.6373,-2.6538,-2.662,-2.669,-2.7208,-2.7523,-2.7661,-2.7893,-2.8314,-2.864,-2.8816,-2.9155,-2.9237,-2.9318,-2.9494,-2.967,-2.9914,-2.9914,-2.9914,-2.9914,-2.9995,-2.9995,-3.0061,-3.037,-3.0759,-3.1241,-3.1642,-3.2042,-3.2361,-3.2441,-3.2441,-3.2521,-3.2839,-3.3316,-3.3728,-3.4107,-3.45,-3.491,-3.505,-3.5207,-3.5676,-3.6316,-3.7014,-3.7691,-3.8534,-3.9751,-4.118,-4.2148,-4.3034,-4.413,-4.4927,-4.5381,-4.5882,-4.631,-4.6736,-4.7019,-4.7041,-4.7112,-4.7182,-4.7182,-4.7323,-4.8025,-4.8741,-4.8951,-4.9113,-4.9253,-4.9229,-4.9137,-4.9318,-4.9705,-5.0362,-5.1035,-5.1661,-5.2324,-5.3045,-5.363,-5.421,-5.4874,-5.5568,-5.5631,-5.5631,-5.5756,-5.5819,-5.6193,-5.644,-5.6502,-5.6687,-5.7178,-5.7543,-5.7784,-5.8357,-2.0347,-2.0768,-2.0862,-2.1199,-2.1797,-2.1724,-2.1808,-2.2133,-2.1797,-2.1545,-2.1461,-2.1293,-2.1135,-2.1209,-2.1545,-2.2458,-2.3782,-2.4447,-2.5536,-2.6455,-2.6962,-2.6797,-2.688,-2.688,-2.7031,-2.7195,-2.7359,-2.7277,-2.7674,-2.7906,-2.8138,-2.8314,-2.8816,-2.9141,-2.9318,-2.9494,-2.9737,-2.9751,-2.9833,-2.9914,-2.9914,-2.9914,-2.9914,-2.9995,-3.0209,-3.0275,-3.0356,-3.1081,-3.1387,-3.1627,-3.2042,-3.2282,-3.2361,-3.2441,-3.2441,-3.2521,-3.2998,-3.3474,-3.3807,-3.4169,-3.4798,-3.5285,-3.5458,-3.5754,-3.6299,-3.6687,-3.7306,-3.8075,-3.8916,-3.9827,-4.133,-4.2665,-4.362,-4.4566,-4.4999,-4.5453,-4.5882,-4.6239,-4.6594,-4.6948,-4.7112,-4.7182,-4.7253,-4.7253,-4.7464,-4.8164,-4.8651,-4.8766,-4.8881,-4.9088,-4.9157,-4.918,-4.95,-4.9978,-5.0858,-5.1595,-5.2324,-5.3071,-5.3785,-5.4402,-5.4911,-5.5505,-5.5944,-5.613,-5.6317,-5.6317,-5.6255,-5.6687,-5.6994,-5.6994,-5.7055,-5.7543,-5.7965,-5.8476,-5.971,-2.0704,-2.1115,-2.1125,-2.1293,-2.1482,-2.1566,-2.164,-2.1986,-2.1986,-2.1986,-2.1986,-2.165,-2.1566,-2.1566,-2.1566,-2.2719,-2.3793,-2.4779,-2.5949,-2.6797,-2.7303,-2.7385,-2.7385,-2.7303,-2.7536,-2.7605,-2.7687,-2.7605,-2.7756,-2.7988,-2.8233,-2.8654,-2.9155,-2.9575,-2.9833,-2.9914,-2.9914,-2.9914,-2.9914,-2.9914,-2.9914,-3.0061,-3.0128,-3.0304,-3.0517,-3.0773,-3.092,-3.1402,-3.1707,-3.1867,-3.2282,-3.2441,-3.2441,-3.2441,-3.2441,-3.2521,-3.3078,-3.3553,-3.3886,-3.4264,-3.4893,-3.552,-3.5849,-3.6532,-3.7074,-3.7401,-3.7537,-3.8305,-3.9125,-4.028,-4.1648,-4.2739,-4.3693,-4.4493,-4.5071,-4.5431,-4.5882,-4.6239,-4.6594,-4.6878,-4.7019,-4.7182,-4.7464,-4.7464,-4.7745,-4.8373,-4.8697,-4.8812,-4.895,-4.9226,-4.9363,-4.9432,-4.9774,-5.025,-5.106,-5.2192,-5.3005,-5.3785,-5.4555,-5.5164,-5.5605,-5.5979,-5.629,-5.6537,-5.6626,-5.6687,-5.6749,-5.6994,-5.7239,-5.73,-5.7421,-5.7905,-5.8563,-5.9796,-6.1026,-2.1556,-2.1902,-2.1986,-2.1902,-2.1902,-2.1902,-2.1902,-2.1986,-2.1986,-2.1986,-2.1986,-2.1902,-2.1818,-2.1902,-2.1902,-2.2887,-2.4364,-2.4613,-2.5866,-2.6962,-2.7385,-2.7385,-2.7385,-2.7385,-2.7536,-2.7605,-2.7687,-2.7687,-2.7536,-2.7838,-2.8233,-2.8654,-2.9399,-2.9751,-2.9914,-2.9914,-2.9914,-2.9914,-2.9995,-2.9995,-3.0142,-3.0275,-3.0436,-3.0678,-3.0934,-3.1176,-3.1417,-3.1642,-3.1867,-3.2027,-3.2266,-3.2361,-3.2441,-3.2441,-3.2441,-3.268,-3.3332,-3.3648,-3.3949,-3.4579,-3.5207,-3.5988,-3.6256,-3.6782,-3.7401,-3.8093,-3.8305,-3.8897,-3.9883,-4.0956,-4.1945,-4.296,-4.3912,-4.4493,-4.505,-4.5503,-4.5861,-4.631,-4.6665,-4.6878,-4.7019,-4.7253,-4.7534,-4.7815,-4.8025,-4.8581,-4.8881,-4.895,-4.9065,-4.9363,-4.9637,-4.9774,-5.0385,-5.0723,-5.1595,-5.2784,-5.3656,-5.4428,-5.519,-5.5917,-5.6139,-5.651,-5.6722,-5.6933,-5.6994,-5.7055,-5.7117,-5.7239,-5.7482,-5.7664,-5.7784,-5.8357,-5.971,-6.0997,-6.119,-2.165,-2.1986,-2.1986,-2.1986,-2.1986,-2.1986,-2.1986,-2.1986,-2.1986,-2.1986,-2.1986,-2.1986,-2.1986,-2.1986,-2.207,-2.297,-2.453,-2.4696,-2.5701,-2.7208,-2.7385,-2.7385,-2.7385,-2.7385,-2.7536,-2.7674,-2.7756,-2.7756,-2.7838,-2.7906,-2.8233,-2.8721,-2.9399,-2.9833,-2.9995,-2.9995,-2.9995,-2.9995,-3.0076,-3.0142,-3.037,-3.0517,-3.0744,-3.1,-3.1417,-3.1642,-3.1787,-3.1947,-3.2282,-3.2282,-3.2377,-3.2441,-3.2441,-3.2521,-3.2601,-3.2839,-3.3395,-3.3633,-3.4185,-3.4815,-3.5754,-3.667,-3.6997,-3.7537,-3.8152,-3.8918,-3.924,-3.9959,-4.1105,-4.2222,-4.3107,-4.3474,-4.4203,-4.4638,-4.5143,-4.5574,-4.6025,-4.6594,-4.6948,-4.6948,-4.7112,-4.7323,-4.7534,-4.7908,-4.8187,-4.8628,-4.9019,-4.9088,-4.9202,-4.9568,-4.991,-5.0632,-5.1303,-5.2233,-5.3176,-5.3759,-5.4402,-5.5127,-5.5881,-5.6687,-5.6906,-5.6906,-5.7089,-5.73,-5.73,-5.73,-5.7421,-5.7482,-5.7603,-5.7784,-5.7684,-5.8771,-6.0855,-6.0989,-6.0679,-2.1734,-2.1986,-2.1986,-2.1986,-2.1986,-2.1986,-2.1986,-2.1986,-2.1986,-2.1986,-2.1986,-2.1986,-2.1986,-2.2144,-2.2385,-2.3293,-2.4613,-2.4862,-2.5783,-2.729,-2.7385,-2.7385,-2.7454,-2.7536,-2.7756,-2.7906,-2.8001,-2.8083,-2.8151,-2.8233,-2.8477,-2.8816,-2.9413,-2.9818,-2.9899,-3.0142,-3.0142,-3.0128,-3.0304,-3.0451,-3.0759,-3.0905,-3.1146,-3.1497,-3.1882,-3.2042,-3.2042,-3.2282,-3.2361,-3.2441,-3.2457,-3.2441,-3.2441,-3.276,-3.2919,-3.3078,-3.3617,-3.3933,-3.45,-3.5442,-3.6299,-3.7105,-3.7705,-3.8093,-3.9033,-3.9844,-4.0612,-4.1455,-4.2222,-4.2887,-4.3839,-4.413,-4.4493,-4.4927,-4.5287,-4.5718,-4.6168,-4.6736,-4.7019,-4.7019,-4.7019,-4.7253,-4.7464,-4.7697,-4.8234,-4.8697,-4.9226,-4.9363,-4.95,-4.9842,-5.0453,-5.137,-5.2431,-5.3605,-5.4593,-5.4885,-5.539,-5.6042,-5.6749,-5.7178,-5.73,-5.736,-5.7421,-5.7421,-5.7482,-5.7543,-5.7603,-5.7636,-5.7757,-5.7304,-5.6401,-5.689,-5.9679,-6.0834,-6.0116,-2.1986,-2.1986,-2.1986,-2.1986,-2.207,-2.1986,-2.1986,-2.207,-2.207,-2.1986,-2.1986,-2.1986,-2.1986,-2.2144,-2.2792,-2.3688,-2.4696,-2.5536,-2.6455,-2.7208,-2.7385,-2.7467,-2.7536,-2.7769,-2.7988,-2.8069,-2.8233,-2.8409,-2.8559,-2.864,-2.8898,-2.925,-2.9575,-2.9723,-2.9995,-3.037,-3.0517,-3.0598,-3.1015,-3.1116,-3.1232,-3.1317,-3.1541,-3.1735,-3.1881,-3.2146,-3.2208,-3.2333,-3.221,-3.2305,-3.232,-3.2399,-3.2415,-3.281,-3.3221,-3.3442,-3.409,-3.4563,-3.505,-3.6299,-3.7401,-3.8363,-3.8419,-3.8864,-3.9838,-4.052,-4.1102,-4.2605,-4.3107,-4.3547,-4.3839,-4.4276,-4.4711,-4.5143,-4.5574,-4.5932,-4.631,-4.6807,-4.6948,-4.7019,-4.7019,-4.7112,-4.7323,-4.7675,-4.8211,-4.8835,-4.9363,-4.9705,-4.9842,-5.0318,-5.0992,-5.1969,-5.2995,-5.4376,-5.5703,-5.5988,-5.6325,-5.6967,-5.736,-5.736,-5.7421,-5.7482,-5.7482,-5.7543,-5.7603,-5.7697,-5.7697,-5.7735,-5.7782,-5.761,-5.6135,-5.6473,-5.8951,-6.0446,-5.8805,-2.249,-2.249,-2.2154,-2.2322,-2.2898,-2.2898,-2.2741,-2.2563,-2.2573,-2.2322,-2.1986,-2.1986,-2.1986,-2.2227,-2.2948,-2.3854,-2.4779,-2.5783,-2.6633,-2.7126,-2.7536,-2.7618,-2.7769,-2.7988,-2.8233,-2.8396,-2.8559,-2.864,-2.8735,-2.8979,-2.9209,-2.9519,-2.9885,-3.0114,-3.0436,-3.0759,-3.1095,-3.1095,-3.1211,-3.1188,-3.1135,-3.1246,-3.131,-3.167,-3.1332,-3.1563,-3.2088,-3.1996,-3.1841,-3.1888,-3.206,-3.2138,-3.2355,-3.2713,-3.3387,-3.4147,-3.4736,-3.5145,-3.6083,-3.7323,-3.8763,-3.9581,-3.9493,-4.0021,-4.0974,-4.1592,-4.2227,-4.3652,-4.413,-4.4348,-4.4421,-4.4472,-4.4834,-4.5165,-4.5544,-4.6097,-4.6453,-4.6807,-4.6948,-4.7041,-4.7112,-4.7182,-4.7442,-4.7609,-4.8189,-4.8858,-4.9291,-4.9514,-4.9971,-5.0791,-5.1528,-5.2496,-5.3475,-5.5112,-5.6783,-5.6722,-5.6722,-5.736,-5.7482,-5.7421,-5.7482,-5.7482,-5.7543,-5.7664,-5.7784,-5.7817,-5.7897,-5.7893,-5.7892,-5.7665,-5.8204,-5.8333,-6.0592,-6.1086,-5.8822,-2.2992,-2.2992,-2.2887,-2.2981,-2.3327,-2.3649,-2.3721,-2.3555,-2.3805,-2.3805,-2.3555,-2.3054,-2.2887,-2.321,-2.3782,-2.453,-2.5276,-2.6361,-2.7264,-2.7687,-2.7851,-2.8001,-2.8246,-2.8491,-2.8708,-2.9046,-2.9141,-2.9155,-2.9262,-2.9709,-2.9719,-2.9813,-3.0176,-3.0496,-3.0795,-3.1095,-3.1431,-3.1672,-3.2012,-3.2239,-3.1981,-3.1749,-3.1455,-3.1671,-3.0989,-3.1023,-3.1517,-3.1439,-3.1406,-3.142,-3.174,-3.1832,-3.1968,-3.2482,-3.3114,-3.3806,-3.4896,-3.5381,-3.6217,-3.7832,-3.9298,-4.026,-4.0271,-4.0176,-4.033,-4.1601,-4.2916,-4.405,-4.4711,-4.4291,-4.4435,-4.4477,-4.4757,-4.5086,-4.5556,-4.6151,-4.6524,-4.6878,-4.7041,-4.7112,-4.7182,-4.7394,-4.7492,-4.759,-4.8259,-4.8879,-4.9056,-4.948,-5.0439,-5.1261,-5.2035,-5.2955,-5.3669,-5.5075,-5.6042,-5.6687,-5.7239,-5.736,-5.7543,-5.7603,-5.7697,-5.7697,-5.7669,-5.7905,-5.7998,-5.7562,-5.7529,-5.7917,-5.7357,-5.6221,-5.716,-5.9429,-6.0857,-6.1801,-5.9503,-2.3494,-2.3566,-2.4126,-2.4055,-2.3733,-2.4459,-2.4862,-2.4873,-2.5618,-2.5878,-2.5536,-2.4862,-2.4447,-2.4684,-2.5015,-2.5524,-2.6196,-2.7838,-2.8396,-2.8545,-2.8599,-2.8639,-2.8841,-2.9109,-2.9389,-2.9928,-2.9648,-2.9916,-3.0365,-3.0277,-3.0338,-3.0384,-3.0295,-3.076,-3.1176,-3.1477,-3.1743,-3.223,-3.2638,-3.3029,-3.2711,-3.2272,-3.1727,-3.1617,-3.0968,-3.0539,-3.0647,-3.0914,-3.1016,-3.1016,-3.1418,-3.1641,-3.1846,-3.242,-3.3157,-3.4012,-3.5018,-3.5719,-3.6295,-3.7694,-3.8975,-3.94,-3.9795,-4.0112,-3.9782,-4.095,-4.2736,-4.4371,-4.4116,-4.3989,-4.4052,-4.406,-4.4636,-4.5033,-4.5741,-4.6315,-4.6736,-4.6997,-4.6978,-4.7067,-4.7323,-4.7675,-4.7794,-4.7776,-4.8296,-4.8683,-4.899,-4.962,-5.0623,-5.177,-5.2562,-5.3216,-5.3863,-5.453,-5.5505,-5.613,-5.6749,-5.7055,-5.7603,-5.7845,-5.7883,-5.7915,-5.786,-5.7929,-5.7467,-5.7137,-5.6868,-5.671,-5.6196,-5.4858,-5.5678,-5.8792,-6.0733,-6.0713,-5.8926,-2.5536,-2.5783,-2.5949,-2.5949,-2.5878,-2.6031,-2.6196,-2.6196,-2.6538,-2.6525,-2.6336,-2.6241,-2.5899,-2.5817,-2.5924,-2.6348,-2.7075,-2.8069,-2.8884,-2.919,-2.9262,-2.9314,-2.9389,-2.9141,-2.9557,-3.0924,-3.0018,-2.9876,-3.0291,-3.0597,-3.0536,-3.0323,-3.0383,-3.0899,-3.1583,-3.1936,-3.2075,-3.2363,-3.2454,-3.2197,-3.1763,-3.1311,-3.1109,-3.0854,-3.0375,-3.0295,-3.1122,-3.1077,-3.0758,-3.0814,-3.1191,-3.1624,-3.1894,-3.2555,-3.3352,-3.4576,-3.5365,-3.6066,-3.6628,-3.7614,-3.859,-3.9295,-3.9841,-4.0208,-3.9507,-4.0189,-4.1912,-4.4286,-4.3628,-4.3613,-4.3975,-4.4017,-4.4417,-4.4963,-4.5664,-4.6347,-4.6833,-4.6636,-4.6643,-4.6872,-4.7288,-4.768,-4.796,-4.7946,-4.8207,-4.8568,-4.9152,-4.9868,-5.0941,-5.2142,-5.289,-5.354,-5.4081,-5.4492,-5.529,-5.5891,-5.629,-5.6845,-5.7724,-5.809,-5.7957,-5.7933,-5.7664,-5.7254,-5.6842,-5.6288,-5.5562,-5.5387,-5.5163,-5.5101,-5.5626,-5.8526,-5.9774,-5.9061,-5.8045,-2.722,-2.6949,-2.7195,-2.7264,-2.7264,-2.7674,-2.7919,-2.8151,-2.8491,-2.864,-2.8613,-2.8613,-2.8206,-2.7553,-2.6993,-2.7333,-2.7974,-2.8803,-2.9326,-2.9309,-2.9556,-2.9711,-2.9751,-2.9316,-2.9553,-3.0551,-3.0292,-3.0028,-3.0405,-3.063,-3.0531,-3.0413,-3.0785,-3.1361,-3.2231,-3.2649,-3.2877,-3.286,-3.2567,-3.2272,-3.1982,-3.174,-3.1629,-3.1755,-3.0864,-3.077,-3.118,-3.1087,-3.1165,-3.0939,-3.1569,-3.2073,-3.2456,-3.2975,-3.3702,-3.5146,-3.5857,-3.6405,-3.6842,-3.7982,-3.8777,-3.9356,-3.9886,-4.0138,-3.9861,-4.0314,-4.1614,-4.3394,-4.264,-4.2389,-4.2846,-4.3335,-4.3807,-4.4169,-4.442,-4.5004,-4.5409,-4.5747,-4.6198,-4.6723,-4.7112,-4.7684,-4.8062,-4.8184,-4.8474,-4.9152,-4.9989,-5.0614,-5.1524,-5.2643,-5.3346,-5.3927,-5.421,-5.4428,-5.5075,-5.5864,-5.6387,-5.7211,-5.8085,-5.8111,-5.7917,-5.7482,-5.6986,-5.6514,-5.5842,-5.5108,-5.4358,-5.4297,-5.4606,-5.5106,-5.5718,-5.7374,-5.8846,-5.8229,-5.841,-2.8536,-2.7713,-2.8001,-2.8233,-2.8314,-2.9074,-2.9628,-3.0099,-3.0693,-3.1286,-3.1,-3.1095,-3.0503,-2.9519,-2.8708,-2.864,-2.9046,-2.9762,-2.9973,-2.9784,-3.0081,-2.9985,-2.9553,-2.9284,-2.998,-3.0785,-3.0574,-3.0821,-3.1328,-3.0975,-3.0741,-3.0799,-3.1317,-3.1959,-3.2614,-3.3045,-3.3875,-3.4022,-3.3628,-3.3466,-3.3561,-3.3114,-3.3081,-3.2959,-3.2265,-3.1682,-3.1665,-3.2024,-3.2142,-3.1784,-3.2429,-3.3002,-3.3454,-3.3704,-3.4086,-3.4881,-3.5822,-3.6884,-3.743,-3.8193,-3.8799,-3.9197,-3.9593,-3.9856,-3.98,-4.0122,-4.0785,-4.1827,-4.1837,-4.1888,-4.2042,-4.2418,-4.264,-4.3057,-4.3719,-4.4119,-4.4341,-4.4966,-4.5325,-4.582,-4.606,-4.6882,-4.7972,-4.8332,-4.8919,-4.9874,-5.0784,-5.1409,-5.2197,-5.3115,-5.3888,-5.4312,-5.4657,-5.4593,-5.5049,-5.5988,-5.6695,-5.7636,-5.802,-5.8016,-5.752,-5.6851,-5.6346,-5.561,-5.4679,-5.3958,-5.3754,-5.3806,-5.401,-5.4783,-5.6015,-5.7061,-5.7986,-5.8284,-5.8579,-2.9238,-2.9006,-2.9074,-2.9304,-2.9519,-2.9776,-3.0275,-3.0949,-3.1271,-3.1497,-3.1722,-3.1722,-3.1402,-3.092,-3.0693,-3.0627,-3.0773,-3.0839,-3.0811,-3.0605,-3.0581,-3.0412,-3.0054,-2.9965,-3.0112,-3.1179,-3.1077,-3.1285,-3.2191,-3.2173,-3.192,-3.1698,-3.1337,-3.1853,-3.2715,-3.3235,-3.3262,-3.3636,-3.389,-3.3822,-3.3704,-3.3578,-3.369,-3.3618,-3.346,-3.3235,-3.3033,-3.3302,-3.3168,-3.3033,-3.3051,-3.3186,-3.3704,-3.4104,-3.5013,-3.6325,-3.7014,-3.7337,-3.7656,-3.8116,-3.8543,-3.8951,-3.8955,-3.9062,-3.9296,-3.9614,-4.0125,-4.1338,-4.1219,-4.0771,-4.1919,-4.2356,-4.2595,-4.2924,-4.3476,-4.3963,-4.3982,-4.4134,-4.4486,-4.492,-4.5022,-4.5953,-4.7481,-4.8139,-4.974,-5.0811,-5.1811,-5.2393,-5.3078,-5.3902,-5.4312,-5.4758,-5.4948,-5.4822,-5.5739,-5.6852,-5.7239,-5.8003,-5.8153,-5.7609,-5.688,-5.6058,-5.5618,-5.5028,-5.4143,-5.381,-5.3496,-5.3433,-5.4185,-5.5138,-5.6382,-5.736,-5.8168,-5.8589,-5.8765,-2.9779,-2.9642,-2.9804,-3.0194,-3.0598,-3.0825,-3.1226,-3.1832,-3.1832,-3.1977,-3.2122,-3.2202,-3.2057,-3.1897,-3.1817,-3.1592,-3.1232,-3.0989,-3.0645,-3.0383,-3.0179,-2.988,-2.9324,-2.9761,-3.0503,-3.1352,-3.2127,-3.275,-3.3118,-3.3118,-3.28,-3.2377,-3.2597,-3.2867,-3.3338,-3.3673,-3.4178,-3.4359,-3.4474,-3.4474,-3.4692,-3.4493,-3.4673,-3.4721,-3.4702,-3.4569,-3.4455,-3.4455,-3.4522,-3.4256,-3.4322,-3.4654,-3.5117,-3.5625,-3.6279,-3.7317,-3.7724,-3.7873,-3.8109,-3.8257,-3.8513,-3.8831,-3.8916,-3.8958,-3.9043,-3.917,-3.9594,-4.0405,-4.0124,-4.0654,-4.1721,-4.171,-4.1945,-4.2364,-4.2664,-4.2811,-4.2983,-4.3174,-4.3787,-4.4467,-4.5179,-4.629,-4.7385,-4.8999,-5.0533,-5.1718,-5.2718,-5.3452,-5.4069,-5.4504,-5.4758,-5.5138,-5.5301,-5.5988,-5.7642,-5.7845,-5.7867,-5.8226,-5.8226,-5.7105,-5.6137,-5.4871,-5.4269,-5.4469,-5.4423,-5.4127,-5.3942,-5.4281,-5.4854,-5.5542,-5.6786,-5.788,-5.8474,-5.8889,-5.9054,-3.0268,-3.0237,-3.0532,-3.092,-3.1431,-3.1722,-3.2042,-3.2441,-3.2377,-3.2441,-3.2441,-3.2441,-3.2441,-3.2361,-3.2441,-3.2137,-3.1647,-3.1251,-3.0468,-2.9794,-2.9801,-2.9611,-2.941,-2.9965,-3.0912,-3.1902,-3.3118,-3.3874,-3.3771,-3.3655,-3.3521,-3.3253,-3.3606,-3.3807,-3.4074,-3.454,-3.4853,-3.5183,-3.5164,-3.5296,-3.5644,-3.5644,-3.5644,-3.5972,-3.5887,-3.571,-3.5598,-3.5776,-3.5776,-3.5315,-3.5749,-3.6188,-3.6625,-3.6994,-3.7402,-3.7917,-3.8109,-3.8301,-3.8513,-3.8704,-3.8831,-3.9043,-3.9043,-3.9043,-3.9085,-3.9191,-3.9466,-3.991,-4.0327,-4.0694,-4.0694,-4.1244,-4.1318,-4.1358,-4.1638,-4.1823,-4.1947,-4.2452,-4.3227,-4.4402,-4.5676,-4.6886,-4.85,-5.002,-5.1584,-5.2889,-5.3812,-5.4542,-5.529,-5.5578,-5.5641,-5.5739,-5.5864,-5.7521,-5.898,-5.8412,-5.8044,-5.8336,-5.75,-5.6336,-5.5241,-5.381,-5.3636,-5.4401,-5.4565,-5.4569,-5.4979,-5.5402,-5.5819,-5.617,-5.7242,-5.8421,-5.8765,-5.9054,-5.9266,-3.0929,-3.111,-3.119,-3.1417,-3.1802,-3.1867,-3.2187,-3.2426,-3.2441,-3.249,-3.2441,-3.2441,-3.2601,-3.2441,-3.2521,-3.2457,-3.2251,-3.2021,-3.1316,-3.035,-3.022,-2.9912,-3.0074,-3.081,-3.1902,-3.3168,-3.4322,-3.4739,-3.4721,-3.4654,-3.4407,-3.3941,-3.4008,-3.4208,-3.4141,-3.4389,-3.4966,-3.5664,-3.5887,-3.6234,-3.6364,-3.6625,-3.667,-3.6864,-3.6735,-3.669,-3.6625,-3.6494,-3.6429,-3.6299,-3.6057,-3.669,-3.7466,-3.7917,-3.8065,-3.8109,-3.8428,-3.8619,-3.8768,-3.8895,-3.9043,-3.9043,-3.9106,-3.9106,-3.9233,-3.9443,-3.9653,-4.003,-4.0467,-4.1088,-4.1128,-4.1374,-4.1536,-4.1598,-4.1575,-4.1743,-4.2155,-4.2823,-4.3784,-4.4791,-4.6015,-4.7658,-4.9378,-5.1151,-5.2623,-5.4028,-5.487,-5.5694,-5.6502,-5.6994,-5.6906,-5.6906,-5.7157,-5.8389,-5.8748,-5.8393,-5.8108,-5.781,-5.6622,-5.5643,-5.4709,-5.4086,-5.405,-5.4646,-5.5185,-5.5342,-5.5667,-5.6337,-5.6756,-5.6916,-5.7688,-5.8599,-5.8972,-5.9225,-5.9266,-3.1086,-3.1336,-3.1752,-3.2057,-3.2282,-3.2665,-3.2795,-3.2716,-3.2984,-3.281,-3.2434,-3.2952,-3.3078,-3.2919,-3.3078,-3.3157,-3.3173,-3.3141,-3.2339,-3.0984,-3.0213,-3.008,-3.0339,-3.1766,-3.332,-3.4503,-3.5183,-3.5466,-3.5466,-3.5466,-3.5354,-3.507,-3.507,-3.4957,-3.507,-3.5203,-3.5494,-3.6038,-3.6429,-3.669,-3.682,-3.7059,-3.7123,-3.7123,-3.7123,-3.7208,-3.7337,-3.7164,-3.7208,-3.7293,-3.7228,-3.7551,-3.8237,-3.8364,-3.8492,-3.8577,-3.8831,-3.8895,-3.8895,-3.9022,-3.917,-3.9359,-3.9338,-3.9486,-3.9716,-3.9946,-4.0134,-4.0343,-4.0778,-4.1397,-4.1643,-4.1888,-4.1888,-4.201,-4.217,-4.2376,-4.2581,-4.3245,-4.439,-4.5855,-4.6548,-4.8335,-5.0339,-5.2186,-5.3671,-5.4457,-5.5295,-5.6077,-5.694,-5.7218,-5.7427,-5.7724,-5.809,-5.842,-5.8574,-5.856,-5.8346,-5.7273,-5.6272,-5.5501,-5.4773,-5.4626,-5.4635,-5.5388,-5.6125,-5.6261,-5.6546,-5.7373,-5.7966,-5.7903,-5.8084,-5.8775,-5.9217,-5.9225,-5.9266,-3.1464,-3.1882,-3.2148,-3.2402,-3.2621,-3.3252,-3.3165,-3.2495,-3.3183,-3.29,-3.238,-3.2946,-3.3137,-3.2888,-3.2996,-3.3357,-3.3167,-3.3103,-3.2674,-3.1196,-3.0329,-3.0332,-3.1356,-3.2764,-3.4389,-3.5381,-3.5861,-3.5926,-3.5926,-3.5861,-3.5926,-3.5861,-3.5729,-3.5926,-3.5926,-3.5926,-3.6234,-3.6494,-3.6625,-3.6904,-3.7143,-3.7273,-3.7337,-3.7382,-3.7382,-3.7466,-3.7616,-3.7616,-3.7873,-3.8193,-3.8237,-3.8385,-3.8704,-3.8768,-3.8831,-3.8958,-3.9106,-3.9233,-3.9233,-3.9359,-3.9464,-3.9738,-3.9801,-3.9864,-4.0218,-4.0343,-4.0508,-4.0694,-4.1004,-4.1458,-4.1972,-4.2178,-4.23,-4.246,-4.2763,-4.3004,-4.3125,-4.3748,-4.4931,-4.6505,-4.7564,-4.912,-5.1619,-5.3121,-5.4308,-5.4897,-5.566,-5.6376,-5.6832,-5.717,-5.7433,-5.7697,-5.8178,-5.8713,-5.898,-5.9103,-5.8347,-5.7159,-5.6504,-5.5815,-5.5204,-5.4937,-5.5636,-5.6276,-5.6933,-5.7285,-5.746,-5.821,-5.8547,-5.8609,-5.8702,-5.9022,-5.9257,-5.9225,-5.9266,-3.2916,-3.3458,-3.2307,-3.2131,-3.2626,-3.2735,-3.2443,-3.201,-3.2615,-3.2459,-3.1887,-3.1839,-3.2138,-3.1871,-3.2261,-3.201,-3.201,-3.2229,-3.1881,-3.1798,-3.1529,-3.2055,-3.3172,-3.3971,-3.4919,-3.5907,-3.5926,-3.6057,-3.6188,-3.6123,-3.5992,-3.6188,-3.6123,-3.5992,-3.6253,-3.6449,-3.6494,-3.669,-3.6949,-3.7273,-3.7466,-3.7531,-3.766,-3.7852,-3.7852,-3.7917,-3.7917,-3.8045,-3.8321,-3.8958,-3.8958,-3.8958,-3.9043,-3.9043,-3.9106,-3.9212,-3.9486,-3.9612,-3.9612,-3.9864,-4.0114,-4.0114,-4.0177,-4.0177,-4.0365,-4.053,-4.0632,-4.0694,-4.1026,-4.1542,-4.2117,-4.2399,-4.2642,-4.3004,-4.3125,-4.3425,-4.3844,-4.426,-4.493,-4.6064,-4.7958,-4.9851,-5.2024,-5.3952,-5.5261,-5.5084,-5.6176,-5.6595,-5.6756,-5.7395,-5.7855,-5.803,-5.8476,-5.9064,-5.9328,-5.9648,-5.8462,-5.7776,-5.7417,-5.654,-5.5896,-5.6048,-5.6638,-5.7123,-5.7602,-5.7977,-5.8263,-5.8474,-5.8756,-5.8889,-5.894,-5.9103,-5.9306,-5.9387,-5.97,-3.1855,-3.2539,-3.217,-3.2147,-3.2465,-3.2647,-3.2313,-3.1961,-3.2453,-3.2256,-3.1669,-3.2027,-3.2223,-3.2059,-3.2207,-3.2297,-3.2387,-3.2313,-3.2412,-3.25,-3.2286,-3.3166,-3.469,-3.571,-3.6234,-3.6884,-3.7079,-3.7164,-3.7164,-3.7208,-3.7208,-3.7143,-3.7208,-3.7208,-3.7208,-3.7402,-3.7466,-3.7466,-3.7595,-3.7724,-3.7852,-3.7852,-3.8001,-3.8045,-3.8065,-3.8065,-3.8109,-3.8301,-3.8895,-3.9464,-3.9338,-3.9275,-3.9653,-3.9527,-3.9527,-3.9738,-3.9926,-3.9989,-4.0052,-4.0114,-4.0302,-4.0405,-4.0467,-4.057,-4.0756,-4.0903,-4.0942,-4.0942,-4.1229,-4.1643,-4.2117,-4.2399,-4.28,-4.3342,-4.388,-4.4354,-4.4849,-4.5293,-4.6136,-4.7225,-4.8402,-4.9718,-5.1837,-5.3653,-5.4612,-5.5241,-5.6266,-5.6636,-5.6733,-5.7846,-5.8567,-5.8654,-5.8949,-5.933,-5.9678,-5.9739,-5.8916,-5.9389,-5.8992,-5.7526,-5.7198,-5.7355,-5.7772,-5.7945,-5.8358,-5.8609,-5.8733,-5.893,-5.9127,-5.9208,-5.9217,-5.9306,-5.9508,-5.9627,-6.0094,-3.1466,-3.1994,-3.2091,-3.2097,-3.2206,-3.2861,-3.2513,-3.1622,-3.2631,-3.2458,-3.1634,-3.2303,-3.2492,-3.2254,-3.247,-3.2593,-3.2564,-3.2653,-3.2847,-3.3229,-3.3151,-3.437,-3.5938,-3.7014,-3.7466,-3.766,-3.7852,-3.8065,-3.8065,-3.8001,-3.8001,-3.8065,-3.8173,-3.828,-3.8428,-3.8428,-3.8492,-3.8364,-3.8301,-3.8237,-3.8257,-3.8237,-3.8364,-3.8535,-3.8747,-3.8747,-3.8662,-3.9064,-3.9736,-4.057,-4.0071,-4.0093,-4.0632,-4.0405,-4.0383,-4.0694,-4.0818,-4.0903,-4.088,-4.0903,-4.1026,-4.1273,-4.1105,-4.1044,-4.1475,-4.1313,-4.1212,-4.1251,-4.1475,-4.1804,-4.2216,-4.2581,-4.3065,-4.3641,-4.4472,-4.521,-4.5872,-4.6414,-4.7067,-4.815,-4.8907,-4.996,-5.1516,-5.3055,-5.4185,-5.446,-5.5525,-5.6617,-5.6483,-5.7224,-5.8415,-5.8731,-5.9163,-5.9566,-5.9856,-5.9857,-5.9996,-6.04,-5.9675,-5.8168,-5.8218,-5.8133,-5.8271,-5.8682,-5.8807,-5.8899,-5.9095,-5.9338,-5.9419,-5.9572,-5.958,-5.9667,-5.9826,-6.0178,-6.0673,-3.2745,-3.267,-3.2019,-3.1814,-3.1985,-3.322,-3.2716,-3.1388,-3.2977,-3.3028,-3.2007,-3.2333,-3.2418,-3.228,-3.2214,-3.2265,-3.2313,-3.2539,-3.3001,-3.3929,-3.4976,-3.6024,-3.6949,-3.7466,-3.7809,-3.8045,-3.8129,-3.8193,-3.8301,-3.8301,-3.8109,-3.8428,-3.8958,-3.9085,-3.9253,-3.94,-3.9442,-3.9253,-3.8916,-3.8789,-3.8831,-3.881,-3.9106,-3.9861,-4.0237,-4.0237,-4.009,-4.0588,-4.1245,-4.1736,-4.1514,-4.1514,-4.1736,-4.1636,-4.1491,-4.1797,-4.2223,-4.2307,-4.2428,-4.2231,-4.2437,-4.2679,-4.2147,-4.1781,-4.2125,-4.1842,-4.1559,-4.1413,-4.1659,-4.1987,-4.2558,-4.2884,-4.3485,-4.4082,-4.5059,-4.5938,-4.6938,-4.7164,-4.7573,-4.8281,-4.9548,-5.0736,-5.094,-5.2736,-5.322,-5.3229,-5.4029,-5.4998,-5.5417,-5.6594,-5.7805,-5.8458,-5.8944,-5.9343,-5.9726,-5.9689,-5.9663,-5.9921,-5.9507,-5.8813,-5.8809,-5.839,-5.8274,-5.8765,-5.9054,-5.9176,-5.9338,-5.9588,-5.9786,-6.0094,-6.025,-6.0172,-6.0443,-6.0866,-6.1385,-3.2853,-3.2837,-3.2572,-3.2416,-3.2506,-3.3021,-3.2776,-3.2329,-3.322,-3.3302,-3.2952,-3.3101,-3.3235,-3.3235,-3.3118,-3.3101,-3.3235,-3.3485,-3.4503,-3.5953,-3.68,-3.7382,-3.8045,-3.8237,-3.8449,-3.864,-3.8704,-3.8895,-3.9295,-3.9358,-3.961,-4.0237,-4.0526,-4.073,-4.0915,-4.1038,-4.11,-4.0893,-4.0769,-4.069,-4.0588,-4.069,-4.0814,-4.1021,-4.1329,-4.1391,-4.1368,-4.2391,-4.2693,-4.2162,-4.2391,-4.2619,-4.2656,-4.2451,-4.2368,-4.2633,-4.2837,-4.3018,-4.3138,-4.3102,-4.3162,-4.3474,-4.3115,-4.2874,-4.2768,-4.3008,-4.2647,-4.2466,-4.261,-4.3078,-4.3581,-4.3581,-4.4152,-4.5591,-4.6282,-4.6825,-4.7389,-4.7946,-4.8496,-4.8986,-4.9689,-5.023,-5.0799,-5.2026,-5.2683,-5.2711,-5.3841,-5.4894,-5.5173,-5.5841,-5.6704,-5.7516,-5.828,-5.8916,-5.944,-5.9511,-5.941,-5.9285,-5.9171,-5.9013,-5.8923,-5.8451,-5.8484,-5.8972,-5.9492,-5.9612,-5.9944,-6.0178,-6.0525,-6.0829,-6.1161,-6.1312,-6.1639,-6.1925,-6.2242,-3.3387,-3.3186,-3.3405,-3.3405,-3.3204,-3.3655,-3.3588,-3.3387,-3.4104,-3.4285,-3.4285,-3.4569,-3.4702,-3.4654,-3.4503,-3.4569,-3.4702,-3.5474,-3.6475,-3.768,-3.7917,-3.8385,-3.8895,-3.9022,-3.9085,-3.9401,-3.959,-4.0008,-4.0464,-4.0588,-4.096,-4.1636,-4.1965,-4.1987,-4.1741,-4.1921,-4.1677,-4.1388,-4.1282,-4.1164,-4.0971,-4.1318,-4.1621,-4.169,-4.2206,-4.2582,-4.2766,-4.3961,-4.4129,-4.3308,-4.3737,-4.4022,-4.3939,-4.3653,-4.3653,-4.3939,-4.3998,-4.4117,-4.4236,-4.4058,-4.4093,-4.4365,-4.4129,-4.3951,-4.4199,-4.4057,-4.3618,-4.3404,-4.3666,-4.4188,-4.46,-4.4483,-4.5277,-4.7102,-4.747,-4.7805,-4.8138,-4.8798,-4.9395,-4.9746,-5.0041,-5.0227,-5.0524,-5.1254,-5.2074,-5.2209,-5.3221,-5.4355,-5.4853,-5.5451,-5.6151,-5.7118,-5.7463,-5.8151,-5.8876,-5.9206,-5.8979,-5.8774,-5.8668,-5.8457,-5.8557,-5.8442,-5.8848,-5.933,-5.9772,-6.0205,-6.0634,-6.1049,-6.1491,-6.1816,-6.1994,-6.2413,-6.2889,-6.3154,-6.3282,-3.454,-3.3989,-3.4607,-3.4522,-3.4104,-3.5183,-3.5249,-3.4749,-3.5822,-3.6129,-3.5868,-3.6279,-3.6429,-3.6364,-3.6064,-3.6194,-3.6755,-3.7852,-3.8492,-3.8768,-3.8895,-3.9296,-3.9612,-3.959,-3.9801,-4.0177,-4.0734,-4.1145,-4.1659,-4.1919,-4.2079,-4.2223,-4.2828,-4.2612,-4.1524,-4.1906,-4.1378,-4.054,-4.024,-3.9876,-3.9514,-4.0677,-4.1431,-4.1838,-4.2884,-4.3708,-4.4255,-4.5186,-4.5542,-4.5616,-4.5674,-4.5814,-4.5558,-4.531,-4.5418,-4.5459,-4.5575,-4.5715,-4.5608,-4.522,-4.5006,-4.5443,-4.4903,-4.4971,-4.5797,-4.5078,-4.4234,-4.4293,-4.4645,-4.5112,-4.5567,-4.6002,-4.68,-4.7998,-4.8441,-4.8661,-4.8989,-4.9531,-5.0013,-5.0227,-5.0491,-5.0597,-5.0491,-5.1,-5.1503,-5.1736,-5.2267,-5.3,-5.4083,-5.4825,-5.5992,-5.7162,-5.7564,-5.7762,-5.8365,-5.8858,-5.8557,-5.829,-5.826,-5.8337,-5.8515,-5.8848,-5.9249,-5.9652,-6.0127,-6.0602,-6.1053,-6.1854,-6.231,-6.2517,-6.2755,-6.3022,-6.3383,-6.3671,-6.4045,-3.5466,-3.5334,-3.5532,-3.5466,-3.5381,-3.6057,-3.6168,-3.6038,-3.682,-3.7143,-3.7123,-3.7402,-3.7595,-3.7595,-3.7446,-3.796,-3.9085,-3.9464,-3.9716,-3.9716,-3.9801,-3.9905,-4.0052,-4.0052,-4.0343,-4.0734,-4.096,-4.1675,-4.2828,-4.3165,-4.3725,-4.4234,-4.3734,-4.3455,-4.326,-4.2658,-4.2194,-4.1823,-4.1671,-4.1507,-4.1409,-4.2525,-4.288,-4.2363,-4.3398,-4.4448,-4.535,-4.5008,-4.5133,-4.5748,-4.5847,-4.5847,-4.5773,-4.5119,-4.4696,-4.4678,-4.4081,-4.3713,-4.3798,-4.3658,-4.4037,-4.5156,-4.4921,-4.5296,-4.6598,-4.6428,-4.6142,-4.6052,-4.6257,-4.6655,-4.7133,-4.7917,-4.8632,-4.9042,-4.9395,-4.9585,-4.9638,-4.9986,-5.0199,-5.0331,-5.0542,-5.0702,-5.073,-5.1305,-5.1747,-5.1924,-5.2332,-5.28,-5.3503,-5.4091,-5.4861,-5.5907,-5.6562,-5.7272,-5.8082,-5.84,-5.8252,-5.8366,-5.8337,-5.8557,-5.8807,-5.9217,-5.9652,-6.0016,-6.0449,-6.0983,-6.1644,-6.2483,-6.2821,-6.3021,-6.3253,-6.3447,-6.3765,-6.4076,-6.4349,-3.669,-3.669,-3.6755,-3.669,-3.6775,-3.7034,-3.7273,-3.751,-3.7917,-3.8173,-3.8321,-3.8704,-3.8747,-3.8704,-3.8831,-3.9464,-4.0467,-4.0405,-4.0592,-4.0858,-4.0756,-4.0903,-4.1066,-4.1066,-4.1352,-4.1781,-4.198,-4.2828,-4.4081,-4.4106,-4.4619,-4.5253,-4.4527,-4.3901,-4.3727,-4.2671,-4.1897,-4.1652,-4.1575,-4.1695,-4.1882,-4.314,-4.3406,-4.2483,-4.3815,-4.4769,-4.507,-4.5196,-4.5346,-4.5591,-4.5616,-4.5616,-4.5515,-4.4618,-4.4016,-4.3966,-4.3339,-4.3015,-4.3121,-4.2987,-4.3421,-4.4428,-4.4834,-4.5342,-4.5732,-4.6754,-4.7384,-4.7271,-4.7496,-4.7657,-4.7939,-4.8511,-4.9234,-4.9476,-4.9203,-4.8924,-4.9411,-4.96,-4.9757,-4.9916,-5.0405,-5.086,-5.1305,-5.2004,-5.2512,-5.2686,-5.3107,-5.3531,-5.3855,-5.4425,-5.5073,-5.5544,-5.6003,-5.6666,-5.7857,-5.804,-5.8252,-5.8348,-5.8724,-5.9013,-5.9347,-5.9786,-6.0333,-6.0791,-6.1168,-6.168,-6.2171,-6.2956,-6.3217,-6.3413,-6.3604,-6.3828,-6.4071,-6.4378,-6.468,-3.8173,-3.8109,-3.8129,-3.8109,-3.8173,-3.8193,-3.8535,-3.8958,-3.9106,-3.9317,-3.9612,-3.9989,-4.0052,-3.9905,-4.024,-4.0654,-4.1083,-4.092,-4.129,-4.1919,-4.1759,-4.198,-4.248,-4.254,-4.2661,-4.2855,-4.3345,-4.4172,-4.5187,-4.4728,-4.4815,-4.5638,-4.4652,-4.3895,-4.3232,-4.1911,-4.0804,-4.0645,-4.0394,-4.0601,-4.1561,-4.2569,-4.301,-4.2985,-4.4218,-4.459,-4.4132,-4.5604,-4.6103,-4.5139,-4.5037,-4.5012,-4.4936,-4.4076,-4.3544,-4.3443,-4.3366,-4.329,-4.3239,-4.3187,-4.3366,-4.3675,-4.4602,-4.5014,-4.4372,-4.611,-4.7442,-4.7831,-4.8094,-4.8084,-4.776,-4.8176,-4.8844,-4.9605,-4.8257,-4.7916,-4.8656,-4.9028,-4.8891,-4.9338,-5.0325,-5.1246,-5.2078,-5.2836,-5.3334,-5.365,-5.4107,-5.4521,-5.4807,-5.5574,-5.6049,-5.6366,-5.7008,-5.7814,-5.804,-5.8252,-5.8421,-5.8756,-5.9217,-5.9739,-6.0068,-6.046,-6.1057,-6.1603,-6.1927,-6.2311,-6.2822,-6.3254,-6.3543,-6.3731,-6.3921,-6.4254,-6.4609,-6.479,-6.5074,-3.8831,-3.8768,-3.8768,-3.8768,-3.8831,-3.9127,-3.9338,-3.9527,-3.9779,-3.9967,-4.0114,-4.0177,-4.0756,-4.172,-4.2193,-4.246,-4.2558,-4.252,-4.2642,-4.28,-4.2763,-4.2322,-4.1745,-4.1722,-4.2015,-4.2598,-4.3233,-4.4,-4.4752,-4.4508,-4.4446,-4.4576,-4.3784,-4.3268,-4.2956,-4.2018,-4.1804,-4.2363,-4.1561,-4.1744,-4.2862,-4.3479,-4.4022,-4.4443,-4.4086,-4.4327,-4.5123,-4.4064,-4.3904,-4.5016,-4.4384,-4.3949,-4.3974,-4.372,-4.3161,-4.2323,-4.1762,-4.1427,-4.1451,-4.155,-4.1932,-4.278,-4.3369,-4.3937,-4.4664,-4.5524,-4.6759,-4.7943,-4.7658,-4.7354,-4.75,-4.8414,-4.9149,-4.9452,-4.9419,-4.92,-4.9557,-5.0129,-5.0374,-5.0585,-5.1374,-5.237,-5.2971,-5.3591,-5.4136,-5.4252,-5.4748,-5.5218,-5.5498,-5.6049,-5.6636,-5.6978,-5.7404,-5.7868,-5.821,-5.8474,-5.888,-5.929,-5.9779,-6.0217,-6.0569,-6.1094,-6.1745,-6.2101,-6.2482,-6.289,-6.332,-6.3514,-6.3768,-6.3921,-6.4198,-6.4521,-6.5142,-6.5362,-6.566,-3.9943,-4.009,-3.9943,-4.0006,-4.0233,-4.0424,-4.0467,-4.0508,-4.1004,-4.1066,-4.0858,-4.0864,-4.1122,-4.1571,-4.1909,-4.2282,-4.2537,-4.2479,-4.271,-4.3103,-4.3546,-4.3161,-4.2326,-4.2647,-4.2816,-4.2842,-4.3235,-4.3807,-4.4327,-4.4455,-4.4535,-4.461,-4.3639,-4.3308,-4.3544,-4.2482,-4.2384,-4.3315,-4.2411,-4.2812,-4.4376,-4.4179,-4.4287,-4.5016,-4.4245,-4.4096,-4.4664,-4.4015,-4.363,-4.3962,-4.3552,-4.3245,-4.3141,-4.2706,-4.2093,-4.1429,-4.0959,-4.077,-4.0866,-4.0958,-4.1339,-4.2109,-4.285,-4.3508,-4.4267,-4.5125,-4.5789,-4.6395,-4.6662,-4.692,-4.7306,-4.7972,-4.8899,-4.9679,-4.9225,-4.9267,-5.0321,-5.0955,-5.1031,-5.0901,-5.2139,-5.3192,-5.3269,-5.3994,-5.4635,-5.5014,-5.559,-5.6079,-5.6231,-5.6711,-5.7185,-5.7448,-5.7782,-5.8082,-5.8379,-5.8775,-5.9266,-5.9772,-6.0366,-6.0941,-6.1315,-6.1852,-6.2344,-6.2551,-6.2989,-6.3385,-6.3705,-6.3863,-6.4049,-6.4076,-6.4314,-6.5115,-6.586,-6.4112,-6.2764,-4.1391,-4.1636,-4.1352,-4.1552,-4.198,-4.182,-4.172,-4.1781,-4.2368,-4.2238,-4.1607,-4.1769,-4.1369,-4.0517,-4.0596,-4.0914,-4.1306,-4.1325,-4.1756,-4.2602,-4.374,-4.3877,-4.3283,-4.4251,-4.4279,-4.3363,-4.3498,-4.3732,-4.3887,-4.4353,-4.4708,-4.4825,-4.3924,-4.3754,-4.4315,-4.3226,-4.2812,-4.3378,-4.2949,-4.377,-4.5955,-4.4551,-4.4144,-4.5035,-4.443,-4.3936,-4.3685,-4.453,-4.4307,-4.287,-4.2912,-4.2784,-4.2433,-4.1506,-4.0936,-4.0888,-4.0862,-4.098,-4.1265,-4.136,-4.1549,-4.1816,-4.2997,-4.3679,-4.3496,-4.481,-4.5108,-4.4421,-4.5678,-4.6743,-4.6934,-4.7163,-4.812,-4.9809,-4.8647,-4.8385,-5.0715,-5.1343,-5.1198,-5.0555,-5.2809,-5.381,-5.3634,-5.4293,-5.5155,-5.5759,-5.6518,-5.6964,-5.7008,-5.736,-5.777,-5.7954,-5.8168,-5.8432,-5.8848,-5.9435,-5.9911,-6.0172,-6.1086,-6.1745,-6.2135,-6.2585,-6.3058,-6.3122,-6.3514,-6.3768,-6.3952,-6.4193,-6.4392,-6.4002,-6.4438,-6.5441,-6.519,-6.2199,-5.8984,-4.274,-4.28,-4.2679,-4.274,-4.286,-4.286,-4.2823,-4.2823,-4.2921,-4.246,-4.1733,-4.2188,-4.2242,-4.1923,-4.0848,-3.9995,-3.9517,-3.9188,-3.9545,-4.0478,-4.1583,-4.2271,-4.2628,-4.2833,-4.2859,-4.2678,-4.318,-4.3406,-4.3406,-4.395,-4.384,-4.3127,-4.3133,-4.3395,-4.3807,-4.3667,-4.418,-4.5286,-4.4897,-4.5012,-4.5731,-4.5242,-4.4925,-4.4917,-4.4383,-4.4283,-4.4647,-4.3821,-4.349,-4.3721,-4.2944,-4.2296,-4.1896,-4.1586,-4.1313,-4.1196,-4.1123,-4.1313,-4.1784,-4.2363,-4.2758,-4.2804,-4.3541,-4.4093,-4.4198,-4.4791,-4.5102,-4.5286,-4.5644,-4.5989,-4.6305,-4.7,-4.7869,-4.8482,-4.8484,-4.92,-5.0868,-5.1695,-5.2342,-5.3293,-5.4473,-5.5423,-5.5593,-5.5653,-5.5897,-5.6501,-5.7216,-5.7522,-5.7566,-5.7857,-5.8295,-5.8724,-5.8889,-5.9176,-5.9911,-6.0229,-6.0574,-6.1308,-6.1888,-6.231,-6.2687,-6.2923,-6.3222,-6.3578,-6.3859,-6.4067,-6.4344,-6.469,-6.4305,-6.3241,-6.3457,-6.3729,-6.3121,-6.1331,-6.0414,-4.3939,-4.3939,-4.3844,-4.3499,-4.3049,-4.3317,-4.3054,-4.2462,-4.2236,-4.158,-4.073,-4.1879,-4.2064,-4.1586,-4.1181,-4.0745,-4.033,-4.0497,-4.0902,-4.1407,-4.2464,-4.2921,-4.2811,-4.3041,-4.2869,-4.2395,-4.2758,-4.3146,-4.3544,-4.3666,-4.3678,-4.359,-4.3732,-4.4021,-4.4302,-4.4358,-4.4844,-4.5821,-4.5184,-4.4968,-4.5203,-4.4968,-4.4802,-4.4648,-4.48,-4.492,-4.5014,-4.4086,-4.3669,-4.3873,-4.3248,-4.2666,-4.2177,-4.2158,-4.2158,-4.2084,-4.2084,-4.227,-4.2749,-4.3294,-4.3698,-4.3977,-4.4142,-4.4624,-4.5428,-4.5725,-4.6019,-4.6476,-4.6476,-4.6559,-4.6764,-4.7344,-4.8127,-4.8817,-4.9118,-4.9982,-5.138,-5.2122,-5.2478,-5.2788,-5.385,-5.469,-5.5024,-5.533,-5.5897,-5.7123,-5.7554,-5.7814,-5.7954,-5.865,-5.9355,-5.9714,-5.9872,-6.0146,-6.0607,-6.0912,-6.1315,-6.1709,-6.231,-6.2823,-6.299,-6.3321,-6.3578,-6.389,-6.4128,-6.4153,-6.3608,-6.4054,-6.3697,-6.2582,-6.2269,-6.1332,-6.0148,-5.9791,-5.9398,-4.4693,-4.457,-4.4363,-4.3665,-4.2727,-4.3149,-4.2487,-4.1194,-4.1172,-4.0553,-3.9601,-4.1278,-4.1421,-4.0593,-4.1245,-4.1506,-4.1466,-4.2234,-4.2656,-4.2845,-4.3925,-4.4035,-4.3404,-4.39,-4.3733,-4.2831,-4.2776,-4.3272,-4.4125,-4.3706,-4.3889,-4.4724,-4.4719,-4.4841,-4.5286,-4.5143,-4.5343,-4.5923,-4.5173,-4.4856,-4.5094,-4.4896,-4.4649,-4.4541,-4.5378,-4.5569,-4.4985,-4.4842,-4.4396,-4.3475,-4.3403,-4.31,-4.2403,-4.2467,-4.2731,-4.3075,-4.3239,-4.3419,-4.3598,-4.3862,-4.4239,-4.47,-4.4799,-4.5313,-4.6375,-4.6837,-4.7178,-4.728,-4.747,-4.7709,-4.7828,-4.7788,-4.8272,-4.9443,-4.9706,-5.0406,-5.1802,-5.2132,-5.2062,-5.1617,-5.2469,-5.3357,-5.3626,-5.4341,-5.5577,-5.7093,-5.7525,-5.783,-5.8482,-5.9513,-6.023,-6.0584,-6.0833,-6.0983,-6.1349,-6.1783,-6.2031,-6.1994,-6.2687,-6.3119,-6.2841,-6.3095,-6.327,-6.3501,-6.3512,-6.3412,-6.2638,-6.2878,-6.2534,-6.1143,-6.0314,-5.9433,-5.788,-5.7611,-5.7696,-4.3896,-4.2993,-4.2938,-4.2217,-4.118,-4.1177,-4.0457,-3.945,-4.1102,0.0,0.0,-4.0876,-4.1065,-4.0997,-3.9895,-3.9215,-3.8777,-3.8742,-3.9237,-4.0188,-4.1451,-4.2835,-4.423,-4.441,-4.4543,-4.474,-4.4537,-4.4678,-4.5051,-4.4766,-4.4722,-4.492,-4.507,-4.5257,-4.5442,-4.5612,-4.6257,-4.7189,-4.688,-4.683,-4.71,-4.683,-4.6283,-4.5286,-4.6162,-4.6138,-4.5104,-4.5835,-4.518,-4.2888,-4.2742,-4.1986,-4.0514,-4.1071,-4.1885,-4.2787,-4.3756,-4.3912,-4.3139,-4.3334,-4.3667,-4.405,-4.5407,-4.609,-4.5732,-4.6816,-4.751,-4.7569,-4.7719,-4.7758,-4.7798,-4.7837,-4.7998,-4.8438,-4.8734,-4.9451,-5.0901,-5.1286,-5.1715,-5.2695,-5.2963,-5.3395,-5.3632,-5.3923,-5.4735,-5.6339,-5.6954,-5.7619,-5.8968,-5.9073,-5.9525,-6.0958,-6.1227,-6.1642,-6.2343,-6.2551,-6.2619,-6.2787,-6.3084,-6.3,-6.222,-6.2053,-6.177,-6.1215,-6.119,-6.146,-6.1404,-6.1734,-6.1129,-5.8494,-5.7873,-5.7696,-5.7315,-5.7553,-5.8071,-4.3946,-4.3386,-4.3386,-4.2858,0.0,-4.2067,-4.0592,-3.8246,-3.9195,-3.9854,-4.0269,-4.1051,-4.169,-4.2151,-4.1764,-4.1591,-4.1753,-4.1955,-4.2435,-4.3104,-4.3492,-4.4216,-4.5186,-4.4999,-4.5043,-4.5257,-4.5129,-4.5129,-4.5257,-4.5513,-4.5598,-4.5598,-4.6048,-4.5906,-4.5261,-4.6082,-4.7078,-4.8133,-4.7287,-4.6922,-4.6999,-4.6922,-4.6512,-4.5959,-4.6945,0.0,0.0,0.0,0.0,0.0,0.0,0.0,0.0,-4.0617,0.0,-4.062,-3.9978,-3.9745,-3.9996,-4.0135,-4.0799,-4.2138,-4.3254,-4.3627,-4.2979,-4.479,-4.5843,-4.5504,-4.6616,-4.764,-4.8399,-4.8491,-4.8568,-4.8714,-4.8828,-4.919,-4.9886,-5.0133,-5.0597,-5.1337,-5.1686,-5.2168,-5.3143,-5.3435,-5.4311,-5.5715,-5.6239,-5.68,-5.7616,-5.8099,-5.8698,-5.9976,-6.0754,-6.1735,-6.2816,-6.2542,-6.2164,-6.2839,-6.2167,-6.1209,-6.0621,-6.0755,-6.0858,-6.0626,-6.068,-6.0732,-6.0408,-6.0508,-6.0065,-5.8071,-5.7513,-5.757,-5.768,-5.8055,-5.847,-4.3939,-4.368,-4.3655,-4.323,-4.2624,-4.3365,-4.1844,-3.8856,-3.8689,-3.926,-4.048,-4.173,-4.2639,-4.3349,-4.3949,-4.4609,-4.5329,-4.5923,-4.634,-4.6618,-4.6228,-4.6074,-4.6074,-4.5809,-4.5712,-4.5796,-4.5754,-4.5754,-4.5767,-4.6299,-4.6517,-4.6588,-4.7078,-4.678,-4.5714,0.0,0.0,0.0,-4.742,-4.6994,-4.6957,-4.6994,-4.6859,-4.6557,-4.7716,0.0,-4.7643,-4.7519,-4.711,-4.6133,-4.4979,0.0,0.0,0.0,0.0,0.0,0.0,0.0,0.0,0.0,0.0,0.0,-3.9892,-4.0213,-4.0367,-4.2808,-4.4134,-4.3556,-4.5502,-4.7313,-4.8303,-4.8901,-4.9243,-4.9212,-4.9287,-4.9324,-4.9324,-4.951,-4.9694,-4.9944,-5.0304,-5.104,-5.2348,-5.2932,-5.3701,-5.504,-5.5518,-5.5736,-5.5748,-5.6947,-5.7917,-5.8327,-5.9718,-6.1209,-6.2506,-6.1644,-6.1271,-6.1992,-6.0681,-5.9613,-5.9391,-5.9575,-5.9921,-5.9787,-6.0197,-5.9907,-5.9182,-5.9139,-5.8942,-5.7899,-5.7734,-5.7856,-5.8183,-5.8513,-5.8768,-4.2842,-4.1901,-4.1922,-4.1312,-4.0658,-4.3254,-4.4086,-4.3595,-4.3359,-4.3205,-4.3085,-4.3249,-4.353,-4.3871,-4.423,-4.4755,-4.5329,-4.5767,-4.6115,-4.6459,-4.6652,-4.6845,-4.7078,-4.6997,-4.7159,-4.748,-4.736,-4.739,-4.749,-4.75,-4.751,-4.76,-4.7679,-4.7894,-4.813,-4.8667,-4.8329,-4.7266,-4.8292,-4.8814,-4.8851,-4.8851,-4.8329,-4.7411,-4.8416,-4.8534,-4.7525,-4.8186,-4.6945,-4.3557,-4.3093,-4.1859,-3.9368,-3.9631,-3.9389,0.0,-3.8997,0.0,0.0,0.0,0.0,0.0,0.0,0.0,0.0,-4.277,-4.4383,-4.3697,-4.5744,-4.6614,-4.5696,-4.7888,-4.933,-4.933,-4.9631,-4.9849,-4.9886,-5.0169,-5.0521,-5.0766,-5.1011,-5.1352,-5.1948,-5.2146,-5.2903,-5.4424,-5.4889,-5.4944,-5.485,-5.5861,-5.6732,-5.6819,-5.8244,-5.9608,-6.0176,-6.0002,-5.9748,-5.9794,-5.9747,-5.9762,-5.8622,-5.8586,-5.8379,-5.7506,-5.7529,-5.7545,-5.7318,-5.7614,-5.7788,-5.7753,-5.782,-5.8066,-5.8535,-5.8846,-5.9052,-4.2799,-4.2482,-4.262,-4.1853,-4.0676,-4.1903,-4.2448,-4.2309,-4.2155,-4.1788,-4.1376,-4.156,-4.1958,-4.2532,-4.293,-4.3489,-4.4217,-4.4474,-4.5133,-4.6142,-4.625,-4.6758,-4.753,-4.756,-4.7749,-4.8025,-4.7157,-4.6862,-4.7091,-4.7204,-4.728,-4.7304,-4.8206,-4.8249,-4.7387,-4.8188,-4.8732,-4.8862,-4.952,-4.9803,-4.9803,-4.9662,-4.9338,-4.8768,-4.9259,-4.9149,-4.8445,-4.887,-4.7888,-4.5297,-4.4501,-4.3195,-4.1047,-3.7956,-3.6624,0.0,0.0,0.0,0.0,0.0,0.0,0.0,0.0,0.0,0.0,0.0,-4.2074,-4.0932,-4.3967,-4.5341,-4.3845,-4.4832,-4.5915,-4.6778,-4.5565,-4.5948,-4.9089,-4.8972,-4.9399,-5.1156,-5.1686,-5.2046,-5.2303,-5.2652,-5.3165,-5.3991,-5.4365,-5.4544,-5.4516,-5.5055,-5.5587,-5.5683,-5.7179,-5.8428,-5.8653,-5.8699,-5.8383,-5.7533,-5.7659,-5.7856,-5.7337,-5.7403,-5.739,-5.6946,-5.6937,-5.7134,-5.7271,-5.7515,-5.768,-5.777,-5.8001,-5.8395,-5.8796,-5.9134,-5.9305,-4.313,-4.305,-4.2498,-4.1718,-4.0807,-4.0747,-4.0889,-4.1145,-4.0906,-4.0596,-4.0326,-4.0047,-4.0165,-4.0573,-4.029,-4.1006,-4.2416,-4.2639,-4.3802,-4.5582,-4.5613,-4.6192,-4.7098,-4.7129,-4.7205,-4.7334,-4.6287,-4.5907,-4.6084,-4.6409,-4.6427,-4.6148,-4.7195,-4.7054,-4.5719,-4.6846,-4.8385,-5.0186,-5.0466,-5.0591,-5.063,-5.0457,-5.0276,-5.0053,-5.0089,-4.998,-4.9584,-4.9353,-4.8499,-4.6937,-4.5065,-4.3243,-4.1612,-3.6201,0.0,0.0,0.0,0.0,0.0,0.0,0.0,0.0,0.0,-3.262,-3.0793,0.0,-3.7613,0.0,-4.1631,-4.3721,-4.2754,-4.2645,0.0,0.0,-4.2143,-4.2343,-4.6668,-4.7012,-4.7945,-5.0665,-5.1668,-5.2342,-5.2894,-5.3354,-5.3742,-5.4023,-5.4386,-5.472,-5.4853,-5.5037,-5.5114,-5.528,-5.6446,-5.7317,-5.7352,-5.7578,-5.7336,-5.6084,-5.6141,-5.6332,-5.6509,-5.666,-5.6871,-5.7018,-5.7193,-5.7365,-5.7552,-5.768,-5.7823,-5.8108,-5.8389,-5.8721,-5.9097,-5.9325,-5.9515,-4.3844,-4.2727,-3.9892,-3.9234,-4.0112,-4.0236,-4.1232,-4.2715,-4.2093,-4.2045,-4.2188,-4.0448,-3.9111,-3.808,-3.6118,0.0,-3.9798,-4.0299,-4.2074,-4.5015,-4.498,-4.5042,-4.5104,-4.5134,-4.5169,-4.52,-4.5045,-4.5015,-4.5018,-4.5288,-4.4901,-4.3814,-4.3323,-4.3343,-4.3777,-4.4795,-4.6809,-4.9782,-5.0769,-5.132,-5.1422,-5.1422,-5.1186,-5.0871,-5.108,-5.108,-5.0737,-4.9551,-4.81,-4.6493,-4.2504,-3.9479,-3.7637,0.0,0.0,0.0,0.0,0.0,0.0,0.0,0.0,0.0,0.0,0.0,0.0,0.0,0.0,0.0,-3.8976,0.0,-4.2808,-4.2929,0.0,0.0,0.0,-4.1407,-4.1944,-4.4261,-4.6592,-4.8588,0.0,0.0,-5.3561,-5.4001,-5.4428,-5.5157,-5.5319,-5.5484,-5.6001,-5.6013,-5.6013,-5.586,-5.6119,-5.6308,-5.6367,-5.6421,-5.6617,-5.6596,-5.6696,-5.6745,-5.6876,-5.6978,-5.7058,-5.7254,-5.7515,-5.7716,-5.7696,-5.7873,-5.8193,-5.8968,-5.8965,-5.8954,-5.9335,-5.9459,-5.9486,-4.0567,-3.8778,-3.6457,-3.542,-3.5333,-3.5121,-3.5863,-3.7175,-3.6564,-3.6296,-3.6196,-3.5343,-3.3897,-3.2098,-3.1237,0.0,0.0,0.0,-3.6213,-4.0149,-4.0896,-4.2769,-4.5385,-4.541,-4.5443,-4.5576,-4.466,-4.4251,-4.4318,-4.4447,-4.1434,-3.5714,0.0,0.0,-3.6861,-4.0723,-4.4262,-4.7248,-4.9626,-5.131,-5.2299,-5.2365,-5.2141,-5.1752,-5.185,-5.1293,-5.0051,-4.9562,-4.7348,-4.2892,-4.1151,-3.8728,0.0,0.0,0.0,0.0,0.0,0.0,0.0,0.0,0.0,0.0,0.0,-2.6295,-2.6288,0.0,0.0,0.0,-3.3369,-3.4802,-3.5922,-3.7797,0.0,0.0,0.0,0.0,0.0,0.0,0.0,-4.4791,-4.7321,-4.9497,-5.1161,-5.2737,-5.3799,-5.4187,-5.5057,-5.5399,-5.4768,0.0,-5.6197,-5.6216,-5.6297,-5.6435,-5.6438,-5.5542,-5.5308,-5.6628,-5.6948,-5.7034,-5.7157,-5.7271,-5.7366,-5.7535,-5.7804,-5.7992,-5.8078,-5.8509,-5.9028,-5.9363,-5.9325,-5.9278,-5.9449,-5.9484,-5.9498,-3.6653,0.0,0.0,0.0,0.0,-3.1114,-3.1409,-3.211,-3.1658,-3.1275,-3.094,-3.0367,0.0,0.0,0.0,0.0,0.0,0.0,-3.2592,-3.6587,-3.9014,-4.1815,-4.4895,-4.4863,-4.4927,-4.5085,-4.4,-4.3105,-4.2392,-4.1256,-3.6773,-2.9178,0.0,0.0,0.0,0.0,-4.1581,-4.5015,-4.9036,-5.1587,-5.2728,-5.308,-5.3133,-5.2949,-5.2452,-5.1476,-4.999,-4.8454,-4.544,-4.0874,-3.8759,0.0,0.0,0.0,0.0,0.0,0.0,0.0,0.0,0.0,0.0,0.0,0.0,0.0,0.0,0.0,0.0,0.0,0.0,0.0,-3.1077,-3.3559,-3.4926,0.0,0.0,0.0,0.0,0.0,0.0,0.0,0.0,0.0,-4.7493,-4.9817,-5.1974,0.0,0.0,-5.5601,-5.4275,-5.5147,-5.5928,-5.5955,-5.5693,0.0,-5.6159,-5.4667,-5.3965,-5.5539,-5.5911,-5.5914,-5.553,-5.6277,-5.6823,-5.6462,-5.7393,-5.8092,-5.7956,-5.8008,-5.8369,-5.9289,-5.9515,-5.9495,-5.9481,-5.8974,-5.8784,0.0,0.0,0.0,0.0,0.0,0.0,0.0,0.0,-2.8666,-2.8442,0.0,-2.6634,0.0,0.0,0.0,0.0,-2.4126,-2.9095,0.0,0.0,-4.0483,-4.2896,-4.2661,-4.2774,-4.2863,-4.2892,-4.2733,-4.1324,-3.8631,-3.4884,0.0,0.0,0.0,0.0,0.0,0.0,-3.8904,-4.3424,-4.9189,-5.2304,-5.2605,-5.3606,-5.4324,-5.453,-5.2852,-5.1697,-5.1017,-4.5675,-4.2345,-4.1631,-3.4703,0.0,0.0,0.0,0.0,0.0,0.0,0.0,0.0,0.0,0.0,0.0,0.0,0.0,0.0,0.0,0.0,0.0,0.0,0.0,0.0,-3.1428,0.0,0.0,0.0,0.0,0.0,0.0,0.0,0.0,0.0,-4.3528,-4.2444,-4.5111,-4.8867,-5.3675,0.0,0.0,0.0,0.0,-5.5341,-5.5096,-5.3891,-5.3507,-5.4859,-5.382,-5.2878,-5.3007,0.0,0.0,-5.1253,-5.3452,-5.4996,-5.3702,-5.6054,-5.8003,-5.6821,-5.5309,-5.5388,-5.8245,-5.8847,-5.9389,-5.9289,-5.6607,-5.6839,0.0,0.0,0.0,0.0,0.0,0.0,0.0,0.0,0.0,-2.4462,0.0,-2.3341,0.0,0.0,0.0,0.0,0.0,0.0,0.0,0.0,-3.5213,-3.79,-3.8079,-3.9807,-3.9611,0.0,-3.7742,-3.5407,0.0,0.0,0.0,0.0,0.0,0.0,0.0,0.0,-3.748,-4.2234,-4.8536,-5.2797,-5.4787,-5.5258,-5.5526,-5.5438,-5.3712,-5.061,-4.5983,-4.305,-4.0287,0.0,0.0,0.0,0.0,0.0,0.0,0.0,0.0,0.0,0.0,0.0,0.0,0.0,0.0,0.0,0.0,0.0,0.0,0.0,0.0,0.0,0.0,0.0,-3.192,0.0,0.0,0.0,0.0,0.0,0.0,0.0,0.0,0.0,-3.8184,-4.2712,-4.6978,-4.9862,-5.2393,-5.4333,-5.5111,0.0,0.0,0.0,0.0,0.0,0.0,0.0,-5.0268,-5.1201,-4.9726,-4.8606,-4.9008,-5.1024,-5.2482,-5.2039,0.0,0.0,-4.9573,-4.8409,-4.7773,-4.6745,-5.0043,-5.0427,-4.1976,-4.478,-5.1061,0.0,0.0,0.0,0.0,0.0,0.0,0.0,0.0,0.0,-1.9548,-1.9712,0.0,0.0,0.0,0.0,0.0,0.0,0.0,0.0,0.0,0.0,0.0,-3.4953,-3.6639,0.0,0.0,0.0,0.0,0.0,0.0,0.0,0.0,0.0,0.0,0.0,0.0,-3.63,-4.1129,-4.8188,-5.3072,-5.5641,-5.6187,-5.6402,-5.6306,-5.4582,-5.0741,-4.4531,0.0,0.0,0.0,0.0,0.0,0.0,0.0,0.0,0.0,0.0,0.0,0.0,0.0,0.0,0.0,0.0,0.0,0.0,0.0,0.0,0.0,0.0,0.0,0.0,0.0,-2.9505,0.0,0.0,0.0,0.0,0.0,0.0,0.0,0.0,0.0,0.0,0.0,-4.4389,-4.7058,-5.0048,-5.2419,-5.3656,-5.2994,-5.2753,0.0,0.0,0.0,0.0,0.0,0.0,0.0,0.0,0.0,0.0,0.0,0.0,0.0,0.0,-4.8064,-4.4441,-4.1543,-3.9696,-3.9679,0.0,0.0,0.0,0.0,0.0,0.0,0.0,0.0,0.0,0.0,0.0,0.0,0.0,0.0,0.0,-1.5463,0.0,0.0,-1.6883,0.0,0.0,0.0,0.0,0.0,0.0,0.0,0.0,0.0,0.0,0.0,0.0,0.0,0.0,0.0,0.0,0.0,0.0,0.0,0.0,0.0,0.0,-3.5487,-4.0172,-4.8319,-5.328,-5.4932,-5.6268,-5.6966,-5.6817,-5.5254,-5.2037,-4.7025,0.0,0.0,0.0,0.0,0.0,0.0,0.0,0.0,0.0,0.0,0.0,0.0,0.0,0.0,0.0,0.0,0.0,0.0,0.0,0.0,0.0,0.0,0.0,0.0,0.0,0.0,-2.479,-2.8616,-3.0905,0.0,0.0,0.0,0.0,0.0,0.0,0.0,0.0,0.0,-4.5549,-4.8855,-5.0911,-5.1249,-5.1035,-5.1032,-5.1222,-4.9889,-4.9405,-5.0879,-4.9778,-4.7678,0.0,0.0,0.0,0.0,0.0,0.0,0.0,0.0,0.0,0.0,0.0,0.0,0.0,0.0,0.0,0.0,0.0,0.0,0.0,0.0,0.0,0.0,0.0,0.0,0.0,0.0,0.0,0.0,0.0,0.0,0.0,0.0,0.0,0.0,0.0,0.0,0.0,0.0,0.0,0.0,0.0,0.0,0.0,0.0,0.0,0.0,0.0,0.0,0.0,0.0,0.0,0.0,0.0,0.0,-3.7444,-4.235,-4.9543,-5.4645,-5.7351,-5.7744,-5.7268,-5.5928,-5.422,-5.0889,0.0,0.0,0.0,0.0,0.0,0.0,0.0,0.0,0.0,0.0,0.0,0.0,0.0,0.0,0.0,0.0,0.0,0.0,0.0,0.0,0.0,0.0,0.0,0.0,0.0,0.0,0.0,0.0,-3.2603,-3.3789,-3.1174,0.0,0.0,0.0,0.0,0.0,0.0,0.0,0.0,0.0,0.0,-4.9016,-5.2387,-5.1058,-5.012,-5.1252,-5.0221,-4.9492,-4.9942,-4.8568,-4.7063,-4.6009,0.0,0.0,0.0,0.0,0.0,0.0,0.0,0.0,0.0,0.0,0.0,0.0,0.0,0.0,0.0,0.0,0.0,0.0,0.0,0.0,0.0,0.0,0.0,0.0,0.0,0.0,0.0,0.0,0.0,0.0,0.0,0.0,0.0,0.0,0.0,0.0,0.0,0.0,0.0,0.0,0.0,0.0,0.0,0.0,0.0,0.0,0.0,0.0,0.0,0.0,0.0,0.0,0.0,-3.8548,-4.3453,-5.0282,-5.5383,-5.8508,-5.8577,-5.7637,-5.581,-5.4093,-5.0116,0.0,0.0,0.0,0.0,0.0,0.0,0.0,0.0,0.0,0.0,0.0,0.0,0.0,0.0,0.0,0.0,0.0,0.0,0.0,0.0,0.0,0.0,0.0,0.0,0.0,0.0,0.0,0.0,-3.0385,-3.1925,-3.0015,0.0,0.0,0.0,0.0,0.0,0.0,0.0,0.0,0.0,0.0,-4.6023,-4.9641,-4.9044,0.0,0.0,-4.9443,-4.8754,-4.9446,-4.8588,-4.694,-4.438,-4.3152,0.0,0.0,0.0,0.0,0.0,0.0,0.0,0.0,0.0,0.0,0.0,0.0,0.0,0.0,0.0,0.0,0.0,0.0,0.0,0.0,0.0,0.0,0.0,0.0,0.0,0.0,0.0,0.0,0.0,0.0,0.0,0.0,0.0,0.0,0.0,0.0,0.0,0.0,0.0,0.0,0.0,0.0,0.0,0.0,0.0,0.0,0.0,0.0,0.0,0.0,0.0,0.0,-3.8918,-4.381,-5.0582,-5.5666,-5.882,-5.8921,-5.8054,-5.6267,-5.4551,-4.9667,0.0,0.0,0.0,0.0,0.0,0.0,0.0,0.0,0.0,0.0,0.0,0.0,0.0,0.0,0.0,0.0,0.0,0.0,0.0,0.0,0.0,0.0,0.0,0.0,0.0,0.0,0.0,0.0,0.0,0.0,0.0,0.0,0.0,0.0,0.0,0.0,0.0,0.0,0.0,0.0,0.0,-4.2694,-4.4586,-4.5799,-4.7119,0.0,-4.773,-4.725,-4.8799,-4.9025,-4.6942,-4.0823,0.0,0.0,0.0,0.0,0.0,0.0,0.0,0.0,0.0,0.0,0.0,0.0,0.0,0.0,0.0,0.0,0.0,0.0,0.0,0.0,0.0,0.0,0.0,0.0,0.0,0.0,0.0,0.0,0.0,0.0,0.0,0.0,0.0,0.0,0.0,0.0,0.0,0.0,0.0,0.0,0.0,0.0,0.0,0.0,0.0,0.0,0.0,0.0,0.0,0.0,0.0,0.0,0.0,0.0,-4.4188,-5.0991,-5.6081,-5.9205,-5.9232,-5.7775,-5.4877,-5.4272,0.0,0.0,0.0,0.0,0.0,0.0,0.0,0.0,0.0,0.0,0.0,0.0,0.0,0.0,0.0,0.0,0.0,0.0,0.0,0.0,0.0,0.0,0.0,0.0,0.0,0.0,0.0,-2.0763,0.0,0.0,0.0,0.0,0.0,0.0,0.0,0.0,0.0,0.0,0.0,0.0,0.0,0.0,-4.3633,-4.7741,-4.65,-4.5303,0.0,0.0,-4.4981,-4.417,-4.4979,-4.4743,0.0,0.0,0.0,0.0,0.0,0.0,0.0,0.0,0.0,0.0,0.0,0.0,0.0,0.0,0.0,0.0,0.0,0.0,0.0,0.0,0.0,0.0,0.0,0.0,0.0,0.0,0.0,0.0,0.0,0.0,0.0,0.0,0.0,0.0,0.0,0.0,0.0,0.0,0.0,0.0,0.0,0.0,0.0,0.0,0.0,0.0,0.0,0.0,0.0,0.0,0.0,0.0,0.0,0.0,-3.9407,-4.4375,-4.9683,-5.4761,-5.9413,-5.9555,-5.7873,-5.458,-5.431,-4.948,0.0,0.0,0.0,0.0,0.0,0.0,0.0,0.0,0.0,0.0,0.0,0.0,0.0,0.0,0.0,0.0,0.0,0.0,0.0,0.0,0.0,0.0,0.0,0.0,0.0,0.0,0.0,0.0,0.0,0.0,0.0,0.0,0.0,0.0,0.0,0.0,0.0,0.0,0.0,0.0,0.0,0.0,-4.6167,-4.4838,0.0,0.0,0.0,-4.353,-4.3393,0.0,0.0,0.0,0.0,0.0,0.0,0.0,0.0,0.0,0.0,0.0,0.0,0.0,0.0,0.0,0.0,0.0,0.0,0.0,0.0,0.0,0.0,0.0,0.0,0.0,0.0,0.0,0.0,0.0,0.0,0.0,0.0,0.0,0.0,0.0,0.0,0.0,0.0,0.0,0.0,0.0,0.0,0.0,0.0,0.0,0.0,0.0,0.0,0.0,0.0,0.0,0.0,0.0,0.0,0.0,0.0,0.0,-4.4132,-4.8146,-5.3234,-5.9226,-5.9627,-5.8158,-5.4937,-5.4585,-4.9731,0.0,0.0,0.0,0.0,0.0,0.0,0.0,0.0,0.0,0.0,0.0,0.0,0.0,0.0,0.0,0.0,0.0,0.0,0.0,0.0,0.0,0.0,0.0,0.0,0.0,0.0,0.0,0.0,0.0,0.0,0.0,0.0,0.0,0.0,0.0,0.0,0.0,0.0,0.0,0.0,0.0,-4.3802,-4.2809,-4.225,-4.1784,0.0,0.0,-4.1933,-4.3773,-4.3771,0.0,0.0,0.0,0.0,0.0,0.0,0.0,0.0,0.0,0.0,0.0,0.0,0.0,0.0,0.0,0.0,0.0,0.0,0.0,0.0,0.0,0.0,0.0,0.0,0.0,0.0,0.0,0.0,0.0,0.0,0.0,0.0,0.0,0.0,0.0,0.0,0.0,0.0,0.0,0.0,0.0,0.0,0.0,0.0,0.0,0.0,0.0,0.0,0.0,0.0,0.0,0.0,0.0,0.0,0.0,0.0,-4.2769,-4.998,-5.5103,-5.777,-5.9183,-5.8225,-5.4932,-5.476,-4.9971,0.0,0.0,0.0,0.0,0.0,0.0,0.0,0.0,0.0,0.0,0.0,0.0,0.0,0.0,0.0,0.0,0.0,0.0,0.0,0.0,0.0,0.0,0.0,0.0,0.0,0.0,0.0,0.0,0.0,0.0,0.0,0.0,0.0,0.0,0.0,0.0,0.0,0.0,0.0,0.0,0.0,-4.1686,-4.4015,-4.2046,0.0,0.0,0.0,0.0,-3.8594,-3.7703,0.0,0.0,0.0,0.0,0.0,0.0,0.0,0.0,0.0,0.0,0.0,0.0,0.0,0.0,0.0,0.0,0.0,0.0,0.0,0.0,0.0,0.0,0.0,0.0,0.0,0.0,0.0,0.0,0.0,0.0,0.0,0.0,0.0,0.0,0.0,0.0,0.0,0.0,0.0,0.0,0.0,0.0,0.0,0.0,0.0,0.0,0.0,0.0,0.0,0.0,0.0,0.0,0.0,0.0,0.0,0.0,-4.449,-4.8938,-5.3619,-5.8464,-5.9439,-5.8282,-5.5076,-5.4879,-5.0052,0.0,0.0,0.0,0.0,0.0,0.0,0.0,0.0,0.0,0.0,0.0,0.0,0.0,0.0,0.0,0.0,0.0,0.0,0.0,0.0,0.0,0.0,0.0,0.0,0.0,0.0,0.0,0.0,0.0,0.0,0.0,0.0,0.0,0.0,0.0,0.0,0.0,0.0,0.0,0.0,-3.986,-4.0757,-4.3353,0.0,0.0,0.0,0.0,0.0,0.0,-3.6531,-3.5697,0.0,0.0,0.0,0.0,0.0,0.0,0.0,0.0,0.0,0.0,0.0,0.0,0.0,0.0,0.0,0.0,0.0,0.0,0.0,0.0,0.0,0.0,0.0,0.0,0.0,0.0,0.0,0.0,0.0,0.0,0.0,0.0,0.0,0.0,0.0,0.0,0.0,0.0,0.0,0.0,0.0,0.0,0.0,0.0,0.0,0.0,0.0,0.0,0.0,0.0,0.0,0.0,0.0,0.0,0.0,-4.627,-4.724,-5.1549,-5.9388,-5.9795,-5.8349,-5.5155,-5.4917,-5.0062,-4.0393,0.0,0.0,0.0,0.0,0.0,0.0,0.0,0.0,0.0,0.0,0.0,0.0,0.0,0.0,0.0,0.0,0.0,0.0,0.0,0.0,0.0,0.0,0.0,0.0,0.0,0.0,0.0,0.0,0.0,0.0,0.0,0.0,0.0,0.0,0.0,0.0,0.0,0.0,0.0,-3.8534,-3.959,0.0,0.0,0.0,0.0,0.0,0.0,0.0,0.0,-3.601,0.0,0.0,0.0,0.0,0.0,0.0,0.0,0.0,0.0,0.0,0.0,0.0,0.0,0.0,0.0,0.0,0.0,0.0,0.0,0.0,0.0,0.0,0.0,0.0,0.0,0.0,0.0,0.0,0.0,0.0,0.0,0.0,0.0,0.0,0.0,0.0,0.0,0.0,0.0,0.0,0.0,0.0,0.0,0.0,0.0,0.0,0.0,0.0,0.0,0.0,0.0,0.0,0.0,0.0,0.0,0.0,-4.7302,-5.2237,-5.7697,-5.9291,-5.846,-5.5125,-5.5012,-5.0184,-4.0275,0.0,0.0,0.0,0.0,0.0,0.0,0.0,0.0,0.0,0.0,0.0,0.0,0.0,0.0,0.0,0.0,0.0,0.0,0.0,0.0,0.0,0.0,0.0,0.0,0.0,0.0,0.0,0.0,0.0,0.0,0.0,0.0,0.0,0.0,0.0,0.0,0.0,0.0,-2.8987,-3.3068,0.0,0.0,0.0,0.0,0.0,0.0,0.0,0.0,-3.5343,0.0,0.0,0.0,0.0,0.0,0.0,0.0,0.0,0.0,0.0,0.0,0.0,0.0,0.0,0.0,0.0,0.0,0.0,0.0,0.0,0.0,0.0,0.0,0.0,0.0,0.0,0.0,0.0,0.0,0.0,0.0,0.0,0.0,0.0,0.0,0.0,0.0,0.0,0.0,0.0,0.0,0.0,0.0,0.0,0.0,0.0,0.0,0.0,0.0,0.0,0.0,0.0,0.0,0.0,0.0,0.0,0.0,0.0,-5.1514,-5.7346,-5.9152,-5.836,-5.5158,-5.3261,-4.8406,0.0,0.0,0.0,0.0,0.0,0.0,0.0,0.0,0.0,0.0,0.0,0.0,0.0,0.0,0.0,0.0,0.0,0.0,0.0,0.0,0.0,0.0,0.0,0.0,0.0,0.0,0.0,0.0,0.0,0.0,0.0,0.0,0.0,0.0,0.0,0.0,0.0,0.0,0.0,0.0,0.0,0.0,0.0,0.0,0.0,0.0,0.0,0.0,0.0,0.0,0.0,0.0,0.0,0.0,0.0,0.0,0.0,0.0,0.0,0.0,0.0,0.0,0.0,0.0,0.0,0.0,0.0,0.0,0.0,0.0,0.0,0.0,0.0,0.0,0.0,0.0,0.0,0.0,0.0,0.0,0.0,0.0,0.0,0.0,0.0,0.0,0.0,0.0,0.0,0.0,0.0,0.0,0.0,0.0,0.0,0.0,0.0,0.0,0.0,0.0,0.0,0.0,0.0,0.0,0.0,0.0,0.0,0.0,-5.0718,-5.7286,-5.9047,-5.8298,-5.5072,-5.1729,-4.6767,0.0,0.0,0.0,0.0,0.0,0.0,0.0,0.0,0.0,0.0,0.0,0.0,0.0,0.0,0.0,0.0,0.0,0.0,0.0,0.0,0.0,0.0,0.0,0.0,0.0,0.0,0.0,0.0,0.0,0.0,0.0,0.0,0.0,0.0,0.0,0.0,0.0,0.0,0.0,0.0,0.0,0.0,0.0,0.0,0.0,0.0,0.0,0.0,-3.9327,0.0,0.0,0.0,0.0,0.0,0.0,0.0,0.0,0.0,0.0,0.0,0.0,0.0,0.0,0.0,0.0,0.0,0.0,0.0,0.0,0.0,0.0,0.0,0.0,0.0,0.0,0.0,0.0,0.0,0.0,0.0,0.0,0.0,0.0,0.0,0.0,0.0,0.0,0.0,0.0,0.0,0.0,0.0,0.0,0.0,0.0,0.0,0.0,0.0,0.0,0.0,0.0,0.0,0.0,0.0,0.0,0.0,0.0,0.0,-5.0638,-5.717,-5.9028,-5.8321,-5.5074,-5.1743,-4.6755,0.0,0.0,0.0,0.0,0.0,0.0,0.0,0.0,0.0,0.0,0.0,0.0,0.0,0.0,0.0,0.0,0.0,0.0,0.0,0.0,0.0,0.0,0.0,0.0,0.0,0.0,0.0,0.0,0.0,0.0,0.0,0.0,0.0,0.0,0.0,0.0,0.0,0.0,0.0,0.0,0.0,0.0,0.0,0.0,0.0,0.0,0.0,0.0,0.0,0.0,0.0,0.0,0.0,0.0,0.0,0.0,0.0,0.0,0.0,0.0,0.0,0.0,0.0,0.0,0.0,0.0,0.0,0.0,0.0,0.0,0.0,0.0,0.0,0.0,0.0,0.0,0.0,0.0,0.0,0.0,0.0,0.0,0.0,0.0,0.0,0.0,0.0,0.0,0.0,0.0,0.0,0.0,0.0,0.0,0.0,0.0,0.0,0.0,0.0,0.0,0.0,0.0,0.0,0.0,0.0,0.0,0.0,0.0,-4.8282,-5.298,-5.7536,-5.782,-5.3534,-4.9273,-4.4745,0.0,0.0,0.0,0.0,0.0,0.0,0.0,0.0,0.0,0.0,0.0,0.0,0.0,0.0,0.0,0.0,0.0,0.0,0.0,0.0,0.0,0.0,0.0,0.0,0.0,0.0,0.0,0.0,0.0,0.0,0.0,0.0,0.0,0.0,0.0,0.0,0.0,0.0,0.0,0.0,0.0,0.0,0.0,0.0,0.0,0.0,0.0,0.0,0.0,0.0,0.0,0.0,0.0,0.0,0.0,0.0,0.0,0.0,0.0,0.0,0.0,0.0,0.0,0.0,0.0,0.0,0.0,0.0,0.0,0.0,0.0,0.0,0.0,0.0,0.0,0.0,0.0,0.0,0.0,0.0,0.0,0.0,0.0,0.0,0.0,0.0,0.0,0.0,0.0,0.0,0.0,0.0,0.0,0.0,0.0,0.0,0.0,0.0,0.0,0.0,0.0,0.0,0.0,0.0,0.0,0.0,0.0,0.0,0.0,-4.9384,-5.5353,-5.6361,-5.173,-4.6834,-4.2655,0.0,0.0,0.0,0.0,0.0,0.0,0.0,0.0,0.0,0.0,0.0,0.0,0.0,0.0,0.0,0.0,0.0,0.0,0.0,0.0,0.0,0.0,0.0,0.0,0.0,0.0,0.0,0.0,0.0,0.0,0.0,0.0,0.0,0.0,0.0,0.0,0.0,0.0,0.0,0.0,0.0,0.0,0.0,0.0,0.0,0.0,0.0,0.0,0.0,0.0,0.0,0.0,0.0,0.0,0.0,0.0,0.0,0.0,0.0,0.0,0.0,0.0,0.0,0.0,0.0,0.0,0.0,0.0,0.0,0.0,0.0,0.0,0.0,0.0,0.0,0.0,0.0,0.0,0.0,0.0,0.0,0.0,0.0,0.0,0.0,0.0,0.0,0.0,0.0,0.0,0.0,0.0,0.0,0.0,0.0,0.0,0.0,0.0,0.0,0.0,0.0,0.0,0.0,0.0,0.0,0.0,0.0,0.0,0.0,-4.7573,-5.2509,-5.3371,-4.9904,-4.5098,-4.093,0.0,0.0,0.0,0.0,0.0,0.0,0.0,0.0,0.0,0.0,0.0,0.0,0.0,0.0,0.0,0.0,0.0,0.0,0.0,0.0,0.0,0.0,0.0,0.0,0.0,0.0,0.0,0.0,0.0,0.0,0.0,0.0,0.0,0.0,0.0,0.0,0.0,0.0,0.0,0.0,0.0,0.0,0.0,0.0,0.0,0.0,0.0,0.0,0.0,0.0,0.0,0.0,0.0,0.0,0.0,0.0,0.0,0.0,0.0,0.0,0.0,0.0,0.0,0.0,0.0,0.0,0.0,0.0,0.0,0.0,0.0,0.0,0.0,0.0,0.0,0.0,0.0,0.0,0.0,0.0,0.0,0.0,0.0,0.0,0.0,0.0,0.0,0.0,0.0,0.0,0.0,0.0,0.0,0.0,0.0,0.0,0.0,0.0,0.0,0.0,0.0,0.0,0.0,0.0,0.0,0.0,0.0,0.0,0.0,-4.0042,-4.6462,-4.8934,-4.6638,-4.2856,-4.0188,-3.8831,0.0,0.0,0.0,0.0,0.0,0.0,0.0,0.0,0.0,0.0,0.0,0.0,0.0,0.0,0.0,0.0,0.0,0.0,0.0,0.0,0.0,0.0,0.0,0.0,0.0,0.0,0.0,0.0,0.0,0.0,0.0,0.0,0.0,0.0,0.0,0.0,0.0,0.0,0.0,0.0,0.0,0.0,0.0,0.0,0.0,0.0,0.0,0.0,0.0,0.0,0.0,0.0,0.0,0.0,0.0,0.0,0.0,0.0,0.0,0.0,0.0,0.0,0.0,0.0,0.0,0.0,0.0,0.0,0.0,0.0,0.0,0.0,0.0,0.0,0.0,0.0,0.0,0.0,0.0,0.0,0.0,0.0,0.0,0.0,0.0,0.0,0.0,0.0,0.0,0.0,0.0,0.0,0.0,0.0,0.0,0.0,0.0,0.0,0.0,0.0,0.0,0.0,0.0,0.0,0.0,0.0,0.0,0.0,-3.6635,-4.3022,-4.5645,-4.3919,-4.0813,-3.8404,0.0,0.0,0.0,0.0,0.0,0.0,0.0,0.0,0.0,0.0,0.0,0.0,0.0,0.0,0.0,0.0,0.0,0.0,0.0,0.0,0.0,0.0,0.0,0.0,0.0,0.0,0.0,0.0,0.0,0.0,0.0,0.0,0.0,0.0,0.0,0.0,0.0,0.0,0.0,0.0,0.0,0.0,0.0,0.0,0.0,0.0,0.0,0.0,0.0,0.0,0.0,0.0,0.0,0.0,0.0,0.0,0.0,0.0,0.0,0.0,0.0,0.0,0.0,0.0,0.0,0.0,0.0,0.0,0.0,0.0,0.0,0.0,0.0,0.0,0.0,0.0,0.0,0.0,0.0,0.0,0.0,0.0,0.0,0.0,0.0,0.0,0.0,0.0,0.0,0.0,0.0,0.0,0.0,0.0,0.0,0.0,0.0,0.0,0.0,0.0,0.0,0.0,0.0,0.0,0.0,0.0,0.0,0.0,-3.3285,-3.9452,-4.2866,-4.3797,-4.2221,-3.9224,-3.5279,0.0,0.0,0.0,0.0,0.0,0.0,0.0,0.0,0.0,0.0,0.0,0.0,0.0,0.0,0.0,0.0,0.0,0.0,0.0,0.0,0.0,0.0,0.0,0.0,0.0,0.0,0.0,0.0,0.0,0.0,0.0,0.0,0.0,0.0,0.0,0.0,0.0,0.0,0.0,0.0,0.0,0.0,0.0,0.0,0.0,0.0,0.0,0.0,0.0,0.0,0.0,0.0,0.0,0.0,0.0,0.0,0.0,0.0,0.0,0.0,0.0,0.0,0.0,0.0,0.0,0.0,0.0,0.0,0.0,0.0,0.0,0.0,0.0,0.0,0.0,0.0,0.0,0.0,0.0,0.0,0.0,0.0,0.0,0.0,0.0,0.0,0.0,0.0,0.0,0.0,0.0,0.0,0.0,0.0,0.0,0.0,0.0,0.0,0.0,0.0,0.0,0.0,0.0,0.0,0.0,0.0,0.0,0.0,0.0,-3.4852,0.0,-4.0038,0.0,-3.8501,-3.6687,0.0,0.0,0.0,0.0,0.0,0.0,0.0,0.0,0.0,0.0,0.0,0.0,0.0,0.0,0.0,0.0,0.0,0.0,0.0,0.0,0.0,0.0,0.0,0.0,0.0,0.0,0.0,0.0,0.0,0.0,0.0,0.0,0.0,0.0,0.0,0.0,0.0,0.0,0.0,0.0,0.0,0.0,0.0,0.0,0.0,0.0,0.0,0.0,0.0,0.0,0.0,0.0,0.0,0.0,0.0,0.0,0.0,0.0,0.0,0.0,0.0,0.0,0.0,0.0,0.0,0.0,0.0,0.0,0.0,0.0,0.0,0.0,0.0,0.0,0.0,0.0,0.0,0.0,0.0,0.0,0.0,0.0,0.0,0.0,0.0,0.0,0.0,0.0,0.0,0.0,0.0,0.0,0.0,0.0,0.0,0.0,0.0,0.0,0.0,0.0,0.0,0.0,0.0,0.0,0.0,0.0,0.0,0.0,0.0,-3.5003,-3.5998,-3.7532,-3.9632,-3.7046,-3.5641,0.0,0.0,0.0,0.0,0.0,0.0,0.0,0.0,0.0,0.0,0.0,0.0,0.0,0.0,0.0,0.0,0.0,0.0,0.0,0.0,0.0,0.0,0.0,0.0,0.0,0.0,0.0,0.0,0.0,0.0,0.0,0.0,0.0,0.0,0.0,0.0,0.0,0.0,0.0,0.0,0.0,0.0,0.0,0.0,0.0,0.0,0.0,0.0,0.0,0.0,0.0,0.0,0.0,0.0,0.0,0.0,0.0,0.0,0.0,0.0,0.0,0.0,0.0,0.0,0.0,0.0,0.0,0.0,0.0,0.0,0.0,0.0,0.0,0.0,0.0,0.0,0.0,0.0,0.0,0.0,0.0,0.0,0.0,0.0,0.0,0.0,0.0,0.0,0.0,0.0,0.0,0.0,0.0,0.0,0.0,0.0,0.0,0.0,0.0,0.0,0.0,0.0,0.0,0.0,0.0,0.0,0.0,0.0,0.0,0.0,-3.6414,-3.6407,-3.9373,-3.5025,-3.253,0.0,0.0,0.0,0.0,0.0,0.0,0.0,0.0,0.0,0.0,0.0,0.0,0.0,0.0,0.0,0.0,0.0,0.0,0.0,0.0,0.0,0.0,0.0,0.0,0.0,0.0,0.0,0.0,0.0,0.0,0.0,0.0,0.0,0.0,0.0,0.0,0.0,0.0,0.0,0.0,0.0,0.0,0.0,0.0,0.0,0.0,0.0,0.0,0.0,0.0,0.0,0.0,0.0,0.0,0.0,0.0,0.0,0.0,0.0,0.0,0.0,0.0,0.0,0.0,0.0,0.0,0.0,0.0,0.0,0.0,0.0,0.0,0.0,0.0,0.0,0.0,0.0,0.0,0.0,0.0,0.0,0.0,0.0,0.0,0.0,0.0,0.0,0.0,0.0,0.0,0.0,0.0,0.0,0.0,0.0,0.0,0.0,0.0,0.0,0.0,0.0,0.0,0.0,0.0,0.0,0.0,0.0,0.0,0.0,0.0,-3.3634,0.0,-3.6138,-3.4906,-3.3621,-3.2507,0.0,0.0,0.0,0.0,0.0,0.0,0.0,0.0,0.0,0.0,0.0,0.0,0.0,0.0,0.0,0.0,0.0,0.0,0.0,0.0,0.0,0.0,0.0,0.0,0.0,0.0,0.0,0.0,0.0,0.0,0.0,0.0,0.0,0.0,0.0,0.0,0.0,0.0,0.0,0.0,0.0,0.0,0.0,0.0,0.0,0.0,0.0,0.0,0.0,0.0,0.0,0.0,0.0,0.0,0.0,0.0,0.0,0.0,0.0,0.0,0.0,0.0,0.0,0.0,0.0,0.0,0.0,0.0,0.0,0.0,0.0,0.0,0.0,0.0,0.0,0.0,0.0,0.0,0.0,0.0,0.0,0.0,0.0,0.0,0.0,0.0,0.0,0.0,0.0,0.0,0.0,0.0,0.0,0.0,0.0,0.0,0.0,0.0,0.0,0.0,0.0,0.0,0.0,0.0,0.0,0.0,0.0,0.0,0.0,0.0,-3.2563,-3.4968,-3.4934,-3.4396,0.0,0.0,0.0,0.0,0.0,0.0,0.0,0.0,0.0,0.0,0.0,0.0,0.0,0.0,0.0,0.0,0.0,0.0,0.0,0.0,0.0,0.0,0.0,0.0,0.0,0.0,0.0,0.0,0.0,0.0,0.0,0.0,0.0,0.0,0.0,0.0,0.0,0.0,0.0,0.0,0.0,0.0,0.0,0.0,0.0,0.0,0.0,0.0,0.0,0.0,0.0,0.0,0.0,0.0,0.0,0.0,0.0,0.0,0.0,0.0,0.0,0.0,0.0,0.0,0.0,0.0,0.0,0.0,0.0,0.0,0.0,0.0,0.0,0.0,0.0,0.0,0.0,0.0,0.0,0.0,0.0,0.0,0.0,0.0,0.0,0.0,0.0,0.0,0.0,0.0,0.0,0.0,0.0,0.0,0.0,0.0,0.0,0.0,0.0,0.0,0.0,0.0,0.0,0.0,0.0,0.0,0.0,0.0,0.0,0.0,0.0,-3.1685,-3.4433,-3.5142,0.0,-3.4419,0.0,0.0,0.0,0.0,0.0,0.0,0.0,0.0,0.0,0.0,0.0,0.0,0.0,0.0,0.0,0.0,0.0,0.0,0.0,0.0,0.0,0.0,0.0,0.0,0.0,0.0,0.0,0.0,0.0,0.0,0.0,0.0,0.0,0.0,0.0,0.0,0.0,0.0,0.0,0.0,0.0,0.0,0.0,0.0,0.0,0.0,0.0,0.0,0.0,0.0,0.0,0.0,0.0,0.0,0.0,0.0,0.0,0.0,0.0,0.0,0.0,0.0,0.0,0.0,0.0,0.0,0.0,0.0,0.0,0.0,0.0,0.0,0.0,0.0,0.0,0.0,0.0,0.0,0.0,0.0,0.0,0.0,0.0,0.0,0.0,0.0,0.0,0.0,0.0,0.0,0.0,0.0,0.0,0.0,0.0,0.0,0.0,0.0,0.0,0.0,0.0,0.0,0.0,0.0,0.0,0.0,0.0,0.0,0.0,0.0,0.0,0.0,-3.6036,-3.6347,-3.1382,0.0,0.0,0.0,0.0,0.0,0.0,0.0,0.0,0.0,0.0,0.0,0.0,0.0,0.0,0.0,0.0,0.0,0.0,0.0,0.0,0.0,0.0,0.0,0.0,0.0,0.0,0.0,0.0,0.0,0.0,0.0,0.0,0.0,0.0,0.0,0.0,0.0,0.0,0.0,0.0,0.0,0.0,0.0,0.0,0.0,0.0,0.0,0.0,0.0,0.0,0.0,0.0,0.0,0.0,0.0,0.0,0.0,0.0,0.0,0.0,0.0,0.0,0.0,0.0,0.0,0.0,0.0,0.0,0.0,0.0,0.0,0.0,0.0,0.0,0.0,0.0,0.0,0.0,0.0,0.0,0.0,0.0,0.0,0.0,0.0,0.0,0.0,0.0,0.0,0.0,0.0,0.0,0.0,0.0,0.0,0.0,0.0,0.0,0.0,0.0,0.0,0.0,0.0,0.0,0.0,0.0,0.0,0.0,0.0,0.0,-3.3373,-3.0159,-3.5627,-3.5961,-3.0257,0.0,0.0,0.0,0.0,0.0,0.0,0.0,0.0,0.0,0.0,0.0,0.0,0.0,0.0,0.0,0.0,0.0,0.0,0.0,0.0,0.0,0.0,0.0,0.0,0.0,0.0,0.0,0.0,0.0,0.0,0.0,0.0,0.0,0.0,0.0,0.0,0.0,0.0,0.0,0.0,0.0,0.0,0.0,0.0,0.0,0.0,0.0,0.0,0.0,0.0,0.0,0.0,0.0,0.0,0.0,0.0,0.0,0.0,0.0,0.0,0.0,0.0,0.0,0.0,0.0,0.0,0.0,0.0,0.0,0.0,0.0,0.0,0.0,0.0,0.0,0.0,0.0,0.0,0.0,0.0,0.0,0.0,0.0,0.0,0.0,0.0,0.0,0.0,0.0,0.0,0.0,0.0,0.0,0.0,0.0,0.0,0.0,0.0,0.0,0.0,0.0,0.0,0.0,0.0,0.0,0.0,0.0,0.0,0.0,0.0,0.0,0.0,0.0,0.0,-3.0848,0.0,0.0,0.0,0.0,0.0,0.0,0.0,0.0,0.0,0.0,0.0,0.0,0.0,0.0,0.0,0.0,0.0,0.0,0.0,0.0,0.0,0.0,0.0,0.0,0.0,0.0,0.0,0.0,0.0,0.0,0.0,0.0,0.0,0.0,0.0,0.0,0.0,0.0,0.0,0.0,0.0,0.0,0.0,0.0,0.0,0.0,0.0,0.0,0.0,0.0,0.0,0.0,0.0,0.0,0.0,0.0,0.0,0.0,0.0,0.0,0.0,0.0,0.0,0.0,0.0,0.0,0.0,0.0,0.0,0.0,0.0,0.0,0.0,0.0,0.0,0.0,0.0,0.0,0.0,0.0,0.0,0.0,0.0,0.0,0.0,0.0,0.0,0.0,0.0,0.0,0.0,0.0,0.0,0.0,0.0,0.0,0.0,0.0,0.0,0.0,0.0,0.0,0.0,0.0,0.0,0.0,0.0,0.0,0.0,0.0,0.0,0.0,0.0,0.0,0.0,0.0,0.0,0.0,0.0,0.0,0.0,0.0,0.0,0.0,0.0,0.0,0.0,0.0,0.0,0.0,0.0,0.0,0.0,0.0,0.0,0.0,0.0,0.0,0.0,0.0,0.0,0.0,0.0,0.0,0.0,0.0,0.0,0.0,0.0,0.0,0.0,0.0,0.0,0.0,0.0,0.0,0.0,0.0,0.0,0.0,0.0,0.0,0.0,0.0,0.0,0.0,0.0,0.0,0.0,0.0,0.0,0.0,0.0,0.0,0.0,0.0,0.0,0.0,0.0,0.0,0.0,0.0,0.0,0.0,0.0,0.0,0.0,0.0,0.0,0.0,0.0,0.0,0.0,0.0,0.0,0.0,0.0,0.0,0.0,0.0,0.0,0.0,0.0,0.0,0.0,0.0,0.0,0.0,0.0,0.0,0.0,0.0,0.0,0.0,0.0,0.0,0.0,0.0,0.0,0.0,0.0,0.0,0.0,0.0,0.0,0.0,0.0,0.0,0.0,0.0,0.0,0.0,0.0,0.0,0.0,0.0,0.0,0.0,0.0,0.0,0.0,0.0,0.0,0.0,0.0,0.0,0.0,0.0,0.0,0.0,0.0,0.0,0.0,0.0,0.0,0.0,0.0,0.0,0.0,0.0,0.0,0.0,0.0,0.0,0.0,0.0,0.0,0.0,0.0,0.0,0.0,0.0,0.0,0.0,0.0,0.0,0.0,0.0,0.0,0.0,0.0,0.0,0.0,0.0,0.0,0.0,0.0,0.0,0.0,0.0,0.0,0.0,0.0,0.0,0.0,0.0,0.0,0.0,0.0,0.0,0.0,0.0,0.0,0.0,0.0,0.0,0.0,0.0,0.0,0.0,0.0,0.0,0.0,0.0,0.0,0.0,0.0,0.0,0.0,0.0,0.0,0.0,0.0,0.0,0.0,0.0,0.0,0.0,0.0,0.0,0.0,0.0,0.0,0.0,0.0,0.0,0.0,0.0,0.0,0.0,0.0,0.0,0.0,0.0,0.0,0.0,0.0,0.0,0.0,0.0,0.0,0.0,0.0,0.0,0.0,0.0,0.0,0.0,0.0,0.0,0.0,0.0,0.0,0.0,0.0,0.0,0.0,0.0,0.0,0.0,0.0,0.0,0.0,0.0,0.0,0.0,0.0,0.0,0.0,0.0,0.0,0.0,0.0,0.0,0.0,0.0,0.0,0.0,0.0,0.0,0.0,0.0,0.0,0.0,0.0,0.0,0.0,0.0,0.0,0.0,0.0,0.0,0.0,0.0,0.0,0.0,0.0,0.0,0.0,0.0,0.0,0.0,0.0,0.0,0.0,0.0,0.0,0.0,0.0,0.0,0.0,0.0,0.0,0.0,0.0,0.0,0.0,0.0,0.0,0.0,0.0,0.0,0.0,0.0,0.0,0.0,0.0,0.0,0.0,0.0,0.0,0.0,0.0,0.0,0.0,0.0,0.0,0.0,0.0,0.0,0.0,0.0,0.0,0.0,0.0,0.0,0.0,0.0,0.0,0.0,0.0,0.0,0.0,0.0,0.0,0.0,0.0,0.0,0.0,0.0,0.0,0.0,0.0,0.0,0.0,0.0,0.0,0.0,0.0,0.0,0.0,0.0,0.0,0.0,0.0,0.0,0.0,0.0,0.0,0.0,0.0,0.0,0.0,0.0,0.0,0.0,0.0,0.0,0.0,0.0,0.0,0.0,0.0,0.0,0.0,0.0,0.0,0.0,0.0,0.0,0.0,0.0,0.0,0.0,0.0,0.0,0.0,0.0,0.0,0.0,0.0,0.0,0.0,0.0,0.0,0.0,0.0,0.0,0.0,0.0,0.0,0.0,0.0,0.0,0.0,0.0,0.0,0.0,0.0,0.0,0.0,0.0,0.0,0.0,0.0,0.0,0.0,0.0,0.0,0.0,0.0,0.0,0.0,0.0,0.0,0.0,0.0,0.0,0.0,0.0,0.0,0.0,0.0,0.0,0.0,0.0,0.0,0.0,0.0,0.0,0.0,0.0,0.0,0.0,0.0,0.0,0.0,0.0,0.0,0.0,0.0,0.0,0.0,0.0,0.0,0.0,0.0,0.0,0.0,0.0,0.0,0.0,0.0,0.0,0.0,0.0,0.0,0.0,0.0,0.0,0.0,0.0,0.0,0.0,0.0,0.0,0.0,0.0,0.0,0.0,0.0,0.0,0.0,0.0,0.0,0.0,0.0,0.0,0.0,0.0,0.0,0.0,0.0,0.0,0.0,0.0,0.0,0.0,0.0,0.0,0.0,0.0,0.0,0.0,0.0,0.0,0.0,0.0,0.0,0.0,0.0,0.0,0.0,0.0,0.0,0.0,0.0,0.0,0.0,0.0,0.0,0.0,0.0,0.0,0.0,0.0,0.0,0.0,0.0,0.0,0.0,0.0,0.0,0.0,0.0,0.0,0.0,0.0,0.0,0.0,0.0,0.0,0.0,0.0,0.0,0.0,0.0,0.0,0.0,0.0,0.0,0.0,0.0,0.0,0.0,0.0,0.0,0.0,0.0,0.0,0.0,0.0,0.0,0.0,0.0,0.0,0.0,0.0,0.0,0.0,0.0,0.0,0.0,0.0,0.0,0.0,0.0,0.0,0.0,0.0,0.0,0.0,0.0,0.0,0.0,0.0,0.0,0.0,0.0,0.0,0.0,0.0,0.0,0.0,0.0,0.0,0.0,0.0,0.0,0.0,0.0,0.0,0.0,0.0,0.0,0.0,0.0,0.0,0.0,0.0,0.0,0.0,0.0,0.0,0.0,0.0,0.0,0.0,0.0,0.0,0.0,0.0,0.0,0.0,0.0,0.0,0.0,0.0,0.0,0.0,0.0,0.0,0.0,0.0,0.0,0.0,0.0,0.0,0.0,0.0,0.0,0.0,0.0,0.0,0.0,0.0,0.0,0.0,0.0,0.0,0.0,0.0,0.0,0.0,0.0,0.0,0.0,0.0,0.0,0.0,0.0,0.0,0.0,0.0,0.0,0.0,0.0,0.0,0.0,0.0,0.0,0.0,0.0,0.0,0.0,0.0,0.0,0.0,0.0,0.0,0.0,0.0,0.0,0.0,0.0,0.0,0.0,0.0,0.0,0.0,0.0,0.0,0.0,0.0,0.0,0.0,0.0,0.0,0.0,0.0,0.0,0.0,0.0,0.0,0.0,0.0,0.0,0.0,0.0,0.0,0.0,0.0,0.0,0.0,0.0,0.0,0.0,0.0,0.0,0.0,0.0,0.0,0.0,0.0,0.0,0.0,0.0,0.0,0.0,0.0,0.0,0.0,0.0,0.0,0.0,0.0,0.0,0.0,0.0,0.0,0.0,0.0,0.0,0.0,0.0,0.0,0.0,0.0,0.0,0.0,0.0,0.0,0.0,0.0,0.0,0.0,0.0,0.0,0.0,0.0,0.0,0.0,0.0,0.0,0.0,0.0,0.0,0.0,0.0,0.0,0.0,0.0,0.0,0.0,0.0,0.0,0.0,0.0,0.0,0.0,0.0,0.0,0.0,0.0,0.0,0.0,0.0,0.0,0.0,0.0,0.0,0.0,0.0,0.0,0.0,0.0,0.0,0.0,0.0,0.0,0.0,0.0,0.0,0.0,0.0,0.0,0.0,0.0,0.0,0.0,0.0,0.0,0.0,0.0,0.0,0.0,0.0,0.0,0.0,0.0,0.0,0.0,0.0,0.0,0.0,0.0,0.0,0.0,0.0,0.0,0.0,0.0,0.0,0.0,0.0,0.0,0.0,0.0,0.0,0.0,0.0,0.0,0.0,0.0,0.0,0.0,0.0,0.0,0.0,0.0,0.0,0.0,0.0,0.0,0.0,0.0,0.0,0.0]}],[{"header":{"parameterUnit":"kt","parameterCategory":2,"dx":1,"dy":1,"la1":29.587661999999998,"la2":31.0,"lo1":-88.76705300000003,"lo2":-86.6583820000003,"nx":115,"ny":88,"refTime":"2022-10-16T06:00:00:Z","depth":0,"parameterNumber":2,"parameterNumberName":"V-component_of_WINDS"},"data":[7.7437,7.7203,7.687,7.6527,7.6297,7.6166,7.6042,7.5988,7.64,7.6527,7.6389,7.6541,7.6615,7.6516,7.6465,7.6312,7.613,7.6033,7.6033,7.6069,7.7288,7.8017,7.8152,7.7722,7.7661,7.7097,7.639,7.6042,7.6277,7.6032,7.584,7.5984,7.5692,7.5578,7.5535,7.549,7.5645,7.5822,7.6479,7.6852,7.6236,7.568,7.4569,7.4822,7.5599,7.521,7.5072,7.5608,7.5053,7.429,7.3911,7.4439,7.4962,7.5275,7.5622,7.5966,7.6136,7.5536,7.5007,7.4654,7.4157,7.2657,7.2472,7.2187,7.2077,7.1864,7.1516,7.1314,7.1002,7.0489,6.9737,6.8915,6.8154,6.7308,6.6529,6.609,6.5745,6.5682,6.5687,6.6072,6.6812,6.7879,6.8917,6.9286,6.9231,6.9403,6.9879,6.9996,7.0297,7.07,7.101,7.0394,6.9715,6.7326,6.4873,6.421,6.3574,6.2648,6.1874,6.1348,6.0623,5.9592,5.9358,5.9824,5.9659,5.9578,5.9466,5.9572,5.9204,5.9142,5.921,5.9067,5.8476,5.803,5.7609,7.7538,7.7437,7.7067,7.6798,7.6541,7.6524,7.637,7.6193,7.6476,7.664,7.6713,7.6857,7.6904,7.6785,7.659,7.644,7.6287,7.6087,7.6006,7.6115,7.6457,7.6791,7.6976,7.6923,7.6814,7.6416,7.6042,7.5934,7.5824,7.5748,7.5664,7.5664,7.5607,7.555,7.5434,7.5288,7.511,7.5065,7.5053,7.5046,7.4845,7.4569,7.4402,7.4337,7.4448,7.4413,7.4377,7.445,7.4316,7.3836,7.36,7.3707,7.3741,7.3845,7.4122,7.4191,7.4397,7.3975,7.3378,7.3195,7.2734,7.2307,7.2084,7.1936,7.1932,7.1633,7.1201,7.0962,7.0726,7.0241,6.9428,6.8625,6.7912,6.7151,6.6432,6.5826,6.5527,6.5256,6.5084,6.4942,6.5843,6.688,6.7695,6.8402,6.8539,6.8589,6.8662,6.8692,6.8815,6.9247,6.9018,6.8318,6.7533,6.6069,6.3975,6.3126,6.2648,6.1832,6.1164,6.0229,5.9447,5.9213,5.8977,5.8828,5.871,5.888,5.8797,5.8682,5.8622,5.8587,5.8504,5.8384,5.7757,5.715,5.6633,7.7559,7.748,7.7149,7.6785,7.6552,7.6527,7.6411,7.6219,7.659,7.6881,7.6998,7.7126,7.7126,7.6941,7.6846,7.664,7.6271,7.6087,7.5952,7.5851,7.5932,7.5934,7.5961,7.6115,7.6033,7.6015,7.586,7.5776,7.5684,7.5607,7.5434,7.5412,7.5223,7.5098,7.4948,7.4923,7.4831,7.4734,7.4645,7.4562,7.444,7.4405,7.4304,7.4304,7.4272,7.4307,7.4239,7.407,7.3903,7.3701,7.3462,7.322,7.3114,7.3079,7.3079,7.3079,7.3078,7.2971,7.2751,7.2568,7.2422,7.2163,7.1974,7.1936,7.1898,7.155,7.1116,7.076,7.0522,6.9855,6.9025,6.8523,6.776,6.7056,6.6335,6.5826,6.5477,6.5175,6.487,6.4716,6.5146,6.6006,6.6252,6.6928,6.6646,6.6615,6.6985,6.6961,6.735,6.7746,6.6857,6.5996,6.5078,6.3694,6.2892,6.2406,6.1862,6.1306,6.0742,5.9941,5.9388,5.8977,5.871,5.865,5.8531,5.8412,5.8233,5.8145,5.8053,5.7933,5.7812,5.7603,5.6933,5.6255,5.5917,7.7495,7.7452,7.7113,7.6822,7.649,7.6627,7.6476,7.6219,7.6761,7.7081,7.7209,7.7239,7.7217,7.7034,7.6904,7.6664,7.6323,7.6077,7.5879,7.5712,7.5664,7.5748,7.5692,7.5768,7.5684,7.5664,7.5635,7.56,7.5492,7.5376,7.5229,7.511,7.4953,7.4826,7.4703,7.4645,7.4614,7.4582,7.4488,7.4431,7.4304,7.4272,7.4272,7.4272,7.4272,7.4272,7.4171,7.4002,7.3802,7.3634,7.3428,7.3254,7.3079,7.3079,7.3079,7.3079,7.3042,7.2827,7.2609,7.239,7.2204,7.205,7.1936,7.1902,7.1749,7.1433,7.1076,7.0712,7.0183,6.9384,6.8714,6.8251,6.7699,6.6961,6.6157,6.5844,6.5577,6.5175,6.4819,6.4767,6.4716,6.487,6.4849,6.4828,6.4489,6.4687,6.5243,6.5476,6.5833,6.5809,6.4903,6.4608,6.3407,6.282,6.2327,6.1858,6.1444,6.0912,6.0229,5.9825,5.936,5.8741,5.8085,5.8233,5.8233,5.7993,5.7812,5.7603,5.7421,5.73,5.7117,5.6749,5.6068,5.5694,5.538,7.7306,7.7195,7.7186,7.6941,7.6615,7.6846,7.6761,7.659,7.6964,7.7186,7.7186,7.7172,7.7209,7.7081,7.6964,7.67,7.6338,7.6077,7.5879,7.56,7.5578,7.555,7.5578,7.5635,7.5521,7.5463,7.5434,7.5369,7.5265,7.511,7.4978,7.4852,7.4734,7.461,7.4582,7.4491,7.4459,7.4427,7.4399,7.4369,7.4272,7.4272,7.4272,7.4272,7.4239,7.4239,7.4171,7.4004,7.3802,7.36,7.3428,7.3254,7.3114,7.3079,7.3079,7.3043,7.29,7.2684,7.2536,7.2316,7.2129,7.1974,7.1864,7.1787,7.1555,7.1275,7.0915,7.0515,7.0057,6.9374,6.8535,6.7944,6.7387,6.6674,6.614,6.5875,6.5527,6.5225,6.4921,6.4716,6.4747,6.4696,6.4644,6.4644,6.4541,6.4021,6.4098,6.3938,6.4005,6.3898,6.358,6.3604,6.2982,6.2628,6.2053,6.15,6.1025,6.0458,5.9825,5.9302,5.8772,5.8205,5.7543,5.7482,5.7482,5.736,5.73,5.6933,5.6687,5.6626,5.644,5.5944,5.5568,5.5317,5.4657,7.7284,7.7172,7.7186,7.7094,7.6967,7.7027,7.7003,7.6871,7.6967,7.7037,7.7061,7.7108,7.719,7.7131,7.7037,7.6737,7.6297,7.6087,7.5768,7.5492,7.5353,7.5412,7.5383,7.5383,7.5288,7.5229,7.5169,7.5199,7.5014,7.4887,7.476,7.4734,7.4582,7.4456,7.4427,7.4399,7.4302,7.4337,7.4304,7.4272,7.4272,7.4272,7.4272,7.4239,7.407,7.4002,7.3969,7.3668,7.3496,7.3393,7.3254,7.3149,7.3114,7.3079,7.3079,7.3043,7.2829,7.2611,7.2499,7.2245,7.1944,7.1749,7.1705,7.1516,7.1241,7.1042,7.0719,7.0308,6.9846,6.9331,6.8445,6.7621,6.7009,6.6384,6.609,6.5826,6.5527,6.5276,6.5023,6.4767,6.4696,6.4644,6.4593,6.4593,6.4438,6.3916,6.3546,6.341,6.3273,6.3113,6.306,6.3089,6.279,6.2411,6.1696,6.1081,6.0458,5.9854,5.9213,5.8595,5.8118,5.7603,5.7178,5.6994,5.681,5.681,5.6872,5.644,5.613,5.613,5.6068,5.5568,5.5127,5.453,5.3176,7.7268,7.7117,7.7154,7.7108,7.7134,7.7111,7.705,7.6992,7.6992,7.6992,7.6992,7.7087,7.7111,7.7111,7.7111,7.6699,7.6333,7.5979,7.5628,7.5412,7.5271,7.5241,7.5241,7.5271,7.5145,7.5079,7.5049,7.5079,7.4983,7.4857,7.4765,7.4645,7.4491,7.4366,7.4304,7.4272,7.4272,7.4272,7.4272,7.4272,7.4272,7.4171,7.4103,7.4072,7.3903,7.3837,7.3735,7.3531,7.3359,7.3289,7.3149,7.3079,7.3079,7.3079,7.3079,7.3043,7.2793,7.2575,7.2462,7.2242,7.194,7.1633,7.1511,7.1122,7.0841,7.0712,7.0597,7.0183,6.9685,6.9068,6.8297,6.7574,6.6961,6.6432,6.6041,6.5795,6.5527,6.5276,6.5023,6.4819,6.4716,6.4644,6.4438,6.4438,6.423,6.3758,6.3463,6.3327,6.322,6.3006,6.2898,6.2844,6.2574,6.2192,6.1529,6.0572,5.9912,5.9213,5.8504,5.7878,5.7455,5.7089,5.6783,5.6537,5.6502,5.644,5.6379,5.613,5.5881,5.5819,5.5694,5.519,5.4492,5.3136,5.1777,7.7074,7.7016,7.6992,7.7016,7.7016,7.7016,7.7016,7.6992,7.6992,7.6992,7.6992,7.7016,7.704,7.7016,7.7016,7.665,7.6113,7.6033,7.5656,7.5353,7.5241,7.5241,7.5241,7.5241,7.5145,7.5079,7.5049,7.5049,7.5145,7.4953,7.4765,7.4645,7.4395,7.4337,7.4272,7.4272,7.4272,7.4272,7.4239,7.4239,7.4138,7.4002,7.3936,7.3836,7.377,7.3669,7.3566,7.3428,7.3289,7.322,7.3114,7.3114,7.3079,7.3079,7.3079,7.2972,7.2719,7.2572,7.239,7.2091,7.1787,7.1399,7.1348,7.1036,7.0712,7.0341,7.0183,6.9813,6.9254,6.867,6.8114,6.7434,6.6818,6.6432,6.601,6.5745,6.5496,6.5225,6.4972,6.4819,6.4716,6.4593,6.4386,6.4178,6.4021,6.3599,6.3273,6.322,6.3083,6.2898,6.2682,6.2574,6.2082,6.1807,6.1081,6.0056,5.933,5.8622,5.7905,5.715,5.6879,5.651,5.6352,5.6193,5.613,5.6068,5.6006,5.5881,5.5631,5.5443,5.5317,5.4657,5.3176,5.1752,5.0218,7.7087,7.6992,7.6992,7.6992,7.6992,7.6992,7.6992,7.6992,7.6992,7.6992,7.6992,7.6992,7.6992,7.6992,7.6968,7.6625,7.606,7.6006,7.5712,7.5265,7.5241,7.5241,7.5241,7.5241,7.5145,7.5014,7.4983,7.4983,7.4953,7.4887,7.4765,7.4578,7.4395,7.4304,7.4239,7.4239,7.4239,7.4239,7.4206,7.4138,7.4004,7.3903,7.3767,7.3701,7.3566,7.3428,7.3324,7.3254,7.3149,7.3149,7.3149,7.3079,7.3079,7.3043,7.3008,7.29,7.2648,7.2538,7.2279,7.1978,7.1516,7.1008,7.0881,7.0597,7.0266,6.9671,6.9534,6.9211,6.858,6.7898,6.734,6.7104,6.6626,6.6335,6.5992,6.5695,6.5427,6.5023,6.4767,6.4767,6.4696,6.4541,6.4386,6.4156,6.3946,6.3516,6.3167,6.3113,6.2976,6.2736,6.2465,6.1832,6.1276,6.0486,5.971,5.9185,5.8595,5.7965,5.7239,5.644,5.6166,5.6166,5.5979,5.5819,5.5819,5.5819,5.5694,5.5631,5.5505,5.5317,5.4264,5.2802,5.1861,5.0164,4.8374,7.7063,7.6992,7.6992,7.6992,7.6992,7.6992,7.6992,7.6992,7.6992,7.6992,7.6992,7.6992,7.6992,7.6907,7.6798,7.6487,7.6033,7.5952,7.5684,7.5235,7.5241,7.5241,7.5175,7.5145,7.4983,7.4887,7.4892,7.4862,7.4795,7.4765,7.4672,7.4582,7.4431,7.4269,7.4237,7.4138,7.4138,7.4103,7.4072,7.3971,7.3802,7.37,7.3599,7.3532,7.3324,7.3254,7.3254,7.3149,7.3114,7.3079,7.3113,7.3079,7.3079,7.2936,7.2865,7.2793,7.2503,7.2356,7.2129,7.1671,7.1241,7.0525,6.999,6.9434,6.952,6.8838,6.8432,6.8148,6.7898,6.7481,6.6866,6.6674,6.6432,6.614,6.5894,6.5596,6.5326,6.4921,6.4716,6.4716,6.4716,6.4593,6.4438,6.4312,6.3863,6.3463,6.3006,6.2898,6.279,6.252,6.2027,6.122,6.0315,5.9274,5.8416,5.809,5.7609,5.7028,5.6379,5.5944,5.5819,5.5756,5.5694,5.5694,5.5631,5.5568,5.5505,5.5416,5.529,5.3671,5.0895,4.902,4.9305,4.8606,4.6757,7.6992,7.6992,7.6992,7.6992,7.6968,7.6992,7.6992,7.6968,7.6968,7.6992,7.6992,7.6992,7.6992,7.6907,7.6638,7.6287,7.6006,7.5768,7.5492,7.5265,7.5241,7.5211,7.5145,7.5019,7.4857,7.4826,7.4765,7.4738,7.4641,7.461,7.4551,7.4495,7.4366,7.4266,7.4239,7.4004,7.3903,7.3869,7.3736,7.3529,7.3356,7.3113,7.2975,7.2767,7.2455,7.2628,7.2767,7.2836,7.2558,7.2558,7.2592,7.2557,7.2592,7.2414,7.2477,7.2542,7.2282,7.2057,7.1864,7.1241,7.0712,7.0108,6.8602,6.7826,6.814,6.7603,6.6583,6.7524,6.734,6.7056,6.6866,6.6577,6.6286,6.5992,6.5695,6.5446,6.5225,6.487,6.4767,6.4716,6.4716,6.4696,6.4541,6.4282,6.3833,6.3357,6.2898,6.2628,6.252,6.2137,6.1585,6.0713,5.9769,5.8567,5.7306,5.6974,5.6695,5.6104,5.5756,5.5756,5.5694,5.5631,5.5631,5.5568,5.5505,5.5353,5.5353,5.5149,5.3882,5.2444,4.8905,4.7282,4.7313,4.7014,4.5225,7.6846,7.6846,7.6944,7.6895,7.6686,7.6686,7.6772,7.6785,7.6822,7.6895,7.6992,7.6992,7.6992,7.6883,7.6552,7.6235,7.5979,7.5684,7.547,7.5294,7.5145,7.5115,7.5019,7.4857,7.4765,7.4703,7.4641,7.461,7.4614,7.4519,7.4389,7.4225,7.4201,7.4068,7.3936,7.3802,7.3702,7.3702,7.353,7.3251,7.2034,7.1862,7.1793,7.1552,7.058,7.0893,7.2072,7.1864,7.1517,7.1413,7.1378,7.1343,7.1203,7.1164,7.1396,7.1793,7.2016,7.1859,7.1393,7.0753,6.9931,6.9078,6.755,6.5953,6.5097,6.4974,6.5649,6.658,6.6674,6.6529,6.6481,6.6401,6.6157,6.5563,6.5347,6.5376,6.5124,6.487,6.4767,6.4747,6.4696,6.4644,6.4407,6.4047,6.3659,6.3243,6.2665,6.2247,6.2124,6.1751,6.1137,6.0257,5.939,5.7823,5.629,5.6352,5.6352,5.5756,5.5631,5.5694,5.5631,5.5631,5.5568,5.5443,5.5317,5.5227,5.4703,5.3986,5.2585,5.1018,4.9821,4.8193,4.7874,4.6241,4.4326,7.6697,7.6697,7.665,7.6661,7.6596,7.6458,7.6395,7.6447,7.637,7.637,7.6447,7.66,7.665,7.6513,7.6297,7.606,7.5815,7.5485,7.5163,7.5049,7.4989,7.4892,7.48,7.4707,7.4543,7.4452,7.4456,7.4491,7.4286,7.4231,7.4023,7.3329,7.2852,7.3172,7.3664,7.3702,7.3601,7.3498,7.3185,7.2836,7.1621,7.1309,7.0858,7.0512,6.9195,6.9679,7.0789,7.02,6.9923,6.975,6.9647,6.9647,6.9543,6.9263,6.9425,6.9893,7.0374,7.0386,7.0131,6.9316,6.8583,6.767,6.6201,6.3984,6.1222,6.2703,6.4381,6.577,6.6286,6.5974,6.5877,6.594,6.5888,6.5295,6.506,6.5152,6.5073,6.4819,6.4747,6.4696,6.4644,6.4489,6.4181,6.373,6.332,6.2987,6.2367,6.1788,6.1597,6.1362,6.0656,5.9855,5.9215,5.791,5.7028,5.644,5.5881,5.5756,5.5568,5.5505,5.5353,5.5353,5.5327,5.519,5.5038,5.4505,5.3764,5.2839,5.1193,4.898,4.8176,4.8232,4.7227,4.573,4.3729,7.6545,7.6483,7.6229,7.6291,7.6432,7.6123,7.5952,7.5988,7.574,7.5692,7.5768,7.5952,7.6087,7.597,7.5862,7.5732,7.5543,7.4953,7.4703,7.4605,7.4503,7.4366,7.4165,7.3898,7.3664,7.3611,7.3151,7.3124,7.3308,7.2646,7.2127,7.1365,7.1155,7.203,7.2347,7.2176,7.2142,7.1967,7.1825,7.1646,7.0956,7.0406,6.982,6.9578,6.8747,6.819,6.8433,6.8229,6.8058,6.8058,6.7957,6.7854,6.7715,6.7401,6.7422,6.7845,6.8357,6.8251,6.7903,6.7136,6.6665,6.6061,6.4623,6.236,5.9398,6.0854,6.3359,6.5783,6.5405,6.5216,6.531,6.5168,6.5097,6.4915,6.5023,6.5082,6.4921,6.4685,6.4511,6.4634,6.4541,6.4282,6.4004,6.2686,6.2094,6.2032,6.1451,6.1139,6.1003,6.0883,6.02,5.9623,5.9039,5.8476,5.7603,5.6994,5.6379,5.6068,5.5505,5.5254,5.5049,5.4959,5.4907,5.4613,5.3941,5.3515,5.2914,5.1062,4.9066,4.6957,4.6101,4.6661,4.6078,4.3808,4.1935,7.5768,7.5684,7.5628,7.5628,7.5692,7.56,7.5543,7.5543,7.5463,7.5428,7.5414,7.5406,7.5484,7.5512,7.5556,7.5449,7.5151,7.4826,7.4515,7.3866,7.3347,7.3244,7.2969,7.1676,7.1136,7.1546,7.1149,7.0384,7.0083,6.9743,6.9604,6.9324,6.9256,6.9401,6.9302,6.9474,6.9577,6.9402,6.9401,6.8851,6.7922,6.7337,6.7096,6.6545,6.5888,6.5715,6.7508,6.7027,6.6338,6.627,6.6135,6.593,6.5757,6.5475,6.5456,6.5892,6.5989,6.5739,6.4905,6.4822,6.4864,6.4439,6.3297,6.162,5.8988,5.9582,6.1991,6.5657,6.4681,6.4508,6.5042,6.4647,6.4326,6.4363,6.4613,6.4826,6.4757,6.4337,6.4051,6.4072,6.3907,6.3852,6.2928,6.1645,6.1151,6.1059,6.0834,6.0495,6.0441,6.0514,5.9913,5.9332,5.8891,5.8563,5.7757,5.7123,5.6783,5.6228,5.538,5.4885,5.4639,5.4498,5.4008,5.339,5.2774,5.2032,5.0802,4.8895,4.7009,4.5726,4.4845,4.5214,4.4129,4.1547,3.9614,7.4533,7.5317,7.5229,7.5163,7.5163,7.5014,7.4923,7.4795,7.4707,7.461,7.4539,7.4539,7.4694,7.4937,7.5181,7.5098,7.4821,7.4547,7.3975,7.3001,7.2245,7.173,7.1384,7.0126,6.9202,6.9638,6.9047,6.8043,6.6334,6.6063,6.661,6.7123,6.7162,6.7062,6.7954,6.7501,6.7221,6.7187,6.733,6.7093,6.6305,6.5621,6.521,6.5107,6.3809,6.415,6.5006,6.4629,6.4254,6.4321,6.4015,6.3806,6.3527,6.3344,6.3219,6.3732,6.3378,6.2582,6.1619,6.2439,6.2664,6.2526,6.2009,6.1075,5.9939,5.9909,6.1551,6.4335,6.292,6.2402,6.278,6.2905,6.2855,6.2787,6.2563,6.2659,6.2788,6.2965,6.3295,6.3286,6.3234,6.2565,6.1795,6.1121,6.094,6.0834,6.0641,6.0319,6.0194,6.0028,5.9507,5.898,5.8772,5.8622,5.791,5.7096,5.6633,5.5855,5.5001,5.4308,5.4127,5.3369,5.2562,5.1899,5.117,4.9947,4.8623,4.72,4.6023,4.4823,4.363,4.2649,4.1588,3.9276,3.8936,7.3144,7.5121,7.4892,7.4765,7.4734,7.4523,7.4264,7.4033,7.3871,7.3704,7.3701,7.3702,7.3868,7.4225,7.4543,7.461,7.4452,7.4128,7.3264,7.1905,7.1081,7.0214,6.9202,6.878,6.7733,6.7746,6.7675,6.5722,6.3879,6.3333,6.3911,6.4935,6.5108,6.5345,6.5954,6.5739,6.6127,6.5881,6.5998,6.6037,6.569,6.464,6.4059,6.3652,6.2984,6.2685,6.2821,6.2682,6.2408,6.2548,6.213,6.1742,6.1455,6.1275,6.102,6.0569,6.0062,5.9459,5.9611,6.0387,6.0902,6.0647,6.0389,6.0215,5.9706,5.9764,6.0324,6.1866,6.1446,6.109,6.1029,6.0861,6.0474,6.0644,6.1151,6.1144,6.103,6.1749,6.1675,6.164,6.0985,6.0548,6.0853,6.0761,6.068,6.0637,6.0522,6.0192,5.9914,5.951,5.9067,5.8626,5.8357,5.8416,5.7883,5.6974,5.6325,5.5416,5.4461,5.363,5.2823,5.1867,5.1069,5.0071,4.9233,4.816,4.7245,4.626,4.5019,4.3772,4.2499,4.0889,3.9296,3.8852,3.8406,7.2825,7.459,7.4523,7.4392,7.4225,7.4163,7.4002,7.3805,7.3669,7.3532,7.3393,7.3393,7.3531,7.3735,7.3871,7.3939,7.3837,7.3769,7.2586,7.1022,6.9708,6.8912,6.77,6.6325,6.5131,6.5553,6.4971,6.3265,6.2169,6.2135,6.2479,6.3059,6.3197,6.3194,6.318,6.3337,6.2722,6.2436,6.2255,6.2292,6.2399,6.2165,6.1888,6.1755,6.1625,6.1531,6.1639,6.1494,6.1567,6.1639,6.1673,6.16,6.1275,6.1053,6.0492,5.9714,5.9379,5.9176,5.9109,5.9401,5.9351,5.9129,5.8854,5.8737,5.8672,5.9008,5.9488,6.1142,6.0397,5.9046,6.0145,6.0071,5.9854,6.0039,6.0391,6.0648,6.0259,6.0053,5.9982,5.961,5.8674,5.8817,5.9692,5.9846,6.0206,6.0153,5.9997,5.9743,5.9339,5.8952,5.8626,5.821,5.803,5.815,5.7218,5.6113,5.5881,5.4922,5.3874,5.2558,5.144,5.0254,4.9207,4.8153,4.7378,4.6777,4.6095,4.5234,4.4271,4.3078,4.1436,4.0071,3.8958,3.8321,3.7981,7.2564,7.4299,7.4234,7.4035,7.3869,7.3734,7.3565,7.3428,7.3428,7.3324,7.3219,7.3184,7.3289,7.3359,7.3394,7.3532,7.3356,7.3005,7.1543,6.9877,6.8184,6.7112,6.5864,6.4373,6.3772,6.3402,6.2714,6.1919,6.1636,6.1636,6.185,6.2029,6.1957,6.1814,6.1561,6.1378,6.1186,6.1041,6.0932,6.0932,6.0852,6.0965,6.0819,6.0748,6.0715,6.0791,6.0899,6.0899,6.0862,6.1012,6.0974,6.0786,6.052,6.0178,5.9786,5.9144,5.893,5.888,5.8682,5.8631,5.8463,5.8252,5.8242,5.8168,5.8157,5.8208,5.8701,5.9343,5.8109,5.7925,5.9171,5.8341,5.8265,5.8712,5.8588,5.8387,5.8355,5.8214,5.8372,5.8477,5.8218,5.8456,5.904,5.944,5.9692,5.9626,5.9456,5.9105,5.8748,5.8448,5.821,5.785,5.7642,5.6974,5.5301,5.5254,5.5395,5.4297,5.3121,5.1418,4.9994,4.8332,4.7175,4.6418,4.5768,4.5117,4.4566,4.4152,4.3438,4.2619,4.088,3.9317,3.8428,3.7788,3.7531,7.2403,7.4141,7.3938,7.3735,7.3601,7.3393,7.3254,7.3079,7.3149,7.3079,7.3079,7.3079,7.3079,7.3114,7.3079,7.3254,7.3219,7.2522,7.0916,6.8933,6.7728,6.5735,6.4534,6.3356,6.2857,6.2275,6.1636,6.1268,6.1238,6.1345,6.1418,6.1564,6.1415,6.1305,6.1157,6.0895,6.0673,6.0482,6.0449,6.0372,6.0211,6.0211,6.0211,6.0016,6.0022,6.0172,6.0283,6.0133,6.0133,6.0405,6.0238,5.993,5.962,5.9347,5.9135,5.8807,5.8682,5.8557,5.8463,5.8337,5.8252,5.8157,5.8157,5.8157,5.8082,5.8103,5.81,5.7934,5.7459,5.692,5.692,5.6898,5.661,5.6534,5.6658,5.6521,5.643,5.6336,5.6462,5.7475,5.807,5.8418,5.8966,5.9479,5.934,5.8998,5.8726,5.8361,5.7757,5.7427,5.7367,5.7218,5.7096,5.5426,5.3927,5.4709,5.4602,5.3338,5.1887,5.0171,4.8659,4.6777,4.5406,4.4845,4.4285,4.3796,4.3342,4.28,4.2254,4.1659,4.0174,3.8577,3.7981,3.7531,3.7123,7.2206,7.3737,7.3703,7.3566,7.3359,7.3289,7.315,7.3044,7.3079,7.2974,7.3079,7.3079,7.3008,7.3079,7.3043,7.3113,7.308,7.2559,7.0961,6.8773,6.7875,6.6016,6.3766,6.2822,6.2275,6.1567,6.0974,6.0781,6.0748,6.0786,6.097,6.1231,6.1194,6.1082,6.112,6.0937,6.0563,6.0244,6.0022,5.9858,5.9779,5.962,5.9548,5.9427,5.9508,5.958,5.962,5.97,5.9739,5.9819,6.0009,5.958,5.9095,5.8807,5.8756,5.8682,5.8474,5.8348,5.8295,5.821,5.8157,5.8157,5.8114,5.8114,5.8028,5.7794,5.7696,5.7435,5.7128,5.6683,5.6607,5.6427,5.6261,5.6216,5.6185,5.6155,5.5942,5.5432,5.579,5.6689,5.7462,5.833,5.8977,5.9364,5.8829,5.832,5.7947,5.7421,5.6626,5.613,5.6166,5.6166,5.5802,5.4567,5.4069,5.4452,5.3362,5.2053,5.0648,4.9121,4.7768,4.599,4.4555,4.376,4.3018,4.2754,4.233,4.1497,4.0858,4.0504,3.9463,3.8237,3.766,3.7188,3.7123,7.2138,7.36,7.3463,7.3289,7.3149,7.2937,7.2379,7.1789,7.2376,7.2414,7.2,7.2516,7.2793,7.2865,7.2793,7.2757,7.2791,7.2722,7.1168,6.8781,6.7463,6.5814,6.343,6.2344,6.1528,6.0829,6.0482,6.036,6.036,6.036,6.047,6.0591,6.0591,6.07,6.0591,6.0514,6.0256,5.9977,5.9739,5.958,5.95,5.9306,5.9266,5.9266,5.9266,5.9257,5.9176,5.933,5.9257,5.9249,5.929,5.9086,5.8599,5.8515,5.8432,5.8421,5.8252,5.821,5.821,5.8125,5.8071,5.7943,5.7911,5.7857,5.7653,5.7448,5.7317,5.7216,5.6906,5.6458,5.6277,5.6095,5.6095,5.6003,5.5835,5.5727,5.5618,5.5103,5.5309,5.7006,5.7226,5.8116,5.881,5.9116,5.87,5.7763,5.7384,5.694,5.6077,5.5739,5.5578,5.538,5.4885,5.4478,5.4145,5.3543,5.2535,5.123,4.9785,4.8246,4.6471,4.493,4.3653,4.2693,4.172,4.1536,4.1083,3.9987,3.919,3.9148,3.881,3.7896,3.7273,3.7188,3.7123,7.1933,7.3324,7.2419,7.214,7.2416,7.2128,7.1122,6.9885,7.1365,7.1162,7.044,7.1057,7.147,7.1544,7.1368,7.1535,7.1331,7.1193,7.0471,6.8059,6.6744,6.4861,6.2891,6.1783,6.0937,6.0366,6.0127,6.0088,6.0088,6.0127,6.0088,6.0127,6.0205,6.0088,6.0088,6.0088,5.9858,5.97,5.962,5.9492,5.9298,5.9217,5.9176,5.9103,5.9103,5.9095,5.9045,5.9045,5.888,5.8673,5.8599,5.8547,5.8337,5.8295,5.8252,5.8168,5.8114,5.8028,5.8028,5.7943,5.7825,5.7684,5.7641,5.7597,5.7304,5.7216,5.7053,5.692,5.6697,5.6413,5.6079,5.5972,5.588,5.5711,5.5479,5.5291,5.5197,5.4753,5.5361,5.6919,5.7572,5.8152,5.9511,5.8739,5.8111,5.7346,5.6764,5.6376,5.5971,5.5571,5.5463,5.5353,5.4848,5.4274,5.3927,5.3567,5.2421,5.1016,4.9118,4.7356,4.5003,4.3211,4.2307,4.1452,4.061,4.0112,3.9861,3.8895,3.8385,3.8152,3.7939,3.751,3.7208,3.7188,3.7123,7.1196,7.2368,6.9679,6.93,7.0368,7.0401,6.9574,6.8645,6.9745,6.9608,6.8577,6.8473,6.892,6.8542,6.8988,6.8645,6.8645,6.892,6.837,6.7612,6.6101,6.3942,6.1737,6.1127,6.0634,6.0055,6.0088,6.0009,5.993,5.997,6.0048,5.993,5.997,6.0048,5.9891,5.9772,5.97,5.958,5.9419,5.9217,5.9095,5.9054,5.8972,5.8848,5.8848,5.8807,5.8807,5.8724,5.8589,5.8168,5.8168,5.8168,5.8157,5.8157,5.8114,5.7997,5.7857,5.777,5.777,5.7597,5.7423,5.7423,5.7379,5.7379,5.7247,5.7084,5.6964,5.692,5.6728,5.6398,5.6018,5.5757,5.5572,5.5291,5.5197,5.4961,5.4628,5.4292,5.4626,5.6004,5.64,5.672,5.7274,5.7352,5.71,5.6054,5.5932,5.5616,5.5289,5.5064,5.5023,5.4948,5.453,5.4004,5.3771,5.3472,5.2179,5.0892,4.893,4.6608,4.4263,4.214,4.115,4.0277,3.9589,3.9106,3.8747,3.8428,3.8065,3.7788,3.7639,3.7382,3.7059,3.6929,3.6494,6.8508,6.9781,6.8403,6.8161,6.8641,6.8639,6.7746,6.6821,6.7848,6.7816,6.6959,6.7336,6.7747,6.7783,6.7713,6.7712,6.7711,6.7746,6.7573,6.7193,6.565,6.3373,6.1159,6.0172,5.9858,5.9459,5.9338,5.933,5.933,5.9257,5.9257,5.9298,5.9257,5.9257,5.9257,5.9135,5.9095,5.9095,5.9013,5.893,5.8848,5.8848,5.8797,5.8724,5.8756,5.8756,5.8682,5.8557,5.821,5.7825,5.7911,5.7954,5.7696,5.7782,5.7782,5.7684,5.7554,5.751,5.7466,5.7423,5.7291,5.7172,5.7128,5.7008,5.6875,5.6817,5.6742,5.6742,5.6487,5.6277,5.6018,5.5757,5.5402,5.4979,5.4551,5.4166,5.3806,5.3383,5.3662,5.4326,5.4708,5.4855,5.5224,5.5803,5.5452,5.488,5.4812,5.4812,5.4548,5.4535,5.4376,5.4338,5.4017,5.3656,5.3382,5.3085,5.201,5.0947,4.9063,4.648,4.389,4.1195,4.0078,3.9085,3.8535,3.8152,3.796,3.7724,3.7487,3.7358,3.7273,3.7059,3.6735,3.654,3.5841,6.6342,6.7646,6.6716,6.6545,6.6956,6.6637,6.575,6.4834,6.5988,6.5819,6.5039,6.5684,6.5887,6.6131,6.6025,6.6092,6.5852,6.585,6.5881,6.5391,6.4194,6.2165,6.0257,5.9379,5.9095,5.8972,5.8848,5.8756,5.8756,5.8797,5.8797,5.8756,5.8641,5.8526,5.8474,5.8474,5.8432,5.8515,5.8557,5.8599,5.8631,5.8599,5.8515,5.8358,5.8263,5.8263,5.8274,5.8051,5.7547,5.7008,5.736,5.7391,5.6964,5.7172,5.7141,5.692,5.6831,5.6817,5.6786,5.6817,5.6728,5.6548,5.6577,5.6622,5.6306,5.6473,5.6593,5.6518,5.6306,5.611,5.5896,5.5618,5.5244,5.4742,5.4069,5.3404,5.2886,5.2462,5.2388,5.2893,5.3024,5.3341,5.3697,5.4108,5.3949,5.3401,5.3503,5.3845,5.36,5.3479,5.3645,5.3581,5.3387,5.3165,5.2724,5.2378,5.1696,5.0457,4.8109,4.5242,4.2785,4.0423,3.9212,3.8109,3.7917,3.7703,3.7466,3.7079,3.6949,3.6775,3.669,3.6475,3.6214,3.5625,3.4853,6.5677,6.6984,6.4045,6.3808,6.5037,6.45,6.3863,6.3299,6.3857,6.3616,6.2818,6.2779,6.2607,6.2507,6.3053,6.2984,6.2405,6.2673,6.2559,6.1844,6.104,6.0251,5.9419,5.9095,5.8921,5.8724,5.8714,5.8673,5.8557,5.8557,5.8682,5.8474,5.803,5.7945,5.7786,5.7731,5.7657,5.7786,5.8104,5.8189,5.8252,5.8221,5.7977,5.746,5.7198,5.7198,5.7254,5.6902,5.6381,5.6019,5.6231,5.6231,5.6019,5.614,5.62,5.5973,5.5652,5.5636,5.5544,5.5789,5.5681,5.5495,5.5805,5.6079,5.5774,5.6034,5.6292,5.6352,5.617,5.5973,5.5588,5.5385,5.4914,5.4436,5.3581,5.2729,5.1789,5.1583,5.1465,5.1324,5.1533,5.1968,5.2406,5.2392,5.1845,5.129,5.1608,5.2077,5.2131,5.2315,5.2737,5.2752,5.2494,5.1928,5.0786,5.0419,4.9622,4.7985,4.5558,4.3321,4.1179,3.985,3.8662,3.7981,3.7531,3.7337,3.7079,3.6605,3.6279,3.5841,3.5579,3.571,3.5249,3.4437,3.3503,6.3279,6.3758,6.257,6.2437,6.2946,6.2763,6.2463,6.2268,6.2314,6.2141,6.1812,6.1603,6.1531,6.1531,6.1636,6.1603,6.1531,6.1352,6.0829,5.9983,5.9467,5.9103,5.8724,5.8599,5.8505,5.8379,5.8337,5.821,5.7849,5.7806,5.7633,5.7198,5.6947,5.6708,5.6574,5.6485,5.644,5.6543,5.6632,5.6783,5.6902,5.6783,5.6694,5.6591,5.6366,5.6321,5.6291,5.562,5.5388,5.5698,5.562,5.5542,5.5465,5.5574,5.559,5.5435,5.5325,5.5185,5.5091,5.5168,5.512,5.4777,5.5061,5.5248,5.5235,5.5048,5.5328,5.5467,5.5405,5.5138,5.4789,5.4789,5.4281,5.3028,5.2427,5.1891,5.1377,5.0857,5.0439,5.0175,5.0015,5.0012,5.0247,5.035,5.0543,5.035,5.0648,5.1078,5.1001,5.0834,5.0499,5.044,5.0662,5.0097,4.8999,4.8191,4.7469,4.5286,4.3089,4.1417,4.0213,3.9148,3.8344,3.766,3.6904,3.671,3.6018,3.5625,3.5032,3.4503,3.3989,3.3637,3.3033,3.2494,3.1799,6.1491,6.16,6.1525,6.1525,6.1634,6.1345,6.1382,6.1491,6.1053,6.0908,6.0908,6.0791,6.0715,6.0786,6.0829,6.0791,6.0715,6.0223,5.9667,5.9004,5.8807,5.8547,5.821,5.8125,5.8082,5.7868,5.7739,5.7404,5.6991,5.6902,5.6636,5.614,5.5942,5.5593,5.5017,5.488,5.4684,5.4428,5.4412,5.4502,5.4742,5.4956,5.5108,5.5199,5.5379,5.4995,5.437,5.4046,5.4252,5.4812,5.4617,5.4484,5.4503,5.4635,5.4635,5.4503,5.4455,5.4359,5.4262,5.4407,5.4329,5.4059,5.4252,5.4396,5.4097,5.4163,5.4469,5.4688,5.4528,5.4204,5.3865,5.3962,5.3247,5.1742,5.1353,5.1041,5.0727,5.0093,4.9611,4.9314,4.8961,4.8715,4.879,4.8851,4.9201,4.9113,4.9197,4.959,4.9607,4.9167,4.8597,4.8461,4.8111,4.7936,4.7042,4.6257,4.4747,4.2408,4.0984,3.9616,3.9127,3.8407,3.7852,3.7164,3.6449,3.5729,3.4919,3.4189,3.3387,3.2782,3.2444,3.163,3.0673,3.0123,2.9677,6.0895,6.1161,6.0857,6.0862,6.1053,6.0482,6.0443,6.0645,6.0062,5.9833,5.999,5.9786,5.9739,5.9779,5.9872,5.9793,5.954,5.8848,5.8432,5.8295,5.821,5.7986,5.777,5.7739,5.7641,5.7379,5.6845,5.6501,5.617,5.5882,5.5714,5.5652,5.5188,5.4297,5.3268,5.292,5.237,5.1773,5.1621,5.1616,5.1846,5.3011,5.3389,5.3071,5.4034,5.3615,5.1474,5.2325,5.2971,5.3057,5.3007,5.2936,5.3107,5.3169,5.3177,5.2992,5.2892,5.2821,5.2814,5.2946,5.2929,5.2856,5.3513,5.3357,5.28,5.3366,5.4019,5.3971,5.368,5.3288,5.3,5.2571,5.1863,5.0912,5.0491,5.028,4.996,4.9423,4.8934,4.8715,4.8441,4.833,4.8441,4.8292,4.7923,4.7615,4.7372,4.7408,4.7848,4.7345,4.7087,4.7226,4.6614,4.5638,4.4988,4.4152,4.1865,4.0062,3.9297,3.8704,3.8364,3.7852,3.7293,3.6644,3.5861,3.49,3.4104,3.2629,3.1834,3.1426,3.0947,3.0398,2.964,2.9016,2.818,6.036,6.0437,6.0321,6.036,6.0366,6.0009,5.9898,5.9977,5.95,5.9298,5.9266,5.9135,5.9013,5.9013,5.9062,5.8733,5.8082,5.7825,5.7653,5.7653,5.7641,5.7522,5.7466,5.7466,5.7216,5.6845,5.6636,5.6064,5.5188,5.4877,5.448,5.4019,5.3054,5.2249,5.167,5.0838,5.0285,4.9953,4.9882,5.0018,5.0345,5.1245,5.1444,5.0936,5.1605,5.2158,5.2284,5.1776,5.1919,5.2743,5.2858,5.2858,5.2772,5.2132,5.1644,5.151,5.0821,5.0286,5.0162,5.0334,5.0659,5.104,5.1449,5.1878,5.2095,5.2247,5.2499,5.2628,5.2399,5.2044,5.1663,5.0937,5.036,5.0014,4.9611,4.9369,4.9315,4.8908,4.8689,4.8498,4.8278,4.822,4.8246,4.7634,4.721,4.6958,4.6503,4.6202,4.6203,4.569,4.5123,4.4371,4.4092,4.3354,4.2199,4.1561,3.9849,3.9276,3.8704,3.8301,3.7917,3.7273,3.6644,3.5972,3.5164,3.4152,3.2863,3.1323,3.064,3.0313,2.9916,2.9502,2.8808,2.8111,2.748,5.958,5.958,5.954,5.958,5.9572,5.9411,5.9217,5.9022,5.8807,5.8641,5.8589,5.8337,5.8263,5.8337,5.8252,5.7825,5.7128,5.7172,5.7039,5.6756,5.6875,5.6817,5.6652,5.6652,5.6397,5.6079,5.5836,5.5188,5.4193,5.3386,5.3058,5.2868,5.179,5.0726,4.9971,4.8979,4.8091,4.76,4.7617,4.7965,4.8607,4.9627,4.9495,4.8336,4.9742,5.0825,5.1167,5.1309,5.148,5.1872,5.19,5.19,5.1786,5.0654,4.997,4.9913,4.9201,4.8727,4.8633,4.8802,4.9078,4.9451,4.9903,5.0468,5.0679,5.1135,5.1485,5.1588,5.1381,5.066,5.0078,4.9258,4.8913,4.9047,4.8351,4.7659,4.8029,4.8107,4.7945,4.7889,4.8147,4.8054,4.7634,4.6927,4.6357,4.6102,4.5558,4.5118,4.4791,4.3975,4.3222,4.2428,4.182,4.0982,3.9486,3.9148,3.8831,3.8619,3.8045,3.7595,3.6994,3.6279,3.5362,3.4569,3.3819,3.2796,3.202,3.0536,2.9815,2.9486,2.907,2.8669,2.8025,2.741,2.6791,5.8641,5.8682,5.8714,5.8682,5.8641,5.8673,5.8358,5.803,5.7977,5.788,5.777,5.751,5.7466,5.7522,5.7335,5.6995,5.6546,5.6711,5.6442,5.5882,5.6049,5.5836,5.5361,5.5314,5.5222,5.4975,5.4492,5.3824,5.3024,5.1567,5.1441,5.2385,5.1028,4.9723,4.8331,4.7372,4.6222,4.5042,4.4961,4.5489,4.677,4.7905,4.7663,4.64,4.8361,4.9305,4.8799,5.0538,5.1315,5.0242,5.0129,5.0101,5.0016,4.8951,4.8255,4.8142,4.8058,4.7973,4.7917,4.7964,4.8058,4.8188,4.8781,4.9125,4.8529,4.9664,5.0653,5.1069,5.035,4.9252,4.7864,4.7446,4.7686,4.8429,4.6601,4.597,4.668,4.673,4.6599,4.6514,4.7237,4.7475,4.6788,4.593,4.5351,4.4918,4.4306,4.3856,4.3498,4.2451,4.1759,4.1329,4.057,3.9549,3.9148,3.8831,3.8577,3.8065,3.7273,3.6429,3.5737,3.4994,3.4019,3.3101,3.2409,3.1664,3.081,3.0002,2.9294,2.8792,2.846,2.7605,2.6762,2.6424,2.5715,5.8115,5.8158,5.8158,5.8158,5.8115,5.8008,5.7911,5.7782,5.7609,5.7479,5.7423,5.7379,5.6875,5.6125,5.5865,5.5711,5.5588,5.5665,5.5572,5.5402,5.5479,5.4907,5.3914,5.3884,5.3656,5.3194,5.2679,5.209,5.1143,4.9431,4.8718,4.8753,4.7574,4.6603,4.6064,4.4862,4.4438,4.4641,4.3988,4.4182,4.5266,4.5518,4.5786,4.6224,4.6356,4.7224,4.8921,4.8193,4.8441,4.9995,4.9185,4.881,4.8838,4.8556,4.7936,4.7004,4.5976,4.5408,4.5335,4.5244,4.5461,4.6279,4.6406,4.6706,4.7168,4.7555,4.8527,4.9864,4.818,4.6332,4.5471,4.5943,4.6437,4.6724,4.5983,4.5381,4.561,4.5037,4.4763,4.4754,4.5752,4.6231,4.5542,4.4869,4.433,4.4129,4.3451,4.2851,4.2489,4.1759,4.096,4.0548,4.0008,3.9401,3.8895,3.8428,3.7873,3.7228,3.6364,3.5559,3.4881,3.3952,3.2917,3.2156,3.1494,3.0758,2.9863,2.9448,2.8893,2.846,2.7831,2.6973,2.5333,2.4438,2.3736,5.7311,5.7254,5.7311,5.7267,5.7061,5.7066,5.7128,5.7053,5.6697,5.6652,5.6756,5.586,5.4819,5.3569,5.3401,5.3155,5.3,5.3046,5.286,5.2638,5.3061,5.2591,5.1459,5.1735,5.1596,5.0832,5.0398,4.9952,4.9338,4.8091,4.7342,4.701,4.5785,4.4945,4.4505,4.3419,4.3036,4.3504,4.3064,4.3094,4.3513,4.3226,4.3711,4.4918,4.4828,4.5663,4.7168,4.6789,4.6889,4.8081,4.7529,4.709,4.7287,4.6811,4.6239,4.551,4.4601,4.4105,4.4016,4.3826,4.4041,4.4568,4.4859,4.4858,4.4752,4.5719,4.6291,4.6598,4.4865,4.3373,4.3064,4.3574,4.4417,4.5026,4.4225,4.378,4.4422,4.41,4.3488,4.2996,4.4236,4.4931,4.401,4.3723,4.3653,4.3175,4.2368,4.1781,4.1514,4.092,4.0321,3.9946,3.9527,3.9085,3.864,3.7896,3.7123,3.6449,3.5381,3.4304,3.3552,3.2714,3.1766,3.1187,3.0467,2.9725,2.9032,2.8684,2.8266,2.8111,2.7465,2.5404,2.3403,2.2076,2.0848,5.6321,5.614,5.6397,5.6155,5.5836,5.6003,5.6125,5.6079,5.559,5.5546,5.5214,5.3462,5.1892,5.0823,5.0468,4.9965,4.9445,4.9577,4.9215,4.8686,4.9657,4.9485,4.8388,4.9253,4.9177,4.8265,4.7887,4.7725,4.7685,4.7148,4.6601,4.6014,4.5089,4.4138,4.3358,4.2571,4.2071,4.1707,4.1931,4.1901,4.156,4.1182,4.1618,4.283,4.3566,4.4225,4.4844,4.5612,4.5881,4.5572,4.522,4.5184,4.5305,4.4509,4.3899,4.3943,4.3915,4.3754,4.3485,4.3394,4.3214,4.3114,4.3659,4.33,4.1912,4.3938,4.4231,4.2154,4.1129,4.0902,4.0799,4.0998,4.1922,4.3394,4.201,4.1325,4.2744,4.3178,4.2581,4.1213,4.2955,4.3769,4.2472,4.2801,4.2995,4.2208,4.1251,4.0632,4.057,4.0071,3.9612,3.9275,3.8958,3.8492,3.7852,3.678,3.5998,3.571,3.4123,3.2917,3.2173,3.1374,3.05,3.0192,2.9448,2.8893,2.839,2.7746,2.7085,2.6838,2.5464,2.3335,2.1733,2.0135,1.8597,5.5448,5.5402,5.5495,5.5448,5.5355,5.5355,5.5432,5.5432,5.5308,5.374,5.1306,5.0389,4.9898,4.9521,4.8788,4.7769,4.6782,4.691,4.6609,4.5953,4.7105,4.7153,4.6419,4.654,4.6568,4.627,4.5802,4.564,4.564,4.5116,4.432,4.3316,4.2665,4.2181,4.1753,4.1348,4.1469,4.1953,4.0692,3.9823,3.9578,3.9676,3.9921,4.0443,4.1028,4.2023,4.3398,4.3157,4.349,4.4491,4.3605,4.3229,4.367,4.3441,4.344,4.3602,4.3619,4.344,4.2986,4.2363,4.2018,4.1971,4.1591,4.1117,4.05,4.0864,4.0521,3.9453,3.933,3.9278,3.92,3.9788,4.0524,4.0681,3.9967,3.993,4.0644,4.0207,3.9802,4.0433,4.1704,4.2336,4.1797,4.2033,4.2026,4.1145,4.0343,3.9905,3.9842,3.9486,3.8768,3.8045,3.7788,3.7337,3.5998,3.5389,3.4796,3.3722,3.2647,3.1834,3.1169,3.069,3.0071,2.931,2.8599,2.794,2.7395,2.6466,2.5492,2.4355,2.3568,2.2255,2.0738,1.9485,1.8471,5.4503,5.4503,5.4628,5.432,5.3757,5.3492,5.3168,5.267,5.1925,5.0105,4.7794,4.7754,4.744,4.6798,4.5938,4.5054,4.4302,4.4098,4.3671,4.3349,4.465,4.4738,4.3947,4.457,4.4683,4.419,4.3892,4.4098,4.4505,4.3475,4.2923,4.2742,4.15,4.0693,4.033,4.0381,4.0467,4.0628,3.8933,3.79,3.7678,3.79,3.8096,3.8217,3.9202,4.0269,4.152,4.1291,4.1622,4.2833,4.2223,4.2111,4.2547,4.262,4.262,4.2639,4.2639,4.2455,4.1918,4.1355,4.0928,4.0741,4.0449,3.9916,3.9057,3.8709,3.8359,3.7804,3.7804,3.7702,3.7448,3.7998,3.854,3.8831,3.8635,3.87,3.9248,3.8833,3.8478,3.844,3.9304,3.9826,3.9429,4.0108,4.0426,4.0277,3.9926,3.9549,3.9275,3.8088,3.6909,3.6325,3.6064,3.5606,3.4815,3.42,3.3552,3.2984,3.1834,3.0896,3.0552,2.9949,2.931,2.8529,2.7801,2.7066,2.6104,2.499,2.3578,2.2084,2.1365,2.0819,1.9689,1.9067,1.816,5.3145,5.2999,5.3223,5.2618,5.1374,5.097,5.0187,4.9093,4.7363,4.6039,4.5157,4.5544,4.5105,4.401,4.3085,4.2515,4.2288,4.1413,4.0924,4.0836,4.2233,4.2338,4.146,4.2859,4.2976,4.1998,4.1945,4.2524,4.3172,4.2023,4.1832,4.2441,4.0887,3.9672,3.928,3.9502,3.933,3.8534,3.7238,3.6486,3.6192,3.6437,3.6561,3.6392,3.7824,3.8834,3.9105,3.9499,3.9887,4.0276,4.0298,4.0456,4.0859,4.101,4.1175,4.1145,4.1302,4.1113,4.0479,4.0192,3.9833,3.9374,3.9548,3.8958,3.7386,3.7173,3.7109,3.6856,3.6673,3.6361,3.6205,3.6257,3.6624,3.7342,3.7371,3.764,3.8244,3.805,3.7566,3.6818,3.6995,3.7448,3.7462,3.7962,3.8645,3.9056,3.8893,3.8915,3.8069,3.6291,3.4861,3.4626,3.4418,3.4152,3.357,3.2764,3.2291,3.2444,3.0999,3.0022,2.9722,2.9087,2.8335,2.7529,2.6633,2.5781,2.4753,2.3275,2.1761,2.031,1.967,1.9311,1.8806,1.8027,1.7227,5.0831,5.0006,5.0052,4.932,4.8109,4.8212,4.7578,4.6292,4.4366,0.0,0.0,4.4316,4.4037,4.3581,4.2689,4.1505,4.0243,4.0119,3.9581,3.8725,3.9767,4.0295,4.0352,4.0606,4.046,3.9844,4.0013,4.014,4.0122,4.0043,4.0092,4.0269,3.97,3.9255,3.8983,3.8784,3.8131,3.7034,3.6874,3.6753,3.6469,3.6753,3.6405,3.5461,3.6801,3.7196,3.6362,3.7449,3.7409,3.6067,3.5945,3.578,3.5452,3.6657,3.7796,3.878,3.9745,3.9799,3.8672,3.8339,3.7959,3.7456,3.7848,3.7074,3.4696,3.5842,3.6621,3.6419,3.6286,3.6234,3.6182,3.613,3.6169,3.6088,3.5815,3.5928,3.6644,3.6498,3.6549,3.7069,3.7085,3.7128,3.6517,3.6629,3.6919,3.7114,3.7075,3.6885,3.6669,3.4884,3.3336,3.3097,3.3157,3.2948,3.1851,3.1357,3.1221,3.0708,3.0005,2.9294,2.8355,2.7709,2.6939,2.5827,2.449,2.3592,2.2882,2.1634,2.0231,1.9006,1.8456,1.8261,1.8209,1.6775,1.4883,4.8915,4.8397,4.8397,4.7494,0.0,4.6109,4.4885,4.2757,4.194,4.1997,4.2807,4.3164,4.3077,4.252,4.1673,4.0605,3.9449,3.9124,3.8546,3.7968,3.8733,3.9119,3.9279,3.955,3.9501,3.9255,3.9403,3.9403,3.9255,3.8958,3.8859,3.8859,3.8383,3.7842,3.731,3.7567,3.7113,3.5861,3.5472,3.5198,3.5096,3.5198,3.5049,3.4711,3.586,0.0,0.0,0.0,0.0,0.0,0.0,0.0,0.0,3.4461,0.0,3.4924,3.4448,3.402,3.3784,3.3677,3.4008,3.4891,3.5026,3.4008,3.1658,3.3295,3.4233,3.3671,3.4337,3.4931,3.5245,3.5312,3.5206,3.5069,3.4909,3.4925,3.5256,3.5103,3.5101,3.5366,3.5192,3.5022,3.4925,3.4618,3.4517,3.5068,3.4802,3.4467,3.4363,3.262,3.0964,3.0477,3.0706,3.0696,3.0214,3.0083,2.9818,2.9637,2.8742,2.7734,2.6911,2.6417,2.5598,2.4264,2.3293,2.218,2.1169,2.0172,1.9082,1.7823,1.731,1.7121,1.6471,1.4946,1.323,4.7016,4.6739,4.6814,4.5755,4.4234,4.3936,4.2396,4.0061,4.0327,4.0833,4.1554,4.2188,4.2084,4.1407,4.0715,3.999,3.923,3.8534,3.803,3.775,3.8107,3.8234,3.8234,3.8609,3.8784,3.8684,3.8734,3.8734,3.8659,3.8081,3.7753,3.7726,3.7113,3.6385,3.5715,0.0,0.0,0.0,3.4137,3.3753,3.3804,3.3753,3.3811,3.3904,3.4827,0.0,3.582,3.6298,3.6394,3.6043,3.5299,0.0,0.0,0.0,0.0,0.0,0.0,0.0,0.0,0.0,0.0,0.0,3.0957,3.0097,2.8727,3.0535,3.1553,3.0925,3.2381,3.3437,3.3744,3.4082,3.4321,3.4299,3.4192,3.4138,3.4138,3.3868,3.3598,3.3293,3.2746,3.2516,3.279,3.2278,3.2107,3.2827,3.254,3.1937,3.13,2.9724,2.8483,2.7899,2.8244,2.8461,2.8733,2.8337,2.8328,2.8579,2.7335,2.5998,2.5363,2.4829,2.3982,2.2651,2.1984,2.0994,1.9587,1.886,1.8091,1.6808,1.6419,1.5841,1.4439,1.3039,1.2023,4.4656,4.377,4.3697,4.2967,4.1645,4.0957,4.0398,4.0035,4.0345,4.0732,4.1245,4.1402,4.1218,4.091,4.0352,3.977,3.923,3.8659,3.8184,3.7705,3.7526,3.7346,3.7113,3.7216,3.701,3.6598,3.6753,3.6776,3.6523,3.6696,3.6621,3.6442,3.6338,3.5927,3.5291,3.4874,3.4235,3.3173,3.3893,3.4339,3.4285,3.4285,3.384,3.2967,3.398,3.4142,3.32,3.4371,3.3951,3.1574,3.1309,3.0552,2.9197,2.9797,2.9614,0.0,2.9187,0.0,0.0,0.0,0.0,0.0,0.0,0.0,0.0,2.8175,2.9726,3.0526,3.2104,3.2715,3.1775,3.3144,3.4062,3.4062,3.3555,3.323,3.3175,3.2814,3.2341,3.1954,3.149,3.0931,3.0523,3.0107,3.0084,3.0557,3.0425,2.9291,2.6975,2.6719,2.6832,2.6646,2.7005,2.6851,2.6321,2.6245,2.6445,2.6622,2.5592,2.4373,2.324,2.2709,2.1972,2.0718,1.9739,1.8976,1.8693,1.789,1.7186,1.6629,1.5831,1.4747,1.3111,1.1638,1.0545,4.2893,4.2297,4.2158,4.0771,3.86,3.8397,3.8305,3.8346,3.8628,3.8968,3.935,3.9267,3.8785,3.8212,3.7649,3.7061,3.6369,3.5934,3.59,3.5969,3.5892,3.6041,3.6471,3.6494,3.6309,3.5943,3.5455,3.5153,3.4845,3.4691,3.4588,3.4684,3.4864,3.402,3.2265,3.2503,3.2716,3.2726,3.3245,3.3435,3.3435,3.3577,3.3514,3.3205,3.3697,3.3858,3.3607,3.406,3.3609,3.2013,3.1232,3.0316,2.9211,2.7073,2.6063,0.0,0.0,0.0,0.0,0.0,0.0,0.0,0.0,0.0,0.0,0.0,2.5657,2.6265,2.8213,2.9235,2.8542,2.9114,2.9676,3.0089,2.9098,2.9202,3.1198,3.0527,3.0198,3.0814,3.0294,2.9671,2.9216,2.8662,2.8269,2.8331,2.7775,2.6824,2.5566,2.5308,2.5332,2.5303,2.5308,2.5103,2.4671,2.4464,2.4332,2.42,2.3296,2.2281,2.1509,2.0893,2.0253,1.9331,1.8637,1.8151,1.7715,1.7173,1.6744,1.6293,1.5,1.3214,1.1695,1.0294,0.926,4.1198,4.0675,3.9543,3.7811,3.5866,3.605,3.6175,3.6402,3.667,3.6956,3.7195,3.6938,3.6244,3.5269,3.4259,3.3578,3.3214,3.2866,3.3157,3.3883,3.3906,3.4336,3.509,3.5113,3.501,3.4707,3.4017,3.3507,3.3328,3.2874,3.2584,3.2388,3.2209,3.085,2.8569,2.9558,3.0676,3.1665,3.2073,3.223,3.21,3.23,3.265,3.3129,3.3075,3.3238,3.376,3.3289,3.279,3.2183,3.0683,2.9581,2.9002,2.488,0.0,0.0,0.0,0.0,0.0,0.0,0.0,0.0,0.0,1.7896,1.6806,0.0,2.0635,0.0,2.44,2.6011,2.6072,2.5814,0.0,0.0,2.5322,2.5505,2.8111,2.7831,2.7891,2.9104,2.864,2.8198,2.805,2.7332,2.6648,2.5985,2.5216,2.4578,2.4279,2.3859,2.3679,2.3679,2.3453,2.323,2.3245,2.2681,2.2153,2.181,2.113,2.0503,2.0011,1.9579,1.896,1.8389,1.7964,1.7538,1.6911,1.6608,1.6104,1.4892,1.3413,1.168,1.0288,0.9131,0.8364,3.9478,3.8051,3.4373,3.3214,3.3882,3.3912,3.414,3.4667,3.5242,3.5358,3.501,3.4775,3.3999,3.2812,3.0373,0.0,3.0954,3.0299,3.0709,3.1887,3.1936,3.198,3.2024,3.2046,3.1997,3.2018,3.1909,3.1887,3.1816,3.1564,3.0788,2.9483,2.76,2.5979,2.4705,2.6058,2.7504,2.8887,3.0279,3.0836,3.0517,3.0517,3.0984,3.1788,3.1378,3.1378,3.1858,3.0963,3.0203,2.9619,2.7471,2.613,2.5807,0.0,0.0,0.0,0.0,0.0,0.0,0.0,0.0,0.0,0.0,0.0,0.0,0.0,0.0,0.0,2.2164,0.0,2.5468,2.5413,0.0,0.0,0.0,2.3726,2.355,2.4851,2.5893,2.6039,0.0,0.0,2.6413,2.6119,2.5308,2.3484,2.3197,2.2699,2.1497,2.1361,2.1361,2.1653,2.1402,2.1333,2.1496,2.0815,2.0049,1.9764,1.9591,1.9331,1.8824,1.8513,1.8264,1.7641,1.7037,1.6482,1.6136,1.5778,1.4712,1.0796,1.0596,1.0661,0.9066,0.8489,0.8294,3.4343,3.0777,2.8999,2.7985,2.7543,2.7874,2.8526,2.9438,3.0074,3.0456,3.0575,3.0521,2.9466,2.7657,2.6561,0.0,0.0,0.0,2.631,2.7982,2.8636,2.9601,3.0685,3.0918,3.0869,3.0741,3.0265,2.9989,2.9822,2.9698,2.7165,2.2371,0.0,0.0,2.1121,2.3393,2.5234,2.6664,2.7935,2.8735,2.899,2.9026,2.935,3.003,2.986,2.9838,3.0148,2.9486,2.838,2.6932,2.5777,2.4495,0.0,0.0,0.0,0.0,0.0,0.0,0.0,0.0,0.0,0.0,0.0,1.286,1.2258,0.0,0.0,0.0,1.7048,1.8407,1.905,1.9728,0.0,0.0,0.0,0.0,0.0,0.0,0.0,2.2393,2.3272,2.4008,2.4403,2.3618,2.2698,2.1756,2.2035,2.1892,2.0682,0.0,2.0872,2.06,2.049,2.0332,1.9986,1.9328,1.8842,1.9085,1.8847,1.8463,1.7953,1.7715,1.7402,1.6702,1.603,1.5336,1.4548,1.2703,1.0674,0.9137,0.9131,0.919,0.8554,0.8029,0.7635,2.838,0.0,0.0,0.0,0.0,2.2606,2.3295,2.4196,2.4846,2.5326,2.5675,2.5708,0.0,0.0,0.0,0.0,0.0,0.0,2.2821,2.4853,2.6007,2.7415,2.8947,2.9065,2.9037,2.8861,2.8302,2.7659,2.6942,2.5968,2.2535,1.6889,0.0,0.0,0.0,0.0,2.1993,2.3621,2.5187,2.6285,2.6722,2.7118,2.7512,2.7784,2.7669,2.7804,2.8139,2.6997,2.5774,2.456,2.3289,0.0,0.0,0.0,0.0,0.0,0.0,0.0,0.0,0.0,0.0,0.0,0.0,0.0,0.0,0.0,0.0,0.0,0.0,0.0,1.4204,1.5073,1.555,0.0,0.0,0.0,0.0,0.0,0.0,0.0,0.0,0.0,2.1207,2.0508,2.0016,0.0,0.0,2.0512,1.9153,1.9191,1.9258,1.9062,1.877,0.0,1.8451,1.7762,1.7339,1.7778,1.7227,1.6562,1.6251,1.6403,1.6294,1.5327,1.4776,1.4014,1.2385,0.9902,0.8333,0.8333,0.8364,0.8229,0.7765,0.6915,0.5854,0.0,0.0,0.0,0.0,0.0,0.0,0.0,0.0,2.0353,2.0664,0.0,2.0483,0.0,0.0,0.0,0.0,1.8388,1.9257,0.0,0.0,2.4325,2.5394,2.6079,2.5892,2.5819,2.5772,2.574,2.4769,2.2983,1.9837,0.0,0.0,0.0,0.0,0.0,0.0,1.7068,1.9333,2.2158,2.3561,2.3353,2.4642,2.526,2.4995,2.4645,2.4866,2.5645,2.3085,2.1926,2.2545,1.9385,0.0,0.0,0.0,0.0,0.0,0.0,0.0,0.0,0.0,0.0,0.0,0.0,0.0,0.0,0.0,0.0,0.0,0.0,0.0,0.0,1.2818,0.0,0.0,0.0,0.0,0.0,0.0,0.0,0.0,0.0,1.7531,1.6346,1.6698,1.7365,1.822,0.0,0.0,0.0,0.0,1.5673,1.6516,1.5772,1.5596,1.6772,1.5878,1.5038,1.5137,0.0,0.0,1.3195,1.4385,1.4929,1.3576,1.3393,1.2527,0.9636,0.8266,0.7723,0.8121,0.8205,0.7885,0.6493,0.4641,0.2854,0.0,0.0,0.0,0.0,0.0,0.0,0.0,0.0,0.0,1.7288,0.0,1.7789,0.0,0.0,0.0,0.0,0.0,0.0,0.0,0.0,1.9872,2.09,2.0891,2.2236,2.2354,0.0,2.1029,1.9525,0.0,0.0,0.0,0.0,0.0,0.0,0.0,0.0,1.5669,1.7386,1.9425,2.0731,2.1374,2.1836,2.2293,2.261,2.2317,2.2137,2.2118,2.0419,1.9595,0.0,0.0,0.0,0.0,0.0,0.0,0.0,0.0,0.0,0.0,0.0,0.0,0.0,0.0,0.0,0.0,0.0,0.0,0.0,0.0,0.0,0.0,0.0,1.1539,0.0,0.0,0.0,0.0,0.0,0.0,0.0,0.0,0.0,1.1583,1.3262,1.4756,1.5066,1.6268,1.6806,1.6063,0.0,0.0,0.0,0.0,0.0,0.0,0.0,1.3059,1.3839,1.3034,1.2514,1.3074,1.3018,1.266,1.1716,0.0,0.0,0.7852,0.6911,0.6236,0.5584,0.6144,0.5801,0.2751,0.1319,0.0501,0.0,0.0,0.0,0.0,0.0,0.0,0.0,0.0,0.0,1.2908,1.3547,0.0,0.0,0.0,0.0,0.0,0.0,0.0,0.0,0.0,0.0,0.0,1.7618,1.9073,0.0,0.0,0.0,0.0,0.0,0.0,0.0,0.0,0.0,0.0,0.0,0.0,1.4025,1.5531,1.7123,1.8339,1.9159,1.9553,1.9973,2.0355,2.0204,1.9732,1.9074,0.0,0.0,0.0,0.0,0.0,0.0,0.0,0.0,0.0,0.0,0.0,0.0,0.0,0.0,0.0,0.0,0.0,0.0,0.0,0.0,0.0,0.0,0.0,0.0,0.0,0.9445,0.0,0.0,0.0,0.0,0.0,0.0,0.0,0.0,0.0,0.0,0.0,1.1531,1.228,1.388,1.4845,1.4503,1.389,1.3459,0.0,0.0,0.0,0.0,0.0,0.0,0.0,0.0,0.0,0.0,0.0,0.0,0.0,0.0,0.7666,0.6493,0.5562,0.4742,0.4214,0.0,0.0,0.0,0.0,0.0,0.0,0.0,0.0,0.0,0.0,0.0,0.0,0.0,0.0,0.0,0.8439,0.0,0.0,1.0524,0.0,0.0,0.0,0.0,0.0,0.0,0.0,0.0,0.0,0.0,0.0,0.0,0.0,0.0,0.0,0.0,0.0,0.0,0.0,0.0,0.0,0.0,1.1917,1.3588,1.5177,1.6226,1.6664,1.7741,1.8303,1.8393,1.8287,1.7728,1.6768,0.0,0.0,0.0,0.0,0.0,0.0,0.0,0.0,0.0,0.0,0.0,0.0,0.0,0.0,0.0,0.0,0.0,0.0,0.0,0.0,0.0,0.0,0.0,0.0,0.0,0.0,0.6643,0.7768,0.8462,0.0,0.0,0.0,0.0,0.0,0.0,0.0,0.0,0.0,0.9942,1.1335,1.2047,1.1596,1.2017,1.2193,1.1884,1.0889,1.0614,1.1513,1.0865,0.9971,0.0,0.0,0.0,0.0,0.0,0.0,0.0,0.0,0.0,0.0,0.0,0.0,0.0,0.0,0.0,0.0,0.0,0.0,0.0,0.0,0.0,0.0,0.0,0.0,0.0,0.0,0.0,0.0,0.0,0.0,0.0,0.0,0.0,0.0,0.0,0.0,0.0,0.0,0.0,0.0,0.0,0.0,0.0,0.0,0.0,0.0,0.0,0.0,0.0,0.0,0.0,0.0,0.0,0.0,1.0737,1.1944,1.2525,1.3245,1.4166,1.4934,1.5546,1.5971,1.5996,1.5862,0.0,0.0,0.0,0.0,0.0,0.0,0.0,0.0,0.0,0.0,0.0,0.0,0.0,0.0,0.0,0.0,0.0,0.0,0.0,0.0,0.0,0.0,0.0,0.0,0.0,0.0,0.0,0.0,0.8432,0.8542,0.7412,0.0,0.0,0.0,0.0,0.0,0.0,0.0,0.0,0.0,0.0,1.0251,1.1195,1.0504,0.9969,1.0311,0.9025,0.8116,0.8414,0.8345,0.8352,0.8631,0.0,0.0,0.0,0.0,0.0,0.0,0.0,0.0,0.0,0.0,0.0,0.0,0.0,0.0,0.0,0.0,0.0,0.0,0.0,0.0,0.0,0.0,0.0,0.0,0.0,0.0,0.0,0.0,0.0,0.0,0.0,0.0,0.0,0.0,0.0,0.0,0.0,0.0,0.0,0.0,0.0,0.0,0.0,0.0,0.0,0.0,0.0,0.0,0.0,0.0,0.0,0.0,0.0,0.9701,1.0583,1.0688,1.1142,1.197,1.2384,1.2778,1.327,1.3424,1.3487,0.0,0.0,0.0,0.0,0.0,0.0,0.0,0.0,0.0,0.0,0.0,0.0,0.0,0.0,0.0,0.0,0.0,0.0,0.0,0.0,0.0,0.0,0.0,0.0,0.0,0.0,0.0,0.0,0.712,0.737,0.6517,0.0,0.0,0.0,0.0,0.0,0.0,0.0,0.0,0.0,0.0,0.7908,0.9033,0.8924,0.0,0.0,0.7942,0.7178,0.6894,0.7262,0.7487,0.7377,0.7124,0.0,0.0,0.0,0.0,0.0,0.0,0.0,0.0,0.0,0.0,0.0,0.0,0.0,0.0,0.0,0.0,0.0,0.0,0.0,0.0,0.0,0.0,0.0,0.0,0.0,0.0,0.0,0.0,0.0,0.0,0.0,0.0,0.0,0.0,0.0,0.0,0.0,0.0,0.0,0.0,0.0,0.0,0.0,0.0,0.0,0.0,0.0,0.0,0.0,0.0,0.0,0.0,0.8806,0.9362,0.9375,0.9628,1.0107,1.0191,1.0302,1.0365,1.0851,1.084,0.0,0.0,0.0,0.0,0.0,0.0,0.0,0.0,0.0,0.0,0.0,0.0,0.0,0.0,0.0,0.0,0.0,0.0,0.0,0.0,0.0,0.0,0.0,0.0,0.0,0.0,0.0,0.0,0.0,0.0,0.0,0.0,0.0,0.0,0.0,0.0,0.0,0.0,0.0,0.0,0.0,0.5242,0.5721,0.7408,0.8255,0.0,0.7346,0.722,0.6587,0.7163,0.7225,0.5783,0.0,0.0,0.0,0.0,0.0,0.0,0.0,0.0,0.0,0.0,0.0,0.0,0.0,0.0,0.0,0.0,0.0,0.0,0.0,0.0,0.0,0.0,0.0,0.0,0.0,0.0,0.0,0.0,0.0,0.0,0.0,0.0,0.0,0.0,0.0,0.0,0.0,0.0,0.0,0.0,0.0,0.0,0.0,0.0,0.0,0.0,0.0,0.0,0.0,0.0,0.0,0.0,0.0,0.0,0.804,0.7621,0.7695,0.8387,0.8984,0.9215,0.906,0.9448,0.0,0.0,0.0,0.0,0.0,0.0,0.0,0.0,0.0,0.0,0.0,0.0,0.0,0.0,0.0,0.0,0.0,0.0,0.0,0.0,0.0,0.0,0.0,0.0,0.0,0.0,0.0,0.2849,0.0,0.0,0.0,0.0,0.0,0.0,0.0,0.0,0.0,0.0,0.0,0.0,0.0,0.0,0.3961,0.5228,0.6019,0.6367,0.0,0.0,0.5922,0.5374,0.6221,0.6787,0.0,0.0,0.0,0.0,0.0,0.0,0.0,0.0,0.0,0.0,0.0,0.0,0.0,0.0,0.0,0.0,0.0,0.0,0.0,0.0,0.0,0.0,0.0,0.0,0.0,0.0,0.0,0.0,0.0,0.0,0.0,0.0,0.0,0.0,0.0,0.0,0.0,0.0,0.0,0.0,0.0,0.0,0.0,0.0,0.0,0.0,0.0,0.0,0.0,0.0,0.0,0.0,0.0,0.0,0.717,0.6681,0.6265,0.5997,0.6048,0.6851,0.717,0.6883,0.7754,0.7948,0.0,0.0,0.0,0.0,0.0,0.0,0.0,0.0,0.0,0.0,0.0,0.0,0.0,0.0,0.0,0.0,0.0,0.0,0.0,0.0,0.0,0.0,0.0,0.0,0.0,0.0,0.0,0.0,0.0,0.0,0.0,0.0,0.0,0.0,0.0,0.0,0.0,0.0,0.0,0.0,0.0,0.0,0.3735,0.4515,0.0,0.0,0.0,0.4623,0.3653,0.0,0.0,0.0,0.0,0.0,0.0,0.0,0.0,0.0,0.0,0.0,0.0,0.0,0.0,0.0,0.0,0.0,0.0,0.0,0.0,0.0,0.0,0.0,0.0,0.0,0.0,0.0,0.0,0.0,0.0,0.0,0.0,0.0,0.0,0.0,0.0,0.0,0.0,0.0,0.0,0.0,0.0,0.0,0.0,0.0,0.0,0.0,0.0,0.0,0.0,0.0,0.0,0.0,0.0,0.0,0.0,0.0,0.537,0.5007,0.4423,0.3687,0.4496,0.4769,0.4565,0.5858,0.6492,0.0,0.0,0.0,0.0,0.0,0.0,0.0,0.0,0.0,0.0,0.0,0.0,0.0,0.0,0.0,0.0,0.0,0.0,0.0,0.0,0.0,0.0,0.0,0.0,0.0,0.0,0.0,0.0,0.0,0.0,0.0,0.0,0.0,0.0,0.0,0.0,0.0,0.0,0.0,0.0,0.0,0.2056,0.215,0.3186,0.3748,0.0,0.0,0.3346,0.1863,0.3205,0.0,0.0,0.0,0.0,0.0,0.0,0.0,0.0,0.0,0.0,0.0,0.0,0.0,0.0,0.0,0.0,0.0,0.0,0.0,0.0,0.0,0.0,0.0,0.0,0.0,0.0,0.0,0.0,0.0,0.0,0.0,0.0,0.0,0.0,0.0,0.0,0.0,0.0,0.0,0.0,0.0,0.0,0.0,0.0,0.0,0.0,0.0,0.0,0.0,0.0,0.0,0.0,0.0,0.0,0.0,0.0,0.459,0.3112,0.2587,0.3217,0.3102,0.3243,0.36,0.3889,0.4262,0.0,0.0,0.0,0.0,0.0,0.0,0.0,0.0,0.0,0.0,0.0,0.0,0.0,0.0,0.0,0.0,0.0,0.0,0.0,0.0,0.0,0.0,0.0,0.0,0.0,0.0,0.0,0.0,0.0,0.0,0.0,0.0,0.0,0.0,0.0,0.0,0.0,0.0,0.0,0.0,0.0,0.1775,0.2355,0.2848,0.0,0.0,0.0,0.0,0.1137,0.2347,0.0,0.0,0.0,0.0,0.0,0.0,0.0,0.0,0.0,0.0,0.0,0.0,0.0,0.0,0.0,0.0,0.0,0.0,0.0,0.0,0.0,0.0,0.0,0.0,0.0,0.0,0.0,0.0,0.0,0.0,0.0,0.0,0.0,0.0,0.0,0.0,0.0,0.0,0.0,0.0,0.0,0.0,0.0,0.0,0.0,0.0,0.0,0.0,0.0,0.0,0.0,0.0,0.0,0.0,0.0,0.0,0.3746,0.2725,0.1697,0.0638,0.1362,0.1972,0.2344,0.2516,0.3171,0.0,0.0,0.0,0.0,0.0,0.0,0.0,0.0,0.0,0.0,0.0,0.0,0.0,0.0,0.0,0.0,0.0,0.0,0.0,0.0,0.0,0.0,0.0,0.0,0.0,0.0,0.0,0.0,0.0,0.0,0.0,0.0,0.0,0.0,0.0,0.0,0.0,0.0,0.0,0.0,0.0522,0.1201,0.1893,0.0,0.0,0.0,0.0,0.0,0.0,0.1475,0.2183,0.0,0.0,0.0,0.0,0.0,0.0,0.0,0.0,0.0,0.0,0.0,0.0,0.0,0.0,0.0,0.0,0.0,0.0,0.0,0.0,0.0,0.0,0.0,0.0,0.0,0.0,0.0,0.0,0.0,0.0,0.0,0.0,0.0,0.0,0.0,0.0,0.0,0.0,0.0,0.0,0.0,0.0,0.0,0.0,0.0,0.0,0.0,0.0,0.0,0.0,0.0,0.0,0.0,0.0,0.0,0.283,0.2476,0.09,-0.1814,-0.0326,0.07,0.1023,0.1438,0.2295,0.3534,0.0,0.0,0.0,0.0,0.0,0.0,0.0,0.0,0.0,0.0,0.0,0.0,0.0,0.0,0.0,0.0,0.0,0.0,0.0,0.0,0.0,0.0,0.0,0.0,0.0,0.0,0.0,0.0,0.0,0.0,0.0,0.0,0.0,0.0,0.0,0.0,0.0,0.0,0.0,0.0294,0.0821,0.0,0.0,0.0,0.0,0.0,0.0,0.0,0.0,0.1179,0.0,0.0,0.0,0.0,0.0,0.0,0.0,0.0,0.0,0.0,0.0,0.0,0.0,0.0,0.0,0.0,0.0,0.0,0.0,0.0,0.0,0.0,0.0,0.0,0.0,0.0,0.0,0.0,0.0,0.0,0.0,0.0,0.0,0.0,0.0,0.0,0.0,0.0,0.0,0.0,0.0,0.0,0.0,0.0,0.0,0.0,0.0,0.0,0.0,0.0,0.0,0.0,0.0,0.0,0.0,0.0,0.0516,-0.0627,-0.1133,-0.1164,-0.0893,-0.0301,0.006,0.0821,0.1891,0.0,0.0,0.0,0.0,0.0,0.0,0.0,0.0,0.0,0.0,0.0,0.0,0.0,0.0,0.0,0.0,0.0,0.0,0.0,0.0,0.0,0.0,0.0,0.0,0.0,0.0,0.0,0.0,0.0,0.0,0.0,0.0,0.0,0.0,0.0,0.0,0.0,0.0,-0.1044,0.0,0.0,0.0,0.0,0.0,0.0,0.0,0.0,0.0,-0.0463,0.0,0.0,0.0,0.0,0.0,0.0,0.0,0.0,0.0,0.0,0.0,0.0,0.0,0.0,0.0,0.0,0.0,0.0,0.0,0.0,0.0,0.0,0.0,0.0,0.0,0.0,0.0,0.0,0.0,0.0,0.0,0.0,0.0,0.0,0.0,0.0,0.0,0.0,0.0,0.0,0.0,0.0,0.0,0.0,0.0,0.0,0.0,0.0,0.0,0.0,0.0,0.0,0.0,0.0,0.0,0.0,0.0,0.0,-0.0731,-0.1502,-0.2066,-0.1911,-0.0842,-0.0697,-0.0158,0.0,0.0,0.0,0.0,0.0,0.0,0.0,0.0,0.0,0.0,0.0,0.0,0.0,0.0,0.0,0.0,0.0,0.0,0.0,0.0,0.0,0.0,0.0,0.0,0.0,0.0,0.0,0.0,0.0,0.0,0.0,0.0,0.0,0.0,0.0,0.0,0.0,0.0,0.0,0.0,0.0,0.0,0.0,0.0,0.0,0.0,0.0,0.0,0.0,0.0,0.0,0.0,0.0,0.0,0.0,0.0,0.0,0.0,0.0,0.0,0.0,0.0,0.0,0.0,0.0,0.0,0.0,0.0,0.0,0.0,0.0,0.0,0.0,0.0,0.0,0.0,0.0,0.0,0.0,0.0,0.0,0.0,0.0,0.0,0.0,0.0,0.0,0.0,0.0,0.0,0.0,0.0,0.0,0.0,0.0,0.0,0.0,0.0,0.0,0.0,0.0,0.0,0.0,0.0,0.0,0.0,0.0,0.0,-0.0609,-0.2188,-0.2772,-0.2545,-0.1322,-0.1355,-0.0816,0.0,0.0,0.0,0.0,0.0,0.0,0.0,0.0,0.0,0.0,0.0,0.0,0.0,0.0,0.0,0.0,0.0,0.0,0.0,0.0,0.0,0.0,0.0,0.0,0.0,0.0,0.0,0.0,0.0,0.0,0.0,0.0,0.0,0.0,0.0,0.0,0.0,0.0,0.0,0.0,0.0,0.0,0.0,0.0,0.0,0.0,0.0,0.0,-0.1846,0.0,0.0,0.0,0.0,0.0,0.0,0.0,0.0,0.0,0.0,0.0,0.0,0.0,0.0,0.0,0.0,0.0,0.0,0.0,0.0,0.0,0.0,0.0,0.0,0.0,0.0,0.0,0.0,0.0,0.0,0.0,0.0,0.0,0.0,0.0,0.0,0.0,0.0,0.0,0.0,0.0,0.0,0.0,0.0,0.0,0.0,0.0,0.0,0.0,0.0,0.0,0.0,0.0,0.0,0.0,0.0,0.0,0.0,0.0,-0.0884,-0.3059,-0.3158,-0.2865,-0.2405,-0.209,-0.1326,0.0,0.0,0.0,0.0,0.0,0.0,0.0,0.0,0.0,0.0,0.0,0.0,0.0,0.0,0.0,0.0,0.0,0.0,0.0,0.0,0.0,0.0,0.0,0.0,0.0,0.0,0.0,0.0,0.0,0.0,0.0,0.0,0.0,0.0,0.0,0.0,0.0,0.0,0.0,0.0,0.0,0.0,0.0,0.0,0.0,0.0,0.0,0.0,0.0,0.0,0.0,0.0,0.0,0.0,0.0,0.0,0.0,0.0,0.0,0.0,0.0,0.0,0.0,0.0,0.0,0.0,0.0,0.0,0.0,0.0,0.0,0.0,0.0,0.0,0.0,0.0,0.0,0.0,0.0,0.0,0.0,0.0,0.0,0.0,0.0,0.0,0.0,0.0,0.0,0.0,0.0,0.0,0.0,0.0,0.0,0.0,0.0,0.0,0.0,0.0,0.0,0.0,0.0,0.0,0.0,0.0,0.0,0.0,-0.1001,-0.2487,-0.333,-0.3663,-0.345,-0.2097,-0.1221,0.0,0.0,0.0,0.0,0.0,0.0,0.0,0.0,0.0,0.0,0.0,0.0,0.0,0.0,0.0,0.0,0.0,0.0,0.0,0.0,0.0,0.0,0.0,0.0,0.0,0.0,0.0,0.0,0.0,0.0,0.0,0.0,0.0,0.0,0.0,0.0,0.0,0.0,0.0,0.0,0.0,0.0,0.0,0.0,0.0,0.0,0.0,0.0,0.0,0.0,0.0,0.0,0.0,0.0,0.0,0.0,0.0,0.0,0.0,0.0,0.0,0.0,0.0,0.0,0.0,0.0,0.0,0.0,0.0,0.0,0.0,0.0,0.0,0.0,0.0,0.0,0.0,0.0,0.0,0.0,0.0,0.0,0.0,0.0,0.0,0.0,0.0,0.0,0.0,0.0,0.0,0.0,0.0,0.0,0.0,0.0,0.0,0.0,0.0,0.0,0.0,0.0,0.0,0.0,0.0,0.0,0.0,0.0,0.0,-0.2156,-0.3567,-0.4374,-0.4185,-0.225,-0.1257,0.0,0.0,0.0,0.0,0.0,0.0,0.0,0.0,0.0,0.0,0.0,0.0,0.0,0.0,0.0,0.0,0.0,0.0,0.0,0.0,0.0,0.0,0.0,0.0,0.0,0.0,0.0,0.0,0.0,0.0,0.0,0.0,0.0,0.0,0.0,0.0,0.0,0.0,0.0,0.0,0.0,0.0,0.0,0.0,0.0,0.0,0.0,0.0,0.0,0.0,0.0,0.0,0.0,0.0,0.0,0.0,0.0,0.0,0.0,0.0,0.0,0.0,0.0,0.0,0.0,0.0,0.0,0.0,0.0,0.0,0.0,0.0,0.0,0.0,0.0,0.0,0.0,0.0,0.0,0.0,0.0,0.0,0.0,0.0,0.0,0.0,0.0,0.0,0.0,0.0,0.0,0.0,0.0,0.0,0.0,0.0,0.0,0.0,0.0,0.0,0.0,0.0,0.0,0.0,0.0,0.0,0.0,0.0,0.0,-0.2649,-0.396,-0.4611,-0.4586,-0.2709,-0.1698,0.0,0.0,0.0,0.0,0.0,0.0,0.0,0.0,0.0,0.0,0.0,0.0,0.0,0.0,0.0,0.0,0.0,0.0,0.0,0.0,0.0,0.0,0.0,0.0,0.0,0.0,0.0,0.0,0.0,0.0,0.0,0.0,0.0,0.0,0.0,0.0,0.0,0.0,0.0,0.0,0.0,0.0,0.0,0.0,0.0,0.0,0.0,0.0,0.0,0.0,0.0,0.0,0.0,0.0,0.0,0.0,0.0,0.0,0.0,0.0,0.0,0.0,0.0,0.0,0.0,0.0,0.0,0.0,0.0,0.0,0.0,0.0,0.0,0.0,0.0,0.0,0.0,0.0,0.0,0.0,0.0,0.0,0.0,0.0,0.0,0.0,0.0,0.0,0.0,0.0,0.0,0.0,0.0,0.0,0.0,0.0,0.0,0.0,0.0,0.0,0.0,0.0,0.0,0.0,0.0,0.0,0.0,0.0,0.0,-0.0961,-0.2791,-0.3905,-0.4029,-0.2668,-0.2106,-0.2545,0.0,0.0,0.0,0.0,0.0,0.0,0.0,0.0,0.0,0.0,0.0,0.0,0.0,0.0,0.0,0.0,0.0,0.0,0.0,0.0,0.0,0.0,0.0,0.0,0.0,0.0,0.0,0.0,0.0,0.0,0.0,0.0,0.0,0.0,0.0,0.0,0.0,0.0,0.0,0.0,0.0,0.0,0.0,0.0,0.0,0.0,0.0,0.0,0.0,0.0,0.0,0.0,0.0,0.0,0.0,0.0,0.0,0.0,0.0,0.0,0.0,0.0,0.0,0.0,0.0,0.0,0.0,0.0,0.0,0.0,0.0,0.0,0.0,0.0,0.0,0.0,0.0,0.0,0.0,0.0,0.0,0.0,0.0,0.0,0.0,0.0,0.0,0.0,0.0,0.0,0.0,0.0,0.0,0.0,0.0,0.0,0.0,0.0,0.0,0.0,0.0,0.0,0.0,0.0,0.0,0.0,0.0,0.0,-0.04,-0.2443,-0.3592,-0.3746,-0.2496,-0.2055,0.0,0.0,0.0,0.0,0.0,0.0,0.0,0.0,0.0,0.0,0.0,0.0,0.0,0.0,0.0,0.0,0.0,0.0,0.0,0.0,0.0,0.0,0.0,0.0,0.0,0.0,0.0,0.0,0.0,0.0,0.0,0.0,0.0,0.0,0.0,0.0,0.0,0.0,0.0,0.0,0.0,0.0,0.0,0.0,0.0,0.0,0.0,0.0,0.0,0.0,0.0,0.0,0.0,0.0,0.0,0.0,0.0,0.0,0.0,0.0,0.0,0.0,0.0,0.0,0.0,0.0,0.0,0.0,0.0,0.0,0.0,0.0,0.0,0.0,0.0,0.0,0.0,0.0,0.0,0.0,0.0,0.0,0.0,0.0,0.0,0.0,0.0,0.0,0.0,0.0,0.0,0.0,0.0,0.0,0.0,0.0,0.0,0.0,0.0,0.0,0.0,0.0,0.0,0.0,0.0,0.0,0.0,0.0,0.0835,-0.1593,-0.3091,-0.3832,-0.3972,-0.2356,-0.1425,0.0,0.0,0.0,0.0,0.0,0.0,0.0,0.0,0.0,0.0,0.0,0.0,0.0,0.0,0.0,0.0,0.0,0.0,0.0,0.0,0.0,0.0,0.0,0.0,0.0,0.0,0.0,0.0,0.0,0.0,0.0,0.0,0.0,0.0,0.0,0.0,0.0,0.0,0.0,0.0,0.0,0.0,0.0,0.0,0.0,0.0,0.0,0.0,0.0,0.0,0.0,0.0,0.0,0.0,0.0,0.0,0.0,0.0,0.0,0.0,0.0,0.0,0.0,0.0,0.0,0.0,0.0,0.0,0.0,0.0,0.0,0.0,0.0,0.0,0.0,0.0,0.0,0.0,0.0,0.0,0.0,0.0,0.0,0.0,0.0,0.0,0.0,0.0,0.0,0.0,0.0,0.0,0.0,0.0,0.0,0.0,0.0,0.0,0.0,0.0,0.0,0.0,0.0,0.0,0.0,0.0,0.0,0.0,0.0,-0.0038,0.0,-0.2712,0.0,-0.2355,-0.2164,0.0,0.0,0.0,0.0,0.0,0.0,0.0,0.0,0.0,0.0,0.0,0.0,0.0,0.0,0.0,0.0,0.0,0.0,0.0,0.0,0.0,0.0,0.0,0.0,0.0,0.0,0.0,0.0,0.0,0.0,0.0,0.0,0.0,0.0,0.0,0.0,0.0,0.0,0.0,0.0,0.0,0.0,0.0,0.0,0.0,0.0,0.0,0.0,0.0,0.0,0.0,0.0,0.0,0.0,0.0,0.0,0.0,0.0,0.0,0.0,0.0,0.0,0.0,0.0,0.0,0.0,0.0,0.0,0.0,0.0,0.0,0.0,0.0,0.0,0.0,0.0,0.0,0.0,0.0,0.0,0.0,0.0,0.0,0.0,0.0,0.0,0.0,0.0,0.0,0.0,0.0,0.0,0.0,0.0,0.0,0.0,0.0,0.0,0.0,0.0,0.0,0.0,0.0,0.0,0.0,0.0,0.0,0.0,0.0,-0.0267,-0.1493,-0.2008,-0.1817,-0.186,-0.1829,0.0,0.0,0.0,0.0,0.0,0.0,0.0,0.0,0.0,0.0,0.0,0.0,0.0,0.0,0.0,0.0,0.0,0.0,0.0,0.0,0.0,0.0,0.0,0.0,0.0,0.0,0.0,0.0,0.0,0.0,0.0,0.0,0.0,0.0,0.0,0.0,0.0,0.0,0.0,0.0,0.0,0.0,0.0,0.0,0.0,0.0,0.0,0.0,0.0,0.0,0.0,0.0,0.0,0.0,0.0,0.0,0.0,0.0,0.0,0.0,0.0,0.0,0.0,0.0,0.0,0.0,0.0,0.0,0.0,0.0,0.0,0.0,0.0,0.0,0.0,0.0,0.0,0.0,0.0,0.0,0.0,0.0,0.0,0.0,0.0,0.0,0.0,0.0,0.0,0.0,0.0,0.0,0.0,0.0,0.0,0.0,0.0,0.0,0.0,0.0,0.0,0.0,0.0,0.0,0.0,0.0,0.0,0.0,0.0,0.0,-0.155,-0.1709,-0.2408,-0.1108,-0.0639,0.0,0.0,0.0,0.0,0.0,0.0,0.0,0.0,0.0,0.0,0.0,0.0,0.0,0.0,0.0,0.0,0.0,0.0,0.0,0.0,0.0,0.0,0.0,0.0,0.0,0.0,0.0,0.0,0.0,0.0,0.0,0.0,0.0,0.0,0.0,0.0,0.0,0.0,0.0,0.0,0.0,0.0,0.0,0.0,0.0,0.0,0.0,0.0,0.0,0.0,0.0,0.0,0.0,0.0,0.0,0.0,0.0,0.0,0.0,0.0,0.0,0.0,0.0,0.0,0.0,0.0,0.0,0.0,0.0,0.0,0.0,0.0,0.0,0.0,0.0,0.0,0.0,0.0,0.0,0.0,0.0,0.0,0.0,0.0,0.0,0.0,0.0,0.0,0.0,0.0,0.0,0.0,0.0,0.0,0.0,0.0,0.0,0.0,0.0,0.0,0.0,0.0,0.0,0.0,0.0,0.0,0.0,0.0,0.0,0.0,-0.0477,0.0,-0.1775,-0.2058,-0.1909,-0.1384,0.0,0.0,0.0,0.0,0.0,0.0,0.0,0.0,0.0,0.0,0.0,0.0,0.0,0.0,0.0,0.0,0.0,0.0,0.0,0.0,0.0,0.0,0.0,0.0,0.0,0.0,0.0,0.0,0.0,0.0,0.0,0.0,0.0,0.0,0.0,0.0,0.0,0.0,0.0,0.0,0.0,0.0,0.0,0.0,0.0,0.0,0.0,0.0,0.0,0.0,0.0,0.0,0.0,0.0,0.0,0.0,0.0,0.0,0.0,0.0,0.0,0.0,0.0,0.0,0.0,0.0,0.0,0.0,0.0,0.0,0.0,0.0,0.0,0.0,0.0,0.0,0.0,0.0,0.0,0.0,0.0,0.0,0.0,0.0,0.0,0.0,0.0,0.0,0.0,0.0,0.0,0.0,0.0,0.0,0.0,0.0,0.0,0.0,0.0,0.0,0.0,0.0,0.0,0.0,0.0,0.0,0.0,0.0,0.0,0.0,-0.0853,-0.1603,-0.2213,-0.2292,0.0,0.0,0.0,0.0,0.0,0.0,0.0,0.0,0.0,0.0,0.0,0.0,0.0,0.0,0.0,0.0,0.0,0.0,0.0,0.0,0.0,0.0,0.0,0.0,0.0,0.0,0.0,0.0,0.0,0.0,0.0,0.0,0.0,0.0,0.0,0.0,0.0,0.0,0.0,0.0,0.0,0.0,0.0,0.0,0.0,0.0,0.0,0.0,0.0,0.0,0.0,0.0,0.0,0.0,0.0,0.0,0.0,0.0,0.0,0.0,0.0,0.0,0.0,0.0,0.0,0.0,0.0,0.0,0.0,0.0,0.0,0.0,0.0,0.0,0.0,0.0,0.0,0.0,0.0,0.0,0.0,0.0,0.0,0.0,0.0,0.0,0.0,0.0,0.0,0.0,0.0,0.0,0.0,0.0,0.0,0.0,0.0,0.0,0.0,0.0,0.0,0.0,0.0,0.0,0.0,0.0,0.0,0.0,0.0,0.0,0.0,-0.1003,-0.1654,-0.1919,0.0,-0.252,0.0,0.0,0.0,0.0,0.0,0.0,0.0,0.0,0.0,0.0,0.0,0.0,0.0,0.0,0.0,0.0,0.0,0.0,0.0,0.0,0.0,0.0,0.0,0.0,0.0,0.0,0.0,0.0,0.0,0.0,0.0,0.0,0.0,0.0,0.0,0.0,0.0,0.0,0.0,0.0,0.0,0.0,0.0,0.0,0.0,0.0,0.0,0.0,0.0,0.0,0.0,0.0,0.0,0.0,0.0,0.0,0.0,0.0,0.0,0.0,0.0,0.0,0.0,0.0,0.0,0.0,0.0,0.0,0.0,0.0,0.0,0.0,0.0,0.0,0.0,0.0,0.0,0.0,0.0,0.0,0.0,0.0,0.0,0.0,0.0,0.0,0.0,0.0,0.0,0.0,0.0,0.0,0.0,0.0,0.0,0.0,0.0,0.0,0.0,0.0,0.0,0.0,0.0,0.0,0.0,0.0,0.0,0.0,0.0,0.0,0.0,0.0,-0.2243,-0.2701,-0.2401,0.0,0.0,0.0,0.0,0.0,0.0,0.0,0.0,0.0,0.0,0.0,0.0,0.0,0.0,0.0,0.0,0.0,0.0,0.0,0.0,0.0,0.0,0.0,0.0,0.0,0.0,0.0,0.0,0.0,0.0,0.0,0.0,0.0,0.0,0.0,0.0,0.0,0.0,0.0,0.0,0.0,0.0,0.0,0.0,0.0,0.0,0.0,0.0,0.0,0.0,0.0,0.0,0.0,0.0,0.0,0.0,0.0,0.0,0.0,0.0,0.0,0.0,0.0,0.0,0.0,0.0,0.0,0.0,0.0,0.0,0.0,0.0,0.0,0.0,0.0,0.0,0.0,0.0,0.0,0.0,0.0,0.0,0.0,0.0,0.0,0.0,0.0,0.0,0.0,0.0,0.0,0.0,0.0,0.0,0.0,0.0,0.0,0.0,0.0,0.0,0.0,0.0,0.0,0.0,0.0,0.0,0.0,0.0,0.0,0.0,-0.1567,-0.1185,-0.2648,-0.3225,-0.2647,0.0,0.0,0.0,0.0,0.0,0.0,0.0,0.0,0.0,0.0,0.0,0.0,0.0,0.0,0.0,0.0,0.0,0.0,0.0,0.0,0.0,0.0,0.0,0.0,0.0,0.0,0.0,0.0,0.0,0.0,0.0,0.0,0.0,0.0,0.0,0.0,0.0,0.0,0.0,0.0,0.0,0.0,0.0,0.0,0.0,0.0,0.0,0.0,0.0,0.0,0.0,0.0,0.0,0.0,0.0,0.0,0.0,0.0,0.0,0.0,0.0,0.0,0.0,0.0,0.0,0.0,0.0,0.0,0.0,0.0,0.0,0.0,0.0,0.0,0.0,0.0,0.0,0.0,0.0,0.0,0.0,0.0,0.0,0.0,0.0,0.0,0.0,0.0,0.0,0.0,0.0,0.0,0.0,0.0,0.0,0.0,0.0,0.0,0.0,0.0,0.0,0.0,0.0,0.0,0.0,0.0,0.0,0.0,0.0,0.0,0.0,0.0,0.0,0.0,-0.3242,0.0,0.0,0.0,0.0,0.0,0.0,0.0,0.0,0.0,0.0,0.0,0.0,0.0,0.0,0.0,0.0,0.0,0.0,0.0,0.0,0.0,0.0,0.0,0.0,0.0,0.0,0.0,0.0,0.0,0.0,0.0,0.0,0.0,0.0,0.0,0.0,0.0,0.0,0.0,0.0,0.0,0.0,0.0,0.0,0.0,0.0,0.0,0.0,0.0,0.0,0.0,0.0,0.0,0.0,0.0,0.0,0.0,0.0,0.0,0.0,0.0,0.0,0.0,0.0,0.0,0.0,0.0,0.0,0.0,0.0,0.0,0.0,0.0,0.0,0.0,0.0,0.0,0.0,0.0,0.0,0.0,0.0,0.0,0.0,0.0,0.0,0.0,0.0,0.0,0.0,0.0,0.0,0.0,0.0,0.0,0.0,0.0,0.0,0.0,0.0,0.0,0.0,0.0,0.0,0.0,0.0,0.0,0.0,0.0,0.0,0.0,0.0,0.0,0.0,0.0,0.0,0.0,0.0,0.0,0.0,0.0,0.0,0.0,0.0,0.0,0.0,0.0,0.0,0.0,0.0,0.0,0.0,0.0,0.0,0.0,0.0,0.0,0.0,0.0,0.0,0.0,0.0,0.0,0.0,0.0,0.0,0.0,0.0,0.0,0.0,0.0,0.0,0.0,0.0,0.0,0.0,0.0,0.0,0.0,0.0,0.0,0.0,0.0,0.0,0.0,0.0,0.0,0.0,0.0,0.0,0.0,0.0,0.0,0.0,0.0,0.0,0.0,0.0,0.0,0.0,0.0,0.0,0.0,0.0,0.0,0.0,0.0,0.0,0.0,0.0,0.0,0.0,0.0,0.0,0.0,0.0,0.0,0.0,0.0,0.0,0.0,0.0,0.0,0.0,0.0,0.0,0.0,0.0,0.0,0.0,0.0,0.0,0.0,0.0,0.0,0.0,0.0,0.0,0.0,0.0,0.0,0.0,0.0,0.0,0.0,0.0,0.0,0.0,0.0,0.0,0.0,0.0,0.0,0.0,0.0,0.0,0.0,0.0,0.0,0.0,0.0,0.0,0.0,0.0,0.0,0.0,0.0,0.0,0.0,0.0,0.0,0.0,0.0,0.0,0.0,0.0,0.0,0.0,0.0,0.0,0.0,0.0,0.0,0.0,0.0,0.0,0.0,0.0,0.0,0.0,0.0,0.0,0.0,0.0,0.0,0.0,0.0,0.0,0.0,0.0,0.0,0.0,0.0,0.0,0.0,0.0,0.0,0.0,0.0,0.0,0.0,0.0,0.0,0.0,0.0,0.0,0.0,0.0,0.0,0.0,0.0,0.0,0.0,0.0,0.0,0.0,0.0,0.0,0.0,0.0,0.0,0.0,0.0,0.0,0.0,0.0,0.0,0.0,0.0,0.0,0.0,0.0,0.0,0.0,0.0,0.0,0.0,0.0,0.0,0.0,0.0,0.0,0.0,0.0,0.0,0.0,0.0,0.0,0.0,0.0,0.0,0.0,0.0,0.0,0.0,0.0,0.0,0.0,0.0,0.0,0.0,0.0,0.0,0.0,0.0,0.0,0.0,0.0,0.0,0.0,0.0,0.0,0.0,0.0,0.0,0.0,0.0,0.0,0.0,0.0,0.0,0.0,0.0,0.0,0.0,0.0,0.0,0.0,0.0,0.0,0.0,0.0,0.0,0.0,0.0,0.0,0.0,0.0,0.0,0.0,0.0,0.0,0.0,0.0,0.0,0.0,0.0,0.0,0.0,0.0,0.0,0.0,0.0,0.0,0.0,0.0,0.0,0.0,0.0,0.0,0.0,0.0,0.0,0.0,0.0,0.0,0.0,0.0,0.0,0.0,0.0,0.0,0.0,0.0,0.0,0.0,0.0,0.0,0.0,0.0,0.0,0.0,0.0,0.0,0.0,0.0,0.0,0.0,0.0,0.0,0.0,0.0,0.0,0.0,0.0,0.0,0.0,0.0,0.0,0.0,0.0,0.0,0.0,0.0,0.0,0.0,0.0,0.0,0.0,0.0,0.0,0.0,0.0,0.0,0.0,0.0,0.0,0.0,0.0,0.0,0.0,0.0,0.0,0.0,0.0,0.0,0.0,0.0,0.0,0.0,0.0,0.0,0.0,0.0,0.0,0.0,0.0,0.0,0.0,0.0,0.0,0.0,0.0,0.0,0.0,0.0,0.0,0.0,0.0,0.0,0.0,0.0,0.0,0.0,0.0,0.0,0.0,0.0,0.0,0.0,0.0,0.0,0.0,0.0,0.0,0.0,0.0,0.0,0.0,0.0,0.0,0.0,0.0,0.0,0.0,0.0,0.0,0.0,0.0,0.0,0.0,0.0,0.0,0.0,0.0,0.0,0.0,0.0,0.0,0.0,0.0,0.0,0.0,0.0,0.0,0.0,0.0,0.0,0.0,0.0,0.0,0.0,0.0,0.0,0.0,0.0,0.0,0.0,0.0,0.0,0.0,0.0,0.0,0.0,0.0,0.0,0.0,0.0,0.0,0.0,0.0,0.0,0.0,0.0,0.0,0.0,0.0,0.0,0.0,0.0,0.0,0.0,0.0,0.0,0.0,0.0,0.0,0.0,0.0,0.0,0.0,0.0,0.0,0.0,0.0,0.0,0.0,0.0,0.0,0.0,0.0,0.0,0.0,0.0,0.0,0.0,0.0,0.0,0.0,0.0,0.0,0.0,0.0,0.0,0.0,0.0,0.0,0.0,0.0,0.0,0.0,0.0,0.0,0.0,0.0,0.0,0.0,0.0,0.0,0.0,0.0,0.0,0.0,0.0,0.0,0.0,0.0,0.0,0.0,0.0,0.0,0.0,0.0,0.0,0.0,0.0,0.0,0.0,0.0,0.0,0.0,0.0,0.0,0.0,0.0,0.0,0.0,0.0,0.0,0.0,0.0,0.0,0.0,0.0,0.0,0.0,0.0,0.0,0.0,0.0,0.0,0.0,0.0,0.0,0.0,0.0,0.0,0.0,0.0,0.0,0.0,0.0,0.0,0.0,0.0,0.0,0.0,0.0,0.0,0.0,0.0,0.0,0.0,0.0,0.0,0.0,0.0,0.0,0.0,0.0,0.0,0.0,0.0,0.0,0.0,0.0,0.0,0.0,0.0,0.0,0.0,0.0,0.0,0.0,0.0,0.0,0.0,0.0,0.0,0.0,0.0,0.0,0.0,0.0,0.0,0.0,0.0,0.0,0.0,0.0,0.0,0.0,0.0,0.0,0.0,0.0,0.0,0.0,0.0,0.0,0.0,0.0,0.0,0.0,0.0,0.0,0.0,0.0,0.0,0.0,0.0,0.0,0.0,0.0,0.0,0.0,0.0,0.0,0.0,0.0,0.0,0.0,0.0,0.0,0.0,0.0,0.0,0.0,0.0,0.0,0.0,0.0,0.0,0.0,0.0,0.0,0.0,0.0,0.0,0.0,0.0,0.0,0.0,0.0,0.0,0.0,0.0,0.0,0.0,0.0,0.0,0.0,0.0,0.0,0.0,0.0,0.0,0.0,0.0,0.0,0.0,0.0,0.0,0.0,0.0,0.0,0.0,0.0,0.0,0.0,0.0,0.0,0.0,0.0,0.0,0.0,0.0,0.0,0.0,0.0,0.0,0.0,0.0,0.0,0.0,0.0,0.0,0.0,0.0,0.0,0.0,0.0,0.0,0.0,0.0,0.0,0.0,0.0,0.0,0.0,0.0,0.0,0.0,0.0,0.0,0.0,0.0,0.0,0.0,0.0,0.0,0.0,0.0,0.0,0.0,0.0,0.0,0.0,0.0,0.0,0.0,0.0,0.0,0.0,0.0,0.0,0.0,0.0,0.0,0.0,0.0,0.0,0.0,0.0,0.0,0.0,0.0,0.0,0.0,0.0,0.0,0.0,0.0,0.0,0.0,0.0,0.0,0.0,0.0,0.0,0.0,0.0,0.0,0.0,0.0,0.0,0.0,0.0,0.0,0.0,0.0,0.0,0.0,0.0,0.0,0.0,0.0,0.0,0.0,0.0,0.0,0.0,0.0,0.0,0.0,0.0,0.0,0.0,0.0,0.0,0.0,0.0,0.0,0.0,0.0,0.0,0.0,0.0,0.0,0.0,0.0,0.0,0.0,0.0,0.0,0.0,0.0,0.0,0.0,0.0,0.0,0.0,0.0,0.0,0.0,0.0,0.0,0.0,0.0,0.0,0.0,0.0,0.0,0.0,0.0,0.0,0.0,0.0,0.0,0.0,0.0,0.0,0.0,0.0,0.0,0.0,0.0,0.0,0.0,0.0,0.0,0.0,0.0,0.0,0.0,0.0,0.0,0.0,0.0,0.0,0.0,0.0,0.0,0.0,0.0,0.0,0.0,0.0]}]]]